[[{"header":{"parameterUnit":"m.s-1","parameterCategory":1,"la1":31.0,"la2":29.5877,"lo1":-88.7671,"lo2":-86.6584,"dy":0.0162,"dx":0.0185,"nx":115,"ny":88,"refTime":"2023-09-11T12:00:00:Z","depth":0,"parameterNumber":2,"parameterNumberName":"U-component_of_WINDS"},"data":[0.0,0.0,0.0,0.0,0.0,0.0,0.0,0.0,0.0,0.0,0.0,0.0,0.0,0.0,0.0,0.0,0.0,0.0,0.0,0.0,0.0,0.0,0.0,0.0,0.0,0.0,0.0,0.0,0.0,0.0,0.0,0.0,0.0,0.0,0.0,0.0,0.0,0.0,0.0,0.0,0.0,0.0,0.0,0.0,0.0,0.0,0.0,0.0,0.0,0.0,0.0,0.0,0.0,0.0,0.0,0.0,0.0,0.0,0.0,0.0,0.0,0.0,0.0,0.0,0.0,0.0,0.0,0.0,0.0,0.0,0.0,0.0,0.0,0.0,0.0,0.0,0.0,0.0,0.0,0.0,0.0,0.0,0.0,0.0,0.0,0.0,0.0,0.0,0.0,0.0,0.0,0.0,0.0,0.0,0.0,0.0,0.0,0.0,0.0,0.0,0.0,0.0,0.0,0.0,0.0,0.0,0.0,0.0,0.0,0.0,0.0,0.0,0.0,0.0,0.0,0.0,0.0,0.0,0.0,0.0,0.0,0.0,0.0,0.0,0.0,0.0,0.0,0.0,0.0,0.0,0.0,0.0,0.0,0.0,0.0,0.0,0.0,0.0,0.0,0.0,0.0,0.0,0.0,0.0,0.0,0.0,0.0,0.0,0.0,0.0,0.0,0.0,0.0,0.0,0.0,0.0,0.0,0.0,0.0,0.0,0.0,0.0,0.0,0.0,0.0,0.0,0.0,0.0,0.0,0.0,0.0,0.0,0.0,0.0,0.0,0.0,0.0,0.0,0.0,0.0,0.0,0.0,0.0,0.0,0.0,0.0,0.0,0.0,0.0,0.0,0.0,0.0,0.0,0.0,0.0,0.0,0.0,0.0,0.0,0.0,0.0,0.0,0.0,0.0,0.0,0.0,0.0,0.0,0.0,0.0,0.0,0.0,0.0,0.0,0.0,0.0,0.0,0.0,0.0,0.0,0.0,0.0,0.0,0.0,0.0,0.0,0.0,0.0,0.0,0.0,0.0,0.0,0.0,0.0,0.0,0.0,0.0,0.0,0.0,0.0,0.0,0.0,0.0,0.0,0.0,0.0,0.0,0.0,0.0,0.0,0.0,0.0,0.0,0.0,0.0,0.0,0.0,0.0,0.0,0.0,0.0,0.0,0.0,0.0,0.0,0.0,0.0,0.0,0.0,0.0,0.0,0.0,0.0,0.0,0.0,0.0,0.0,0.0,0.0,0.0,0.0,0.0,0.0,0.0,0.0,0.0,0.0,0.0,0.0,0.0,0.0,0.0,0.0,0.0,0.0,0.0,0.0,0.0,0.0,0.0,0.0,0.0,0.0,0.0,0.0,0.0,0.0,0.0,0.0,0.0,0.0,0.0,0.0,0.0,0.0,0.0,0.0,0.0,0.0,0.0,0.0,0.0,0.0,0.0,0.0,0.0,0.0,0.0,0.0,0.0,0.0,0.0,0.0,0.0,0.0,0.0,0.0,0.0,0.0,0.0,0.0,0.0,0.0,0.0,0.0,0.0,0.0,0.0,0.0,0.0,0.0,0.0,0.0,0.0,0.0,0.0,0.0,0.0,0.0,0.0,0.0,0.0,0.0,0.0,0.0,0.0,0.0,0.0,0.0,0.0,0.0,0.0,0.0,0.0,0.0,0.0,0.0,0.0,0.0,0.0,0.0,0.0,0.0,0.0,0.0,0.0,0.0,0.0,0.0,0.0,0.0,0.0,0.0,0.0,0.0,0.0,0.0,0.0,0.0,0.0,0.0,0.0,0.0,0.0,0.0,0.0,0.0,0.0,0.0,0.0,0.0,0.0,0.0,0.0,0.0,0.0,0.0,0.0,0.0,0.0,0.0,0.0,0.0,0.0,0.0,0.0,0.0,0.0,0.0,0.0,0.0,0.0,0.0,0.0,0.0,0.0,0.0,0.0,0.0,0.0,0.0,0.0,0.0,0.0,0.0,0.0,0.0,0.0,0.0,0.0,0.0,0.0,0.0,0.0,0.0,0.0,0.0,0.0,0.0,0.0,0.0,0.0,0.0,0.0,0.0,0.0,0.0,0.0,0.0,0.0,0.0,0.0,0.0,0.0,0.0,0.0,0.0,0.0,0.0,0.0,0.0,0.0,0.0,0.0,0.0,0.0,0.0,0.0,0.0,0.0,0.0,0.0,0.0,0.0,0.0,0.0,0.0,0.0,0.0,0.0,0.0,0.0,0.0,0.0,0.0,0.0,0.0,0.0,0.0,0.0,0.0,0.0,0.0,0.0,0.0,0.0,0.0,0.0,0.0,0.0,0.0,0.0,0.0,0.0,0.0,0.0,0.0,0.0,0.0,0.0,0.0,0.0,0.0,0.0,0.0,0.0,0.0,0.0,0.0,0.0,0.0,0.0,0.0,0.0,0.0,0.0,0.0,0.0,0.0,0.0,0.0,0.0,0.0,0.0,0.0,0.0,0.0,0.0,0.0,0.0,0.0,0.0,0.0,0.0,0.0,0.0,0.0,0.0,0.0,0.0,0.0,0.0,0.0,0.0,0.0,0.0,0.0,0.0,0.0,0.0,0.0,0.0,0.0,0.0,0.0,0.0,0.0,0.0,0.0,0.0,0.0,0.0,0.0,0.0,0.0,0.0,0.0,0.0,0.0,0.0,0.0,0.0,0.0,0.0,0.0,0.0,0.0,0.0,0.0,0.0,0.0,0.0,0.0,0.0,0.0,0.0,0.0,0.0,0.0,0.0,0.0,0.0,0.0,0.0,0.0,0.0,0.0,0.0,0.0,0.0,0.0,0.0,0.0,0.0,0.0,0.0,0.0,0.0,0.0,0.0,0.0,0.0,0.0,0.0,0.0,0.0,0.0,0.0,0.0,0.0,0.0,0.0,0.0,0.0,0.0,0.0,0.0,0.0,0.0,0.0,0.0,0.0,0.0,0.0,0.0,0.0,0.0,0.0,0.0,0.0,0.0,0.0,0.0,0.0,0.0,0.0,0.0,0.0,0.0,0.0,0.0,0.0,0.0,0.0,0.0,0.0,0.0,0.0,0.0,0.0,0.0,0.0,0.0,0.0,0.0,0.0,0.0,0.0,0.0,0.0,0.0,0.0,0.0,0.0,0.0,0.0,0.0,0.0,0.0,0.0,0.0,0.0,0.0,0.0,0.0,0.0,0.0,0.0,0.0,0.0,0.0,0.0,0.0,0.0,0.0,0.0,0.0,0.0,0.0,0.0,0.0,0.0,0.0,0.0,0.0,0.0,0.0,0.0,0.0,0.0,0.0,0.0,0.0,0.0,0.0,0.0,0.0,0.0,0.0,0.0,0.0,0.0,0.0,0.0,0.0,0.0,0.0,0.0,0.0,0.0,0.0,0.0,0.0,0.0,0.0,0.0,0.0,0.0,0.0,0.0,0.0,0.0,0.0,0.0,0.0,0.0,0.0,0.0,0.0,0.0,0.0,0.0,0.0,0.0,0.0,0.0,0.0,0.0,0.0,0.0,0.0,0.0,0.0,0.0,0.0,0.0,0.0,0.0,0.0,0.0,0.0,0.0,0.0,0.0,0.0,0.0,0.0,0.0,0.0,0.0,0.0,0.0,0.0,0.0,0.0,0.0,0.0,0.0,0.0,0.0,0.0,0.0,0.0,0.0,0.0,0.0,0.0,0.0,0.0,0.0,0.0,0.0,0.0,0.0,0.0,0.0,0.0,0.0,0.0,0.0,0.0,0.0,0.0,0.0,0.0,0.0,0.0,0.0,0.0,0.0,0.0,0.0,0.0,0.0,0.0,0.0,0.0,0.0,0.0,0.0,0.0,0.0,0.0,0.0,0.0,0.0,0.0,0.0,0.0,0.0,0.0,0.0,0.0,0.0,0.0,0.0,0.0,0.0,0.0,0.0,0.0,0.0,0.0,0.0,0.0,0.0,0.0,0.0,0.0,0.0,0.0,0.0,0.0,0.0,0.0,0.0,0.0,0.0,0.0,0.0,0.0,0.0,0.0,0.0,0.0,0.0,0.0,0.0,0.0,0.0,0.0,0.0,0.0,0.0,0.0,0.0,0.0,0.0,0.0,0.0,0.0,0.0,0.0,0.0,0.0,0.0,0.0,0.0,0.0,0.0,0.0,0.0,0.0,0.0,0.0,0.0,0.0,0.0,0.0,0.0,0.0,0.0,0.0,0.0,0.0,0.0,0.0,0.0,0.0,0.0,0.0,0.0,0.0,0.0,0.0,0.0,0.0,0.0,0.0,0.0,0.0,0.0,0.0,0.0,0.0,0.0,-1.0274,0.0,0.0,0.0,0.0,0.0,0.0,0.0,0.0,0.0,0.0,0.0,0.0,0.0,0.0,0.0,0.0,0.0,0.0,0.0,0.0,0.0,0.0,0.0,0.0,0.0,0.0,0.0,0.0,0.0,0.0,0.0,0.0,0.0,0.0,0.0,0.0,0.0,0.0,0.0,0.0,0.0,0.0,0.0,0.0,0.0,0.0,0.0,0.0,0.0,0.0,0.0,0.0,0.0,0.0,0.0,0.0,0.0,0.0,0.0,0.0,0.0,0.0,0.0,0.0,0.0,0.0,0.0,0.0,0.0,0.0,0.0,0.0,0.0,0.0,0.0,0.0,0.0,0.0,0.0,0.0,0.0,0.0,0.0,0.0,0.0,0.0,0.0,0.0,0.0,0.0,0.0,0.0,0.0,0.0,0.0,0.0,0.0,0.0,0.0,0.0,0.0,0.0,0.0,0.0,0.0,0.0,0.0,0.0,0.0,0.0,-1.0895,-1.0523,-1.0535,-1.0411,-1.0161,0.0,0.0,0.0,0.0,0.0,0.0,0.0,0.0,0.0,0.0,0.0,0.0,0.0,0.0,0.0,0.0,0.0,0.0,0.0,0.0,0.0,0.0,0.0,0.0,0.0,0.0,0.0,0.0,0.0,0.0,0.0,0.0,0.0,0.0,0.0,0.0,0.0,0.0,0.0,0.0,0.0,0.0,0.0,0.0,0.0,0.0,0.0,0.0,0.0,0.0,0.0,0.0,0.0,0.0,0.0,0.0,0.0,0.0,0.0,0.0,0.0,0.0,0.0,0.0,0.0,0.0,0.0,0.0,0.0,0.0,0.0,0.0,0.0,0.0,0.0,0.0,0.0,0.0,0.0,0.0,0.0,0.0,0.0,0.0,0.0,0.0,0.0,0.0,0.0,0.0,0.0,0.0,0.0,0.0,0.0,0.0,0.0,0.0,0.0,0.0,0.0,0.0,0.0,0.0,0.0,0.0,0.0,0.0,0.0,0.0,0.0,0.0,-1.0412,-1.0311,-1.011,0.0,0.0,0.0,0.0,0.0,0.0,0.0,0.0,0.0,0.0,0.0,0.0,0.0,0.0,0.0,0.0,0.0,0.0,0.0,0.0,0.0,0.0,0.0,0.0,0.0,0.0,0.0,0.0,0.0,0.0,0.0,0.0,0.0,0.0,0.0,0.0,0.0,0.0,0.0,0.0,0.0,0.0,0.0,0.0,0.0,0.0,0.0,0.0,0.0,0.0,0.0,0.0,0.0,0.0,0.0,0.0,0.0,0.0,0.0,0.0,0.0,0.0,0.0,0.0,0.0,0.0,0.0,0.0,0.0,0.0,0.0,0.0,0.0,0.0,0.0,0.0,0.0,0.0,0.0,0.0,0.0,0.0,0.0,0.0,0.0,0.0,0.0,0.0,0.0,0.0,0.0,0.0,0.0,0.0,0.0,0.0,0.0,0.0,0.0,0.0,0.0,0.0,0.0,0.0,0.0,0.0,0.0,0.0,0.0,0.0,-1.0285,-0.9957,-1.0072,0.0,-1.0097,0.0,0.0,0.0,0.0,0.0,0.0,0.0,0.0,0.0,0.0,0.0,0.0,0.0,0.0,0.0,0.0,0.0,0.0,0.0,0.0,0.0,0.0,0.0,0.0,0.0,0.0,0.0,0.0,0.0,0.0,0.0,0.0,0.0,0.0,0.0,0.0,0.0,0.0,0.0,0.0,0.0,0.0,0.0,0.0,0.0,0.0,0.0,0.0,0.0,0.0,0.0,0.0,0.0,0.0,0.0,0.0,0.0,0.0,0.0,0.0,0.0,0.0,0.0,0.0,0.0,0.0,0.0,0.0,0.0,0.0,0.0,0.0,0.0,0.0,0.0,0.0,0.0,0.0,0.0,0.0,0.0,0.0,0.0,0.0,0.0,0.0,0.0,0.0,0.0,0.0,0.0,0.0,0.0,0.0,0.0,0.0,0.0,0.0,0.0,0.0,0.0,0.0,0.0,0.0,0.0,0.0,0.0,0.0,0.0,0.0,-1.0034,-0.9893,-0.9957,-0.9983,0.0,0.0,0.0,0.0,0.0,0.0,0.0,0.0,0.0,0.0,0.0,0.0,0.0,0.0,0.0,0.0,0.0,0.0,0.0,0.0,0.0,0.0,0.0,0.0,0.0,0.0,0.0,0.0,0.0,0.0,0.0,0.0,0.0,0.0,0.0,0.0,0.0,0.0,0.0,0.0,0.0,0.0,0.0,0.0,0.0,0.0,0.0,0.0,0.0,0.0,0.0,0.0,0.0,0.0,0.0,0.0,0.0,0.0,0.0,0.0,0.0,0.0,0.0,0.0,0.0,0.0,0.0,0.0,0.0,0.0,0.0,0.0,0.0,0.0,0.0,0.0,0.0,0.0,0.0,0.0,0.0,0.0,0.0,0.0,0.0,0.0,0.0,0.0,0.0,0.0,0.0,0.0,0.0,0.0,0.0,0.0,0.0,0.0,0.0,0.0,0.0,0.0,0.0,0.0,0.0,0.0,0.0,0.0,0.0,0.0,-1.0353,-1.0161,-0.9931,-0.9919,-0.9919,-0.9919,0.0,0.0,0.0,0.0,0.0,0.0,0.0,0.0,0.0,0.0,0.0,0.0,0.0,0.0,0.0,0.0,0.0,0.0,0.0,0.0,0.0,0.0,0.0,0.0,0.0,0.0,0.0,0.0,0.0,0.0,0.0,0.0,0.0,0.0,0.0,0.0,0.0,0.0,0.0,0.0,0.0,0.0,0.0,0.0,0.0,0.0,0.0,0.0,0.0,0.0,0.0,0.0,0.0,0.0,0.0,0.0,0.0,0.0,0.0,0.0,0.0,0.0,0.0,0.0,0.0,0.0,0.0,0.0,0.0,0.0,0.0,0.0,0.0,0.0,0.0,0.0,0.0,0.0,0.0,0.0,0.0,0.0,0.0,0.0,0.0,0.0,0.0,0.0,0.0,0.0,0.0,0.0,0.0,0.0,0.0,0.0,0.0,0.0,0.0,0.0,0.0,0.0,0.0,0.0,0.0,0.0,0.0,0.0,-1.0845,-1.1082,-1.0821,-1.0033,-1.0008,-0.9995,0.0,0.0,0.0,0.0,0.0,0.0,0.0,0.0,0.0,0.0,0.0,0.0,0.0,0.0,0.0,0.0,0.0,0.0,0.0,0.0,0.0,0.0,0.0,0.0,0.0,0.0,0.0,0.0,0.0,0.0,0.0,0.0,0.0,0.0,0.0,0.0,0.0,0.0,0.0,0.0,0.0,0.0,0.0,0.0,0.0,0.0,0.0,0.0,0.0,0.0,0.0,0.0,0.0,0.0,0.0,0.0,0.0,0.0,0.0,0.0,0.0,0.0,0.0,0.0,0.0,0.0,0.0,0.0,0.0,0.0,0.0,0.0,0.0,0.0,0.0,0.0,0.0,0.0,0.0,0.0,0.0,0.0,0.0,0.0,0.0,0.0,0.0,0.0,0.0,0.0,0.0,0.0,0.0,0.0,0.0,0.0,0.0,0.0,0.0,0.0,0.0,0.0,0.0,0.0,0.0,0.0,0.0,0.0,0.0,-1.1682,-1.1547,-1.1267,-1.0781,-1.0556,-1.039,0.0,0.0,0.0,0.0,0.0,0.0,0.0,0.0,0.0,0.0,0.0,0.0,0.0,0.0,0.0,0.0,0.0,0.0,0.0,0.0,0.0,0.0,0.0,0.0,0.0,0.0,0.0,0.0,0.0,0.0,0.0,0.0,0.0,0.0,0.0,0.0,0.0,0.0,0.0,0.0,0.0,0.0,0.0,0.0,0.0,0.0,0.0,0.0,0.0,0.0,0.0,0.0,0.0,0.0,0.0,0.0,0.0,0.0,0.0,0.0,0.0,0.0,0.0,0.0,0.0,0.0,0.0,0.0,0.0,0.0,0.0,0.0,0.0,0.0,0.0,0.0,0.0,0.0,0.0,0.0,0.0,0.0,0.0,0.0,0.0,0.0,0.0,0.0,0.0,0.0,0.0,0.0,0.0,0.0,0.0,0.0,0.0,0.0,0.0,0.0,0.0,0.0,0.0,0.0,0.0,0.0,0.0,0.0,0.0,-1.2753,0.0,-1.2005,-1.1795,-1.1556,-1.1407,0.0,0.0,0.0,0.0,0.0,0.0,0.0,0.0,0.0,0.0,0.0,0.0,0.0,0.0,0.0,0.0,0.0,0.0,0.0,0.0,0.0,0.0,0.0,0.0,0.0,0.0,0.0,0.0,0.0,0.0,0.0,0.0,0.0,0.0,0.0,0.0,0.0,0.0,0.0,0.0,0.0,0.0,0.0,0.0,0.0,0.0,0.0,0.0,0.0,0.0,0.0,0.0,0.0,0.0,0.0,0.0,0.0,0.0,0.0,0.0,0.0,0.0,0.0,0.0,0.0,0.0,0.0,0.0,0.0,0.0,0.0,0.0,0.0,0.0,0.0,0.0,0.0,0.0,0.0,0.0,0.0,0.0,0.0,0.0,0.0,0.0,0.0,0.0,0.0,0.0,0.0,0.0,0.0,0.0,0.0,0.0,0.0,0.0,0.0,0.0,0.0,0.0,0.0,0.0,0.0,0.0,0.0,0.0,-1.4327,-1.4127,-1.3556,-1.3234,-1.3037,-1.3017,-1.3073,0.0,0.0,0.0,0.0,0.0,0.0,0.0,0.0,0.0,0.0,0.0,0.0,0.0,0.0,0.0,0.0,0.0,0.0,0.0,0.0,0.0,0.0,0.0,0.0,0.0,0.0,0.0,0.0,0.0,0.0,0.0,0.0,0.0,0.0,0.0,0.0,0.0,0.0,0.0,0.0,0.0,0.0,0.0,0.0,0.0,0.0,0.0,0.0,0.0,0.0,0.0,0.0,0.0,0.0,0.0,0.0,0.0,0.0,0.0,0.0,0.0,0.0,0.0,0.0,0.0,0.0,0.0,0.0,0.0,0.0,0.0,0.0,0.0,0.0,0.0,0.0,0.0,0.0,0.0,0.0,0.0,0.0,0.0,0.0,0.0,0.0,0.0,0.0,0.0,0.0,0.0,0.0,0.0,0.0,0.0,0.0,0.0,0.0,0.0,0.0,0.0,0.0,0.0,0.0,0.0,0.0,0.0,0.0,0.0,-1.5896,-1.5616,-1.5342,-1.5067,-1.4536,-1.4183,0.0,0.0,0.0,0.0,0.0,0.0,0.0,0.0,0.0,0.0,0.0,0.0,0.0,0.0,0.0,0.0,0.0,0.0,0.0,0.0,0.0,0.0,0.0,0.0,0.0,0.0,0.0,0.0,0.0,0.0,0.0,0.0,0.0,0.0,0.0,0.0,0.0,0.0,0.0,0.0,0.0,0.0,0.0,0.0,0.0,0.0,0.0,0.0,0.0,0.0,0.0,0.0,0.0,0.0,0.0,0.0,0.0,0.0,0.0,0.0,0.0,0.0,0.0,0.0,0.0,0.0,0.0,0.0,0.0,0.0,0.0,0.0,0.0,0.0,0.0,0.0,0.0,0.0,0.0,0.0,0.0,0.0,0.0,0.0,0.0,0.0,0.0,0.0,0.0,0.0,0.0,0.0,0.0,0.0,0.0,0.0,0.0,0.0,0.0,0.0,0.0,0.0,0.0,0.0,0.0,0.0,0.0,0.0,0.0,-1.785,-1.7385,-1.7006,-1.6757,-1.612,-1.5604,-1.5251,0.0,0.0,0.0,0.0,0.0,0.0,0.0,0.0,0.0,0.0,0.0,0.0,0.0,0.0,0.0,0.0,0.0,0.0,0.0,0.0,0.0,0.0,0.0,0.0,0.0,0.0,0.0,0.0,0.0,0.0,0.0,0.0,0.0,0.0,0.0,0.0,0.0,0.0,0.0,0.0,0.0,0.0,0.0,0.0,0.0,0.0,0.0,0.0,0.0,0.0,0.0,0.0,0.0,0.0,0.0,0.0,0.0,0.0,0.0,0.0,0.0,0.0,0.0,0.0,0.0,0.0,0.0,0.0,0.0,0.0,0.0,0.0,0.0,0.0,0.0,0.0,0.0,0.0,0.0,0.0,0.0,0.0,0.0,0.0,0.0,0.0,0.0,0.0,0.0,0.0,0.0,0.0,0.0,0.0,0.0,0.0,0.0,0.0,0.0,0.0,0.0,0.0,0.0,0.0,0.0,0.0,0.0,0.0,-1.9886,-1.8941,-1.8398,-1.8219,-1.77,-1.7196,0.0,0.0,0.0,0.0,0.0,0.0,0.0,0.0,0.0,0.0,0.0,0.0,0.0,0.0,0.0,0.0,0.0,0.0,0.0,0.0,0.0,0.0,0.0,0.0,0.0,0.0,0.0,0.0,0.0,0.0,0.0,0.0,0.0,0.0,0.0,0.0,0.0,0.0,0.0,0.0,0.0,0.0,0.0,0.0,0.0,0.0,0.0,0.0,0.0,0.0,0.0,0.0,0.0,0.0,0.0,0.0,0.0,0.0,0.0,0.0,0.0,0.0,0.0,0.0,0.0,0.0,0.0,0.0,0.0,0.0,0.0,0.0,0.0,0.0,0.0,0.0,0.0,0.0,0.0,0.0,0.0,0.0,0.0,0.0,0.0,0.0,0.0,0.0,0.0,0.0,0.0,0.0,0.0,0.0,0.0,0.0,0.0,0.0,0.0,0.0,0.0,0.0,0.0,0.0,0.0,0.0,0.0,0.0,0.0,-1.9967,-2.0837,-2.1084,-2.0573,-1.9003,-1.8028,0.0,0.0,0.0,0.0,0.0,0.0,0.0,0.0,0.0,0.0,0.0,0.0,0.0,0.0,0.0,0.0,0.0,0.0,0.0,0.0,0.0,0.0,0.0,0.0,0.0,0.0,0.0,0.0,0.0,0.0,0.0,0.0,0.0,0.0,0.0,0.0,0.0,0.0,0.0,0.0,0.0,0.0,0.0,0.0,0.0,0.0,0.0,0.0,0.0,0.0,0.0,0.0,0.0,0.0,0.0,0.0,0.0,0.0,0.0,0.0,0.0,0.0,0.0,0.0,0.0,0.0,0.0,0.0,0.0,0.0,0.0,0.0,0.0,0.0,0.0,0.0,0.0,0.0,0.0,0.0,0.0,0.0,0.0,0.0,0.0,0.0,0.0,0.0,0.0,0.0,0.0,0.0,0.0,0.0,0.0,0.0,0.0,0.0,0.0,0.0,0.0,0.0,0.0,0.0,0.0,0.0,0.0,0.0,-1.932,-1.9917,-2.2009,-2.2931,-2.2498,-1.9909,-1.8332,0.0,0.0,0.0,0.0,0.0,0.0,0.0,0.0,0.0,0.0,0.0,0.0,0.0,0.0,0.0,0.0,0.0,0.0,0.0,0.0,0.0,0.0,0.0,0.0,0.0,0.0,0.0,0.0,0.0,0.0,0.0,0.0,0.0,0.0,0.0,0.0,0.0,0.0,0.0,0.0,0.0,0.0,0.0,0.0,0.0,0.0,0.0,0.0,0.0,0.0,0.0,0.0,0.0,0.0,0.0,0.0,0.0,0.0,0.0,0.0,0.0,0.0,0.0,0.0,0.0,0.0,0.0,0.0,0.0,0.0,0.0,0.0,0.0,0.0,0.0,0.0,0.0,0.0,0.0,0.0,0.0,0.0,0.0,0.0,0.0,0.0,0.0,0.0,0.0,0.0,0.0,0.0,0.0,0.0,0.0,0.0,0.0,0.0,0.0,0.0,0.0,0.0,0.0,0.0,0.0,0.0,0.0,0.0,-1.9416,-1.9971,-2.2633,-2.4008,-2.38,-2.0527,-1.8372,0.0,0.0,0.0,0.0,0.0,0.0,0.0,0.0,0.0,0.0,0.0,0.0,0.0,0.0,0.0,0.0,0.0,0.0,0.0,0.0,0.0,0.0,0.0,0.0,0.0,0.0,0.0,0.0,0.0,0.0,0.0,0.0,0.0,0.0,0.0,0.0,0.0,0.0,0.0,0.0,0.0,0.0,0.0,0.0,0.0,0.0,0.0,0.0,0.0,0.0,0.0,0.0,0.0,0.0,0.0,0.0,0.0,0.0,0.0,0.0,0.0,0.0,0.0,0.0,0.0,0.0,0.0,0.0,0.0,0.0,0.0,0.0,0.0,0.0,0.0,0.0,0.0,0.0,0.0,0.0,0.0,0.0,0.0,0.0,0.0,0.0,0.0,0.0,0.0,0.0,0.0,0.0,0.0,0.0,0.0,0.0,0.0,0.0,0.0,0.0,0.0,0.0,0.0,0.0,0.0,0.0,0.0,0.0,-1.9716,-2.0991,-2.2771,-2.3688,-2.3645,-2.0488,-1.8619,0.0,0.0,0.0,0.0,0.0,0.0,0.0,0.0,0.0,0.0,0.0,0.0,0.0,0.0,0.0,0.0,0.0,0.0,0.0,0.0,0.0,0.0,0.0,0.0,0.0,0.0,0.0,0.0,0.0,0.0,0.0,0.0,0.0,0.0,0.0,0.0,0.0,0.0,0.0,0.0,0.0,0.0,0.0,0.0,0.0,0.0,0.0,0.0,-0.8116,0.0,0.0,0.0,0.0,0.0,0.0,0.0,0.0,0.0,0.0,0.0,0.0,0.0,0.0,0.0,0.0,0.0,0.0,0.0,0.0,0.0,0.0,0.0,0.0,0.0,0.0,0.0,0.0,0.0,0.0,0.0,0.0,0.0,0.0,0.0,0.0,0.0,0.0,0.0,0.0,0.0,0.0,0.0,0.0,0.0,0.0,0.0,0.0,0.0,0.0,0.0,0.0,0.0,0.0,0.0,0.0,0.0,0.0,0.0,-2.0358,-2.1928,-2.3568,-2.441,-2.4333,-2.1941,-2.0041,0.0,0.0,0.0,0.0,0.0,0.0,0.0,0.0,0.0,0.0,0.0,0.0,0.0,0.0,0.0,0.0,0.0,0.0,0.0,0.0,0.0,0.0,0.0,0.0,0.0,0.0,0.0,0.0,0.0,0.0,0.0,0.0,0.0,0.0,0.0,0.0,0.0,0.0,0.0,0.0,0.0,0.0,0.0,0.0,0.0,0.0,0.0,0.0,0.0,0.0,0.0,0.0,0.0,0.0,0.0,0.0,0.0,0.0,0.0,0.0,0.0,0.0,0.0,0.0,0.0,0.0,0.0,0.0,0.0,0.0,0.0,0.0,0.0,0.0,0.0,0.0,0.0,0.0,0.0,0.0,0.0,0.0,0.0,0.0,0.0,0.0,0.0,0.0,0.0,0.0,0.0,0.0,0.0,0.0,0.0,0.0,0.0,0.0,0.0,0.0,0.0,0.0,0.0,0.0,0.0,0.0,0.0,-1.947,-2.1123,-2.2996,-2.4484,-2.5211,-2.5186,-2.3637,-2.1718,-1.9459,0.0,0.0,0.0,0.0,0.0,0.0,0.0,0.0,0.0,0.0,0.0,0.0,0.0,0.0,0.0,0.0,0.0,0.0,0.0,0.0,0.0,0.0,0.0,0.0,0.0,0.0,0.0,0.0,0.0,0.0,0.0,0.0,0.0,0.0,0.0,0.0,0.0,0.0,-0.8263,-0.8385,0.0,0.0,0.0,0.0,0.0,0.0,0.0,0.0,-0.7338,0.0,0.0,0.0,0.0,0.0,0.0,0.0,0.0,0.0,0.0,0.0,0.0,0.0,0.0,0.0,0.0,0.0,0.0,0.0,0.0,0.0,0.0,0.0,0.0,0.0,0.0,0.0,0.0,0.0,0.0,0.0,0.0,0.0,0.0,0.0,0.0,0.0,0.0,0.0,0.0,0.0,0.0,0.0,0.0,0.0,0.0,0.0,0.0,0.0,0.0,0.0,0.0,0.0,0.0,0.0,0.0,-2.0308,-2.0573,-2.1951,-2.4538,-2.4797,-2.4872,-2.4847,-2.3671,-2.201,-1.9851,0.0,0.0,0.0,0.0,0.0,0.0,0.0,0.0,0.0,0.0,0.0,0.0,0.0,0.0,0.0,0.0,0.0,0.0,0.0,0.0,0.0,0.0,0.0,0.0,0.0,0.0,0.0,0.0,0.0,0.0,0.0,0.0,0.0,0.0,0.0,0.0,0.0,0.0,0.0,-0.9115,-0.8955,0.0,0.0,0.0,0.0,0.0,0.0,0.0,0.0,-0.8152,0.0,0.0,0.0,0.0,0.0,0.0,0.0,0.0,0.0,0.0,0.0,0.0,0.0,0.0,0.0,0.0,0.0,0.0,0.0,0.0,0.0,0.0,0.0,0.0,0.0,0.0,0.0,0.0,0.0,0.0,0.0,0.0,0.0,0.0,0.0,0.0,0.0,0.0,0.0,0.0,0.0,0.0,0.0,0.0,0.0,0.0,0.0,0.0,0.0,0.0,0.0,0.0,0.0,0.0,0.0,-2.1491,-2.2242,-2.3621,-2.5706,-2.574,-2.5674,-2.5636,-2.4305,-2.2643,0.0,0.0,0.0,0.0,0.0,0.0,0.0,0.0,0.0,0.0,0.0,0.0,0.0,0.0,0.0,0.0,0.0,0.0,0.0,0.0,0.0,0.0,0.0,0.0,0.0,0.0,0.0,0.0,0.0,0.0,0.0,0.0,0.0,0.0,0.0,0.0,0.0,0.0,0.0,0.0,-0.9252,-0.9261,-1.0215,0.0,0.0,0.0,0.0,0.0,0.0,-0.9217,-0.8711,0.0,0.0,0.0,0.0,0.0,0.0,0.0,0.0,0.0,0.0,0.0,0.0,0.0,0.0,0.0,0.0,0.0,0.0,0.0,0.0,0.0,0.0,0.0,0.0,0.0,0.0,0.0,0.0,0.0,0.0,0.0,0.0,0.0,0.0,0.0,0.0,0.0,0.0,0.0,0.0,0.0,0.0,0.0,0.0,0.0,0.0,0.0,0.0,0.0,0.0,0.0,0.0,0.0,0.0,0.0,-2.2406,-2.3735,-2.5128,-2.6514,-2.6602,-2.6602,-2.6564,-2.4644,-2.2818,0.0,0.0,0.0,0.0,0.0,0.0,0.0,0.0,0.0,0.0,0.0,0.0,0.0,0.0,0.0,0.0,0.0,0.0,0.0,0.0,0.0,0.0,0.0,0.0,0.0,0.0,0.0,0.0,0.0,0.0,0.0,0.0,0.0,0.0,0.0,0.0,0.0,0.0,0.0,0.0,0.0,-0.9615,-1.0713,-0.9995,0.0,0.0,0.0,0.0,-0.9841,-0.9603,0.0,0.0,0.0,0.0,0.0,0.0,0.0,0.0,0.0,0.0,0.0,0.0,0.0,0.0,0.0,0.0,0.0,0.0,0.0,0.0,0.0,0.0,0.0,0.0,0.0,0.0,0.0,0.0,0.0,0.0,0.0,0.0,0.0,0.0,0.0,0.0,0.0,0.0,0.0,0.0,0.0,0.0,0.0,0.0,0.0,0.0,0.0,0.0,0.0,0.0,0.0,0.0,0.0,0.0,0.0,0.0,-2.2922,-2.4423,-2.5761,-2.6879,-2.6943,-2.6943,-2.6918,-2.3829,-2.1602,0.0,0.0,0.0,0.0,0.0,0.0,0.0,0.0,0.0,0.0,0.0,0.0,0.0,0.0,0.0,0.0,0.0,0.0,0.0,0.0,0.0,0.0,0.0,0.0,0.0,0.0,0.0,0.0,0.0,0.0,0.0,0.0,0.0,0.0,0.0,0.0,0.0,0.0,0.0,0.0,0.0,-1.0129,-1.1692,-1.0811,-1.0154,0.0,0.0,-1.1737,-1.1684,-1.1656,0.0,0.0,0.0,0.0,0.0,0.0,0.0,0.0,0.0,0.0,0.0,0.0,0.0,0.0,0.0,0.0,0.0,0.0,0.0,0.0,0.0,0.0,0.0,0.0,0.0,0.0,0.0,0.0,0.0,0.0,0.0,0.0,0.0,0.0,0.0,0.0,0.0,0.0,0.0,0.0,0.0,0.0,0.0,0.0,0.0,0.0,0.0,0.0,0.0,0.0,0.0,0.0,0.0,0.0,0.0,-2.2506,-2.2972,-2.5236,-2.6611,-2.6998,-2.7024,-2.7024,-2.7011,-2.3495,-2.1166,0.0,0.0,0.0,0.0,0.0,0.0,0.0,0.0,0.0,0.0,0.0,0.0,0.0,0.0,0.0,0.0,0.0,0.0,0.0,0.0,0.0,0.0,0.0,0.0,0.0,0.0,0.0,0.0,0.0,0.0,0.0,0.0,0.0,0.0,0.0,0.0,0.0,0.0,0.0,0.0,0.0,0.0,-1.2523,-1.2248,0.0,0.0,0.0,-1.2645,-1.2414,0.0,0.0,0.0,0.0,0.0,0.0,0.0,0.0,0.0,0.0,0.0,0.0,0.0,0.0,0.0,0.0,0.0,0.0,0.0,0.0,0.0,0.0,0.0,0.0,0.0,0.0,0.0,0.0,0.0,0.0,0.0,0.0,0.0,0.0,0.0,0.0,0.0,0.0,0.0,0.0,0.0,0.0,0.0,0.0,0.0,0.0,0.0,0.0,0.0,0.0,0.0,0.0,0.0,0.0,0.0,0.0,0.0,-2.2805,-2.5659,-2.7134,-2.7113,-2.7113,-2.7092,-2.6858,-2.3627,0.0,0.0,0.0,0.0,0.0,0.0,0.0,0.0,0.0,0.0,0.0,0.0,0.0,0.0,0.0,0.0,0.0,0.0,0.0,0.0,0.0,0.0,0.0,0.0,0.0,0.0,0.0,-0.6122,0.0,0.0,0.0,0.0,0.0,0.0,0.0,0.0,0.0,0.0,0.0,0.0,0.0,0.0,-1.2204,-1.3312,-1.3359,-1.3522,0.0,0.0,-1.3407,-1.3348,-1.4119,-1.4147,0.0,0.0,0.0,0.0,0.0,0.0,0.0,0.0,0.0,0.0,0.0,0.0,0.0,0.0,0.0,0.0,0.0,0.0,0.0,0.0,0.0,0.0,0.0,0.0,0.0,0.0,0.0,0.0,0.0,0.0,0.0,0.0,0.0,0.0,0.0,0.0,0.0,0.0,0.0,0.0,0.0,0.0,0.0,0.0,0.0,0.0,0.0,0.0,0.0,0.0,0.0,0.0,0.0,0.0,-2.2189,-2.2674,-2.5325,-2.6952,-2.7423,-2.7469,-2.7235,-2.6688,-2.434,-2.2207,0.0,0.0,0.0,0.0,0.0,0.0,0.0,0.0,0.0,0.0,0.0,0.0,0.0,0.0,0.0,0.0,0.0,0.0,0.0,0.0,0.0,0.0,0.0,0.0,0.0,0.0,0.0,0.0,0.0,0.0,0.0,0.0,0.0,0.0,0.0,0.0,0.0,0.0,0.0,0.0,0.0,-1.3252,-1.4024,-1.3825,-1.4067,0.0,-1.479,-1.4312,-1.4922,-1.5655,-1.5303,-1.2867,0.0,0.0,0.0,0.0,0.0,0.0,0.0,0.0,0.0,0.0,0.0,0.0,0.0,0.0,0.0,0.0,0.0,0.0,0.0,0.0,0.0,0.0,0.0,0.0,0.0,0.0,0.0,0.0,0.0,0.0,0.0,0.0,0.0,0.0,0.0,0.0,0.0,0.0,0.0,0.0,0.0,0.0,0.0,0.0,0.0,0.0,0.0,0.0,0.0,0.0,0.0,0.0,0.0,-2.1844,-2.2184,-2.4955,-2.6577,-2.6952,-2.6701,-2.6414,-2.622,-2.4091,-2.2249,0.0,0.0,0.0,0.0,0.0,0.0,0.0,0.0,0.0,0.0,0.0,0.0,0.0,0.0,0.0,0.0,0.0,0.0,0.0,0.0,0.0,0.0,0.0,0.0,0.0,0.0,0.0,0.0,-1.01,-1.0838,-1.0729,0.0,0.0,0.0,0.0,0.0,0.0,0.0,0.0,0.0,0.0,-1.4118,-1.5353,-1.5424,0.0,0.0,-1.5942,-1.5555,-1.5566,-1.6193,-1.6065,-1.4152,-1.3684,0.0,0.0,0.0,0.0,0.0,0.0,0.0,0.0,0.0,0.0,0.0,0.0,0.0,0.0,0.0,0.0,0.0,0.0,0.0,0.0,0.0,0.0,0.0,0.0,0.0,0.0,0.0,0.0,0.0,0.0,0.0,0.0,0.0,0.0,0.0,0.0,0.0,0.0,0.0,0.0,0.0,0.0,0.0,0.0,0.0,0.0,0.0,0.0,0.0,0.0,0.0,0.0,-2.1369,-2.1967,-2.4638,-2.6233,-2.6611,-2.6242,-2.5965,-2.5697,-2.4297,-2.2823,0.0,0.0,0.0,0.0,0.0,0.0,0.0,0.0,0.0,0.0,0.0,0.0,0.0,0.0,0.0,0.0,0.0,0.0,0.0,0.0,0.0,0.0,0.0,0.0,0.0,0.0,0.0,0.0,-1.1584,-1.2313,-1.1802,0.0,0.0,0.0,0.0,0.0,0.0,0.0,0.0,0.0,0.0,-1.5215,-1.6018,-1.6139,-1.6218,-1.653,-1.6066,-1.5751,-1.5796,-1.6251,-1.6197,-1.5044,0.0,0.0,0.0,0.0,0.0,0.0,0.0,0.0,0.0,0.0,0.0,0.0,0.0,0.0,0.0,0.0,0.0,0.0,0.0,0.0,0.0,0.0,0.0,0.0,0.0,0.0,0.0,-1.3755,0.0,0.0,-1.3572,0.0,0.0,0.0,0.0,0.0,0.0,0.0,0.0,0.0,0.0,0.0,0.0,0.0,0.0,0.0,0.0,0.0,0.0,0.0,0.0,0.0,0.0,-2.0804,-2.2089,-2.4443,-2.5873,-2.6393,-2.638,-2.6,-2.5347,-2.5264,-2.4295,-2.2229,0.0,0.0,0.0,0.0,0.0,0.0,0.0,0.0,0.0,0.0,0.0,0.0,0.0,0.0,0.0,0.0,0.0,0.0,0.0,0.0,0.0,0.0,0.0,0.0,0.0,0.0,-0.9819,-1.1115,-1.2073,0.0,0.0,0.0,0.0,0.0,0.0,0.0,0.0,0.0,0.0,-1.545,-1.6546,-1.5669,-1.5521,-1.5644,-1.5849,-1.4932,-1.4572,-1.5643,-1.5814,-1.5699,0.0,0.0,0.0,0.0,0.0,0.0,0.0,0.0,0.0,0.0,0.0,0.0,0.0,0.0,0.0,0.0,0.0,0.0,0.0,0.0,0.0,0.0,0.0,0.0,0.0,0.0,0.0,-1.4876,-1.4538,0.0,0.0,0.0,0.0,0.0,0.0,0.0,0.0,0.0,0.0,0.0,-2.0118,-2.0629,0.0,0.0,0.0,0.0,0.0,0.0,0.0,0.0,0.0,0.0,0.0,0.0,-2.1146,-2.1898,-2.4111,-2.5453,-2.5851,-2.5548,-2.5159,-2.4778,-2.4766,-2.4061,-2.256,0.0,0.0,0.0,0.0,0.0,0.0,0.0,0.0,0.0,0.0,0.0,0.0,0.0,0.0,0.0,0.0,0.0,0.0,0.0,0.0,0.0,0.0,0.0,0.0,0.0,-1.18,0.0,0.0,0.0,0.0,0.0,0.0,0.0,0.0,0.0,0.0,0.0,-1.4158,-1.4871,-1.523,-1.5546,-1.5964,-1.6034,-1.6237,0.0,0.0,0.0,0.0,0.0,0.0,0.0,0.0,0.0,0.0,0.0,0.0,0.0,0.0,-1.3655,-1.2742,-1.2958,-1.3294,-1.3302,0.0,0.0,0.0,0.0,0.0,0.0,0.0,0.0,0.0,0.0,0.0,0.0,0.0,0.0,-1.7013,0.0,-1.7279,0.0,0.0,0.0,0.0,0.0,0.0,0.0,0.0,-2.108,-2.1836,-2.2116,-2.2464,-2.2523,0.0,-2.183,-2.044,0.0,0.0,0.0,0.0,0.0,0.0,0.0,0.0,-2.1464,-2.1898,-2.4028,-2.5288,-2.5453,-2.5159,-2.4885,-2.4706,-2.4562,-2.4152,-2.3329,-2.2092,-2.096,0.0,0.0,0.0,0.0,0.0,0.0,0.0,0.0,0.0,0.0,0.0,0.0,0.0,0.0,0.0,0.0,0.0,0.0,0.0,0.0,0.0,0.0,0.0,-1.3314,0.0,0.0,0.0,0.0,0.0,0.0,0.0,0.0,0.0,-1.4281,-1.4604,-1.5074,-1.5793,-1.5853,-1.588,-1.6009,0.0,0.0,0.0,0.0,0.0,0.0,0.0,-1.493,-1.4702,-1.483,-1.5104,-1.5617,-1.5887,-1.6,-1.6035,0.0,0.0,-1.4677,-1.4821,-1.5141,-1.515,-1.4988,-1.4897,-1.5092,-1.5145,-1.5219,0.0,0.0,0.0,0.0,0.0,0.0,0.0,0.0,-2.0901,-2.0133,0.0,-2.0008,0.0,0.0,0.0,0.0,-1.9066,-2.0814,0.0,0.0,-2.418,-2.4919,-2.3866,-2.3854,-2.3589,-2.3047,-2.2077,-2.129,-2.0798,-2.1003,0.0,0.0,0.0,0.0,0.0,0.0,-2.1632,-2.2114,-2.4198,-2.5312,-2.5312,-2.5312,-2.5241,-2.5087,-2.4694,-2.4526,-2.4443,-2.3375,-2.2594,-2.2195,-1.9895,0.0,0.0,0.0,0.0,0.0,0.0,0.0,0.0,0.0,0.0,0.0,0.0,0.0,0.0,0.0,0.0,0.0,0.0,0.0,0.0,-1.4854,0.0,0.0,0.0,0.0,0.0,0.0,0.0,0.0,0.0,0.0,-1.4314,-1.5281,-1.6093,-1.6084,0.0,0.0,0.0,0.0,-1.6053,-1.4404,-1.4138,-1.4173,-1.4209,-1.4772,-1.5515,-1.6165,0.0,0.0,-1.7596,-1.6982,-1.6519,-1.6492,-1.7114,-1.7261,-1.6127,-1.5934,-1.5942,-1.5934,-1.5959,-1.5926,-1.5891,-1.6002,-1.5968,-2.1531,0.0,0.0,0.0,0.0,-2.0572,-2.1235,-2.2174,-2.2174,-2.1764,-2.1123,-2.2171,0.0,0.0,0.0,0.0,0.0,0.0,-2.2428,-2.3144,-2.3935,-2.4502,-2.4867,-2.4867,-2.4795,-2.4626,-2.4338,-2.4109,-2.3944,-2.4042,-2.2523,-1.9533,0.0,0.0,0.0,0.0,-2.2402,-2.3295,-2.4638,-2.5312,-2.5312,-2.5312,-2.5241,-2.5076,-2.4849,-2.4718,-2.4718,-2.4354,-2.3746,-2.281,-2.1082,0.0,0.0,0.0,0.0,0.0,0.0,0.0,0.0,0.0,0.0,0.0,0.0,0.0,0.0,0.0,0.0,0.0,0.0,0.0,-1.4248,-1.5038,-1.5074,0.0,0.0,0.0,0.0,0.0,0.0,0.0,0.0,0.0,-1.6096,-1.5944,-1.5807,0.0,0.0,-1.5355,-1.4857,-1.5469,-1.6017,-1.606,-1.6078,0.0,-1.6851,-1.6547,-1.6334,-1.6559,-1.7161,-1.7614,-1.7614,-1.7834,-1.8018,-1.8038,-1.8243,-1.8245,-1.7981,-1.7881,-1.7863,-1.7872,-1.7872,-1.7872,-1.7872,-1.7756,-1.7644,-2.4349,-2.3267,-2.2292,-2.2151,-2.2561,-2.2561,-2.3151,-2.4072,-2.4105,-2.3666,-2.2982,-2.3981,-2.3467,-2.1819,-2.2341,0.0,0.0,0.0,-2.3474,-2.4534,-2.4522,-2.4826,-2.5394,-2.5347,-2.5312,-2.5312,-2.5312,-2.5312,-2.5312,-2.4891,-2.3613,-2.1446,0.0,0.0,-2.126,-2.2282,-2.3168,-2.3818,-2.4783,-2.5312,-2.5312,-2.5312,-2.5276,-2.517,-2.5016,-2.4933,-2.4921,-2.4825,-2.4436,-2.363,-2.2374,-2.1059,0.0,0.0,0.0,0.0,0.0,0.0,0.0,0.0,0.0,0.0,0.0,-1.3764,-1.323,0.0,0.0,0.0,-1.4849,-1.5043,-1.5196,-1.5492,0.0,0.0,0.0,0.0,0.0,0.0,0.0,-1.5014,-1.6024,-1.6804,-1.6864,-1.6486,-1.6294,-1.6606,-1.6248,-1.5794,-1.5505,0.0,-1.6716,-1.689,-1.6908,-1.7073,-1.7559,-1.7423,-1.7342,-1.7697,-1.8031,-1.8281,-1.8269,-1.8665,-1.8913,-1.8922,-1.8922,-1.8922,-1.8931,-1.8922,-1.8891,-1.874,-1.8709,-1.8709,-1.8709,-1.862,-1.8523,-2.6487,-2.6311,-2.4255,-2.396,-2.4913,-2.4913,-2.539,-2.6223,-2.6223,-2.5562,-2.4575,-2.5502,-2.4858,-2.3004,-2.2725,0.0,-2.3993,-2.4114,-2.4657,-2.5558,-2.5606,-2.5606,-2.5571,-2.5382,-2.5312,-2.5312,-2.5312,-2.5312,-2.5276,-2.4374,-2.3878,-2.3806,-2.3806,-2.3276,-2.2306,-2.3147,-2.371,-2.3818,-2.4699,-2.5228,-2.53,-2.5312,-2.5312,-2.5312,-2.517,-2.5111,-2.5123,-2.4957,-2.4742,-2.4527,-2.3584,-2.2902,-2.248,0.0,0.0,0.0,0.0,0.0,0.0,0.0,0.0,0.0,0.0,0.0,0.0,0.0,0.0,0.0,-1.6057,0.0,-1.6972,-1.623,0.0,0.0,0.0,-1.5695,-1.6618,-1.6789,-1.6842,-1.6874,0.0,0.0,-1.7,-1.7009,-1.7303,-1.8081,-1.8081,-1.7752,-1.7009,-1.7514,-1.7816,-1.7147,-1.7082,-1.7119,-1.7358,-1.7816,-1.8383,-1.9036,-1.9292,-1.9216,-1.9246,-1.9234,-1.9301,-1.9253,-1.9292,-1.9292,-1.9292,-1.9253,-1.9192,-1.8812,-1.874,-1.874,-1.8772,-1.874,-1.874,-2.6487,-2.6449,-2.5921,-2.5858,-2.6109,-2.6109,-2.6226,-2.643,-2.6443,-2.6233,-2.5999,-2.6249,-2.6061,-2.5561,-2.4759,-2.4733,-2.5426,-2.5414,-2.5397,-2.5382,-2.5535,-2.55,-2.5382,-2.5347,-2.5312,-2.5312,-2.5312,-2.5312,-2.53,-2.5059,-2.4542,-2.3842,-2.3806,-2.3276,-2.2246,-2.2469,-2.2967,-2.3806,-2.4047,-2.4518,-2.5276,-2.5312,-2.5312,-2.5312,-2.5276,-2.5241,-2.5241,-2.5218,-2.5123,-2.4945,-2.4104,-2.2913,-2.1317,-1.9762,0.0,0.0,0.0,0.0,0.0,0.0,0.0,0.0,0.0,-1.4908,-1.4282,0.0,-1.5392,0.0,-1.6874,-1.7734,-1.7825,-1.7624,0.0,0.0,-1.6631,-1.6595,-1.6855,-1.7387,-1.7524,-1.6982,-1.7449,-1.7834,-1.7789,-1.7834,-1.8091,-1.888,-1.7972,-1.7119,-1.6945,-1.7605,-1.8064,-1.7889,-1.832,-1.8724,-1.8687,-1.888,-1.9063,-1.9274,-1.9292,-1.9292,-1.9292,-1.9292,-1.9292,-1.9292,-1.9292,-1.9292,-1.9292,-1.9292,-1.9262,-1.9192,-1.9152,-1.9152,-1.9152,-1.9033,-1.8931,-2.6487,-2.6487,-2.6487,-2.6487,-2.6487,-2.6487,-2.6487,-2.6487,-2.6487,-2.6487,-2.6487,-2.6487,-2.6233,-2.5838,-2.5641,-2.5453,-2.5382,-2.5641,-2.5688,-2.5571,-2.5488,-2.5453,-2.5418,-2.5347,-2.5312,-2.5312,-2.554,-2.5661,-2.5673,-2.5901,-2.5733,-2.5192,-2.518,-2.4638,-2.358,-2.2666,-2.2594,-2.3433,-2.3685,-2.43,-2.5264,-2.5312,-2.5192,-2.4963,-2.4747,-2.4506,-2.4278,-2.4049,-2.3829,-2.3661,-2.322,-2.2298,-2.0815,-1.9457,-1.8026,0.0,0.0,0.0,0.0,0.0,0.0,0.0,0.0,0.0,0.0,0.0,-1.6239,-1.6239,-1.7349,-1.7935,-1.7614,-1.7578,-1.7505,-1.7458,-1.7449,-1.7551,-1.7935,-1.8375,-1.8476,-1.8027,-1.8366,-1.8641,-1.865,-1.865,-1.888,-1.9494,-1.8815,-1.8183,-1.8036,-1.8385,-1.865,-1.8678,-1.9026,-1.9292,-1.9292,-1.9292,-1.9292,-1.9292,-1.9292,-1.9292,-1.9292,-1.9292,-1.9292,-1.9292,-1.9292,-1.9292,-1.9292,-1.9292,-1.9292,-1.9292,-1.9292,-1.9292,-1.9292,-1.9183,-1.9112,-2.66,-2.6612,-2.6663,-2.67,-2.6713,-2.67,-2.6625,-2.6487,-2.6487,-2.6468,-2.6427,-2.6345,-2.5833,-2.5099,-2.5706,-2.5516,-2.4799,-2.5433,-2.5777,-2.5908,-2.5671,-2.5658,-2.5812,-2.5623,-2.5552,-2.5576,-2.6021,-2.6226,-2.6214,-2.6657,-2.6825,-2.6693,-2.6681,-2.6177,-2.518,-2.334,-2.2618,-2.3119,-2.3697,-2.4398,-2.5276,-2.518,-2.4891,-2.4434,-2.3989,-2.3589,-2.3132,-2.2674,-2.2327,-2.2158,-2.2052,-2.1687,-2.0927,-1.9338,-1.8155,0.0,-1.6023,0.0,0.0,0.0,0.0,0.0,0.0,0.0,0.0,-1.6908,-1.6954,-1.7046,-1.767,-1.7834,-1.7266,-1.722,-1.7487,-1.8219,-1.8357,-1.8612,-1.9347,-1.9457,-1.9457,-1.9457,-1.9457,-1.9457,-1.9457,-1.9467,-1.9604,-1.9884,-1.9902,-1.9692,-1.9522,-1.9439,-1.9467,-1.9457,-1.9457,-1.9549,-1.9522,-1.9448,-1.9402,-1.9402,-1.9329,-1.9292,-1.9292,-1.9292,-1.9292,-1.9292,-1.9292,-1.9292,-1.9292,-1.9292,-1.9292,-1.9292,-1.9292,-1.9292,-1.9292,-1.9301,-1.9292,-2.7165,-2.7168,-2.7607,-2.7795,-2.7795,-2.7795,-2.7316,-2.6487,-2.6487,-2.6355,-2.6058,-2.5415,-2.5231,-2.5348,-2.4889,-2.4812,-2.5158,-2.5977,-2.6188,-2.5925,-2.6561,-2.6858,-2.6907,-2.6858,-2.687,-2.6833,-2.6918,-2.6916,-2.6729,-2.6849,-2.6441,-2.5601,-2.5612,-2.5264,-2.4628,0.0,0.0,0.0,-2.4542,-2.5119,-2.5264,-2.4482,-2.4013,-2.395,-2.3854,0.0,-2.3661,-2.3553,-2.3472,-2.3427,-2.2876,0.0,0.0,0.0,0.0,0.0,0.0,0.0,0.0,0.0,0.0,0.0,-1.7715,-1.7458,-1.6954,-1.6908,-1.7174,-1.7789,-1.8008,-1.8292,-1.8806,-1.8843,-1.9045,-1.9481,-1.9546,-1.9738,-2.0228,-2.0273,-2.0283,-2.0292,-2.0283,-2.0283,-2.0255,-2.0283,-2.031,-2.0393,-2.0411,-2.0342,-2.0268,-2.0264,-2.0273,-2.0283,-2.0228,-2.0264,-2.0283,-1.9966,-1.9806,-1.9778,-1.9503,-1.9347,-1.9338,-1.9329,-1.9311,-1.9329,-1.9292,-1.932,-1.9311,-1.9292,-1.9338,-1.9301,-1.9301,-1.9292,-1.9292,-1.9292,-1.9292,-2.7695,-2.772,-2.7984,-2.8109,0.0,-2.8109,-2.7553,-2.6696,-2.7114,-2.7217,-2.7017,-2.6626,-2.635,-2.6197,-2.6171,-2.6121,-2.6071,-2.6788,-2.7049,-2.6849,-2.7186,-2.731,-2.7198,-2.7298,-2.731,-2.7211,-2.7466,-2.7524,-2.7434,-2.7611,-2.739,-2.6911,-2.6987,-2.6855,-2.6502,-2.6238,-2.5588,-2.4542,-2.5047,-2.5564,-2.6057,-2.5612,-2.5192,-2.4962,-2.4697,0.0,0.0,0.0,0.0,0.0,0.0,0.0,0.0,-2.0828,0.0,-1.961,-1.9263,-1.9141,-1.9231,-1.9126,-1.918,-1.959,-1.9548,-1.9079,-1.8155,-1.8449,-1.8861,-1.9225,-1.9271,-1.9427,-1.9852,-1.9897,-1.998,-2.0149,-2.0186,-2.0352,-2.061,-2.0689,-2.0722,-2.0848,-2.0848,-2.0848,-2.0848,-2.0857,-2.0908,-2.0991,-2.0985,-2.1016,-2.1034,-2.0717,-2.0521,-2.0521,-2.0521,-2.0521,-2.0512,-2.0332,-2.0177,-2.0149,-2.0044,-1.9925,-1.9907,-1.9897,-1.9907,-1.9907,-1.9907,-1.9907,-1.9897,-1.9907,-1.9852,-1.9668,-1.9613,-1.9531,-1.9366,-1.9292,-1.9292,-2.8247,-2.826,-2.836,-2.8411,-2.8398,-2.825,-2.7654,-2.6888,0.0,0.0,0.0,-2.7557,-2.7156,-2.6544,-2.7177,-2.7177,-2.6735,-2.7177,-2.7567,-2.7853,-2.7642,-2.7579,-2.7603,-2.7766,-2.7729,-2.759,-2.8005,-2.8224,-2.8159,-2.844,-2.8618,-2.863,-2.8764,-2.8697,-2.851,-2.851,-2.7645,-2.5961,-2.5697,-2.5997,-2.6849,-2.6705,-2.643,-2.5961,-2.554,-2.5107,-2.464,-2.3536,-2.2891,-2.2891,-2.2118,-2.151,-2.1167,-2.073,-2.036,-2.0054,-1.9696,-1.9773,-2.044,-2.0448,-2.0702,-2.1362,-2.1283,-2.0685,-1.9626,-2.0136,-2.0521,-2.0563,-2.0563,-2.0596,-2.0596,-2.0638,-2.0633,-2.0739,-2.0758,-2.0819,-2.1071,-2.1156,-2.1245,-2.1315,-2.1405,-2.1409,-2.1438,-2.1447,-2.1438,-2.1568,-2.1575,-2.1643,-2.1655,-2.1181,-2.0805,-2.0814,-2.0799,-2.0726,-2.0732,-2.0668,-2.0589,-2.0613,-2.0549,-2.0521,-2.0521,-2.0521,-2.0521,-2.0448,-2.0521,-2.0493,-2.0512,-2.0466,-2.0402,-2.0049,-1.9994,-1.9893,-1.9613,-1.9522,-1.9494,-2.8775,-2.8813,-2.9352,-2.9553,-2.9502,-2.8768,-2.7905,-2.7013,-2.6209,-2.5693,-2.5443,-2.5443,-2.521,-2.4819,-2.4956,-2.5353,-2.5953,-2.5892,-2.6631,-2.8036,-2.7826,-2.8234,-2.9066,-2.9105,-2.904,-2.887,-2.9075,-2.9034,-2.8733,-2.8897,-2.9013,-2.9013,-2.8882,-2.8685,-2.851,-2.851,-2.8354,-2.8041,-2.7164,-2.6741,-2.6873,-2.5985,-2.5492,-2.542,-2.5384,-2.5276,-2.5192,-2.4991,-2.4908,-2.4873,-2.4211,-2.4132,-2.4758,-2.3438,-2.302,-2.3638,-2.2801,-2.227,-2.2375,-2.2178,-2.2085,-2.2208,-2.2218,-2.1652,-2.048,-2.0448,-2.0605,-2.0824,-2.0852,-2.0941,-2.1057,-2.1127,-2.1245,-2.1556,-2.1612,-2.1691,-2.1879,-2.2048,-2.2073,-2.1986,-2.2139,-2.2224,-2.2186,-2.2205,-2.2117,-2.2054,-2.1991,-2.2022,-2.2006,-2.1791,-2.1566,-2.1522,-2.1522,-2.1522,-2.1403,-2.1227,-2.1053,-2.1016,-2.0759,-2.058,-2.0622,-2.0622,-2.0622,-2.0549,-2.0613,-2.0585,-2.0576,-2.0521,-2.053,-2.0457,-2.0438,-2.0342,-2.0273,-2.0255,-2.009,-2.8699,-2.8645,-2.8445,-2.8343,-2.8263,-2.7383,-2.6812,-2.6326,-2.5382,-2.5428,-2.6188,-2.6685,-2.6526,-2.5913,-2.5924,-2.6121,-2.6483,-2.6412,-2.6794,-2.7528,-2.7476,-2.7637,-2.7947,-2.8119,-2.8039,-2.7891,-2.841,-2.8581,-2.8474,-2.8882,-2.9104,-2.9091,-2.8882,-2.8803,-2.8816,-2.863,-2.8271,-2.7782,-2.7782,-2.775,-2.775,-2.7308,-2.7031,-2.7031,-2.7043,-2.7043,-2.7043,-2.6576,-2.6335,-2.6335,-2.5111,-2.4596,-2.4949,-2.3836,-2.3313,-2.3704,-2.3266,-2.2979,-2.2969,-2.2838,-2.275,-2.2618,-2.2618,-2.2334,-2.1599,-2.1528,-2.1562,-2.1701,-2.1691,-2.1744,-2.1811,-2.1854,-2.1939,-2.2095,-2.2123,-2.2242,-2.2448,-2.2574,-2.2618,-2.2662,-2.2706,-2.2784,-2.2794,-2.2794,-2.2706,-2.2495,-2.2362,-2.2264,-2.2264,-2.2185,-2.2043,-2.1919,-2.182,-2.1687,-2.1678,-2.1549,-2.1456,-2.1403,-2.1257,-2.1147,-2.1138,-2.1129,-2.1119,-2.1129,-2.1172,-2.1138,-2.1119,-2.1138,-2.1089,-2.086,-2.0842,-2.0787,-2.0604,-2.0521,-2.0374,-2.8183,-2.8091,-2.7395,-2.6987,-2.6741,-2.6069,-2.5704,-2.5463,-2.502,-2.5432,-2.6535,-2.7313,-2.718,-2.6535,-2.6535,-2.6618,-2.6782,-2.6618,-2.6741,-2.7058,-2.6894,-2.6812,-2.6894,-2.7017,-2.6987,-2.6905,-2.7557,-2.7851,-2.7879,-2.8395,-2.8605,-2.8502,-2.8383,-2.8303,-2.8343,-2.8035,-2.7551,-2.6958,-2.7551,-2.7886,-2.7886,-2.7886,-2.7886,-2.7926,-2.7862,-2.7886,-2.7886,-2.7255,-2.6887,-2.6835,-2.5537,-2.4787,-2.4744,-2.3907,-2.3387,-2.3387,-2.3232,-2.3101,-2.3101,-2.3101,-2.3057,-2.2882,-2.2882,-2.2794,-2.2608,-2.2574,-2.252,-2.2485,-2.2448,-2.2501,-2.2526,-2.2536,-2.2564,-2.2564,-2.2574,-2.2599,-2.275,-2.2847,-2.2882,-2.3003,-2.3047,-2.3091,-2.3101,-2.3101,-2.3013,-2.2794,-2.2574,-2.2388,-2.2397,-2.2397,-2.2264,-2.2097,-2.1919,-2.183,-2.1785,-2.1731,-2.1668,-2.1687,-2.1668,-2.1614,-2.1623,-2.1659,-2.1678,-2.1623,-2.165,-2.1623,-2.1668,-2.1659,-2.1522,-2.131,-2.1255,-2.1163,-2.0934,-2.0827,-2.0653,-2.7232,-2.7232,-2.711,-2.6648,-2.5966,-2.5852,-2.538,-2.4807,-2.5348,-2.5306,-2.4924,-2.4839,-2.4924,-2.4743,-2.4796,-2.5253,-2.5852,-2.5115,-2.5633,-2.6899,-2.6276,-2.6318,-2.7003,-2.7051,-2.6976,-2.6857,-2.7074,-2.7161,-2.7026,-2.729,-2.7174,-2.676,-2.673,-2.6599,-2.6216,-2.6144,-2.6038,-2.5902,-2.5986,-2.6027,-2.6038,-2.6038,-2.6038,-2.6038,-2.608,-2.6027,-2.6185,-2.5986,-2.5966,-2.5913,-2.5768,-2.5673,-2.56,-2.4829,-2.438,-2.4305,-2.358,-2.3101,-2.311,-2.3101,-2.313,-2.3047,-2.3096,-2.3096,-2.3052,-2.3033,-2.2969,-2.2832,-2.2779,-2.2847,-2.3013,-2.3003,-2.3013,-2.296,-2.3013,-2.2969,-2.2882,-2.2969,-2.3013,-2.2847,-2.3013,-2.3101,-2.3101,-2.3101,-2.3013,-2.2882,-2.2662,-2.2485,-2.2485,-2.2353,-2.223,-2.2185,-2.2052,-2.2052,-2.2008,-2.183,-2.1741,-2.1687,-2.1687,-2.1687,-2.1687,-2.1687,-2.1687,-2.1687,-2.1687,-2.1687,-2.1687,-2.1687,-2.1678,-2.1586,-2.1559,-2.1586,-2.1568,-2.1504,-2.1266,-2.6318,-2.6276,-2.5757,-2.5519,-2.5486,-2.5761,-2.5658,-2.5371,-2.5713,-2.5658,-2.5371,-2.5326,-2.5047,-2.4528,-2.4776,-2.5107,-2.541,-2.5344,-2.5713,-2.6346,-2.5998,-2.6042,-2.6346,-2.639,-2.6346,-2.6346,-2.6854,-2.7101,-2.7143,-2.7643,-2.7854,-2.7674,-2.7431,-2.7175,-2.6961,-2.6703,-2.6325,-2.5802,-2.5802,-2.5539,-2.5091,-2.552,-2.5777,-2.581,-2.6061,-2.6202,-2.6246,-2.6421,-2.6584,-2.653,-2.6064,-2.5802,-2.5769,-2.4941,-2.4461,-2.4416,-2.4067,-2.3842,-2.3851,-2.3851,-2.3851,-2.3887,-2.3851,-2.3851,-2.3842,-2.3851,-2.3851,-2.3703,-2.326,-2.3013,-2.311,-2.3101,-2.3101,-2.3101,-2.3101,-2.3057,-2.3013,-2.3057,-2.3057,-2.2969,-2.3057,-2.311,-2.3101,-2.3101,-2.3057,-2.2969,-2.2872,-2.2794,-2.2784,-2.275,-2.2706,-2.2662,-2.2485,-2.2185,-2.1963,-2.1785,-2.1696,-2.1687,-2.1687,-2.1687,-2.1687,-2.1687,-2.1687,-2.1687,-2.1687,-2.1687,-2.1687,-2.1687,-2.1687,-2.1687,-2.1687,-2.1687,-2.1687,-2.1687,-2.1504,-2.584,-2.5712,-2.5162,-2.5099,-2.543,-2.574,-2.593,-2.593,-2.593,-2.593,-2.593,-2.593,-2.5523,-2.4972,-2.5264,-2.5409,-2.5451,-2.573,-2.593,-2.593,-2.593,-2.593,-2.593,-2.593,-2.593,-2.601,-2.6506,-2.6829,-2.6928,-2.7437,-2.7776,-2.7645,-2.7349,-2.7172,-2.7029,-2.674,-2.6249,-2.5583,-2.5538,-2.5138,-2.4591,-2.506,-2.5401,-2.5433,-2.5729,-2.592,-2.592,-2.6193,-2.6362,-2.6307,-2.5754,-2.5401,-2.5401,-2.4772,-2.4424,-2.4424,-2.4424,-2.4424,-2.4424,-2.4424,-2.4424,-2.4424,-2.4424,-2.4424,-2.4424,-2.4424,-2.4424,-2.4309,-2.3803,-2.3471,-2.3486,-2.3442,-2.3442,-2.3486,-2.3486,-2.3442,-2.3461,-2.3442,-2.3481,-2.3442,-2.352,-2.3383,-2.3305,-2.3286,-2.3276,-2.313,-2.3013,-2.3013,-2.3013,-2.2925,-2.2872,-2.2882,-2.2574,-2.2264,-2.1909,-2.1785,-2.1741,-2.1687,-2.1687,-2.1687,-2.1687,-2.1687,-2.1687,-2.1687,-2.1687,-2.1687,-2.1687,-2.1687,-2.1687,-2.1687,-2.1687,-2.1687,-2.1687,-2.1687,-2.1687,-2.5913,-2.5882,-2.5858,-2.5823,-2.5865,-2.5906,-2.5916,-2.6024,-2.5982,-2.5962,-2.6003,-2.5947,-2.5875,-2.5834,-2.5885,-2.591,-2.5854,-2.5916,-2.6013,-2.5968,-2.5947,-2.5951,-2.593,-2.593,-2.5906,-2.5999,-2.6146,-2.616,-2.6128,-2.6087,-2.5885,-2.5811,-2.5898,-2.5675,-2.5559,-2.5544,-2.5199,-2.5029,-2.4983,-2.475,-2.4499,-2.4487,-2.4585,-2.4631,-2.4559,-2.4661,-2.4615,-2.4552,-2.4572,-2.4572,-2.4611,-2.4536,-2.4489,-2.4453,-2.4482,-2.4463,-2.4453,-2.4453,-2.4473,-2.4502,-2.4492,-2.4463,-2.4531,-2.4463,-2.4551,-2.4551,-2.4551,-2.4453,-2.4397,-2.4365,-2.4355,-2.4248,-2.4248,-2.4268,-2.4307,-2.4297,-2.4316,-2.4228,-2.4346,-2.4307,-2.4248,-2.4092,-2.3799,-2.376,-2.3594,-2.3261,-2.2984,-2.2924,-2.2982,-2.2748,-2.2669,-2.2634,-2.2492,-2.2204,-2.2328,-2.1963,-2.1741,-2.1687,-2.1687,-2.1687,-2.1687,-2.1687,-2.1687,-2.1687,-2.1687,-2.1687,-2.1687,-2.1687,-2.1687,-2.1687,-2.1687,-2.1687,-2.1687,-2.1687,-2.1687,-2.593,-2.5916,-2.6196,-2.6366,-2.6397,-2.6687,-2.6812,-2.6812,-2.6801,-2.6812,-2.6801,-2.6812,-2.6812,-2.6801,-2.6812,-2.6646,-2.6361,-2.6667,-2.6812,-2.6812,-2.6812,-2.6812,-2.6812,-2.6812,-2.6812,-2.6812,-2.6801,-2.6812,-2.6812,-2.6812,-2.6765,-2.6635,-2.6515,-2.6374,-2.6222,-2.5966,-2.5729,-2.5625,-2.5444,-2.5311,-2.5244,-2.5216,-2.5216,-2.5244,-2.498,-2.4834,-2.4844,-2.5098,-2.5216,-2.5206,-2.5216,-2.5216,-2.5206,-2.5216,-2.5216,-2.5216,-2.5216,-2.5216,-2.5254,-2.5206,-2.5216,-2.5216,-2.5216,-2.5187,-2.5254,-2.5264,-2.5264,-2.5206,-2.5216,-2.5216,-2.5089,-2.4766,-2.4424,-2.4424,-2.4424,-2.4453,-2.4424,-2.4424,-2.4424,-2.4424,-2.4414,-2.4336,-2.4258,-2.4189,-2.4131,-2.3949,-2.3864,-2.379,-2.3809,-2.3728,-2.3589,-2.3628,-2.3511,-2.3419,-2.3465,-2.2412,-2.1741,-2.1687,-2.1687,-2.1687,-2.1687,-2.1687,-2.1687,-2.1687,-2.1687,-2.1687,-2.1687,-2.1687,-2.1687,-2.1687,-2.1687,-2.1687,-2.1687,-2.1687,-2.1687,-2.6366,-2.6418,-2.6708,-2.6843,-2.6884,-2.7175,-2.732,-2.732,-2.732,-2.732,-2.732,-2.732,-2.732,-2.732,-2.732,-2.7154,-2.6884,-2.7164,-2.732,-2.732,-2.732,-2.732,-2.732,-2.732,-2.732,-2.7309,-2.732,-2.732,-2.732,-2.732,-2.732,-2.7251,-2.7129,-2.7034,-2.6986,-2.664,-2.6486,-2.6352,-2.6062,-2.5907,-2.583,-2.5742,-2.5684,-2.5645,-2.5439,-2.5283,-2.5283,-2.5528,-2.5684,-2.5684,-2.5684,-2.5684,-2.5684,-2.5684,-2.5684,-2.5684,-2.5674,-2.5684,-2.5684,-2.5684,-2.5674,-2.5684,-2.5674,-2.5684,-2.5684,-2.5684,-2.5684,-2.5684,-2.5684,-2.5684,-2.5586,-2.5195,-2.4844,-2.4797,-2.4844,-2.4787,-2.4844,-2.4806,-2.4816,-2.4893,-2.4902,-2.4814,-2.4658,-2.4639,-2.4551,-2.4453,-2.4368,-2.4275,-2.4275,-2.4193,-2.4156,-2.4146,-2.3867,-2.3708,-2.3578,-2.275,-2.2216,-2.217,-2.1815,-2.1769,-2.1778,-2.176,-2.1733,-2.1714,-2.1687,-2.1687,-2.1687,-2.1687,-2.1687,-2.1687,-2.1687,-2.1687,-2.1687,-2.1687,-2.1687,-2.7268,-2.7247,-2.7309,-2.7268,-2.7258,-2.7299,-2.732,-2.732,-2.732,-2.732,-2.732,-2.732,-2.732,-2.732,-2.732,-2.7289,-2.7258,-2.7289,-2.732,-2.732,-2.732,-2.732,-2.732,-2.732,-2.732,-2.732,-2.732,-2.732,-2.732,-2.732,-2.732,-2.7309,-2.732,-2.7272,-2.7309,-2.7167,-2.7071,-2.6794,-2.6506,-2.6255,-2.61,-2.582,-2.5684,-2.5684,-2.5645,-2.5635,-2.5654,-2.5674,-2.5684,-2.5684,-2.5684,-2.5684,-2.5684,-2.5684,-2.5684,-2.5684,-2.5684,-2.5684,-2.5684,-2.5684,-2.5684,-2.5684,-2.5684,-2.5684,-2.5684,-2.5684,-2.5684,-2.5684,-2.5684,-2.5684,-2.5684,-2.5596,-2.5547,-2.5654,-2.5528,-2.5528,-2.5577,-2.5635,-2.5654,-2.5586,-2.5538,-2.5518,-2.5205,-2.5116,-2.4951,-2.4594,-2.4347,-2.4217,-2.4209,-2.4097,-2.3842,-2.3795,-2.3871,-2.3928,-2.3542,-2.3074,-2.2927,-2.2695,-2.2199,-2.1943,-2.2016,-2.2025,-2.197,-2.1934,-2.1723,-2.1705,-2.1687,-2.1687,-2.1687,-2.1687,-2.1687,-2.1696,-2.1687,-2.1687,-2.1687,-2.732,-2.732,-2.732,-2.732,-2.732,-2.732,-2.732,-2.732,-2.732,-2.732,-2.732,-2.732,-2.732,-2.732,-2.732,-2.732,-2.732,-2.732,-2.732,-2.732,-2.732,-2.732,-2.732,-2.732,-2.732,-2.732,-2.732,-2.732,-2.732,-2.732,-2.732,-2.732,-2.732,-2.732,-2.7262,-2.6965,-2.6699,-2.6602,-2.6169,-2.5927,-2.582,-2.5732,-2.5684,-2.5684,-2.5684,-2.5684,-2.5684,-2.5684,-2.5684,-2.5684,-2.5684,-2.5684,-2.5684,-2.5684,-2.5684,-2.5684,-2.5684,-2.5684,-2.5684,-2.5684,-2.5684,-2.5684,-2.5684,-2.5684,-2.5684,-2.5684,-2.5684,-2.5684,-2.5684,-2.5684,-2.5684,-2.5684,-2.5684,-2.5684,-2.5684,-2.5684,-2.5684,-2.5684,-2.5684,-2.5684,-2.5684,-2.5615,-2.5518,-2.5508,-2.5324,-2.5063,-2.4919,-2.4775,-2.465,-2.4497,-2.4553,-2.4514,-2.4408,-2.4198,-2.396,-2.3686,-2.3482,-2.3214,-2.2741,-2.2291,-2.2318,-2.2327,-2.2263,-2.2153,-2.1925,-2.1815,-2.1778,-2.1787,-2.1851,-2.1751,-2.1742,-2.1733,-2.1696,-2.1687,-2.1687,-2.732,-2.732,-2.732,-2.732,-2.732,-2.732,-2.732,-2.732,-2.732,-2.732,-2.732,-2.732,-2.732,-2.732,-2.732,-2.732,-2.732,-2.732,-2.732,-2.732,-2.732,-2.732,-2.732,-2.732,-2.732,-2.732,-2.732,-2.732,-2.732,-2.732,-2.732,-2.732,-2.732,-2.7272,-2.7177,-2.6832,-2.6602,-2.6448,-2.6062,-2.583,-2.582,-2.5732,-2.5684,-2.5684,-2.5684,-2.5684,-2.5684,-2.5684,-2.5684,-2.5684,-2.5684,-2.5684,-2.5684,-2.5684,-2.5684,-2.5684,-2.5684,-2.5684,-2.5684,-2.5684,-2.5684,-2.5684,-2.5684,-2.5684,-2.5684,-2.5684,-2.5684,-2.5684,-2.5684,-2.5684,-2.5684,-2.5684,-2.5684,-2.5684,-2.5684,-2.5684,-2.5684,-2.5684,-2.5684,-2.5684,-2.5684,-2.5684,-2.5684,-2.5684,-2.5635,-2.5489,-2.5382,-2.5284,-2.5039,-2.4854,-2.4833,-2.4735,-2.4503,-2.4408,-2.4522,-2.4303,-2.4038,-2.3655,-2.3255,-2.2914,-2.2712,-2.2702,-2.2657,-2.2574,-2.24,-2.2382,-2.2346,-2.2291,-2.23,-2.2099,-2.1798,-2.1842,-2.1833,-2.1714,-2.1687,-2.732,-2.732,-2.732,-2.732,-2.732,-2.732,-2.732,-2.732,-2.732,-2.732,-2.732,-2.732,-2.732,-2.732,-2.732,-2.732,-2.732,-2.732,-2.732,-2.732,-2.732,-2.732,-2.732,-2.732,-2.732,-2.732,-2.732,-2.732,-2.732,-2.732,-2.732,-2.732,-2.7262,-2.7167,-2.6948,-2.6853,-2.664,-2.6448,-2.6149,-2.6004,-2.6014,-2.582,-2.5684,-2.5684,-2.5684,-2.5684,-2.5684,-2.5684,-2.5684,-2.5684,-2.5684,-2.5684,-2.5684,-2.5684,-2.5684,-2.5684,-2.5684,-2.5684,-2.5684,-2.5684,-2.5684,-2.5684,-2.5684,-2.5684,-2.5684,-2.5684,-2.5684,-2.5684,-2.5684,-2.5684,-2.5684,-2.5684,-2.5684,-2.5684,-2.5684,-2.5684,-2.5684,-2.5684,-2.5684,-2.5684,-2.5684,-2.5684,-2.5684,-2.5684,-2.5684,-2.5586,-2.5391,-2.5284,-2.5137,-2.4883,-2.4627,-2.4529,-2.4538,-2.444,-2.4529,-2.4353,-2.4107,-2.3956,-2.3678,-2.3446,-2.3103,-2.3105,-2.3041,-2.2959,-2.267,-2.2726,-2.2812,-2.2637,-2.2342,-2.1994,-2.1869,-2.1989,-2.1753,-2.1453,-2.1326,-2.732,-2.732,-2.732,-2.732,-2.732,-2.732,-2.732,-2.732,-2.732,-2.732,-2.732,-2.732,-2.732,-2.732,-2.732,-2.732,-2.732,-2.732,-2.732,-2.732,-2.732,-2.732,-2.732,-2.732,-2.732,-2.732,-2.732,-2.732,-2.732,-2.732,-2.732,-2.7309,-2.7129,-2.6996,-2.69,-2.6496,-2.6304,-2.6207,-2.5965,-2.582,-2.582,-2.5732,-2.5684,-2.5684,-2.5684,-2.5684,-2.5684,-2.5684,-2.5684,-2.5684,-2.5684,-2.5684,-2.5684,-2.5684,-2.5684,-2.5684,-2.5684,-2.5684,-2.5684,-2.5684,-2.5684,-2.5684,-2.5684,-2.5684,-2.5684,-2.5684,-2.5684,-2.5684,-2.5684,-2.5684,-2.5684,-2.5684,-2.5684,-2.5684,-2.5684,-2.5684,-2.5684,-2.5684,-2.5684,-2.5684,-2.5684,-2.5684,-2.5684,-2.5684,-2.5635,-2.5489,-2.5391,-2.5294,-2.5137,-2.499,-2.4775,-2.4735,-2.4637,-2.4538,-2.443,-2.4291,-2.4165,-2.4146,-2.4005,-2.395,-2.3691,-2.3505,-2.3453,-2.3334,-2.2577,-2.2446,-2.2702,-2.2755,-2.2326,-2.1674,-2.1925,-2.1939,-2.1084,-2.0601,-2.0607,-2.732,-2.732,-2.732,-2.732,-2.732,-2.732,-2.732,-2.732,-2.732,-2.732,-2.732,-2.732,-2.732,-2.732,-2.732,-2.732,-2.732,-2.732,-2.732,-2.732,-2.732,-2.732,-2.732,-2.732,-2.732,-2.732,-2.732,-2.732,-2.732,-2.732,-2.7262,-2.7129,-2.6996,-2.6794,-2.6544,-2.6304,-2.6052,-2.5917,-2.5781,-2.5684,-2.5684,-2.5684,-2.5684,-2.5684,-2.5684,-2.5684,-2.5684,-2.5684,-2.5684,-2.5684,-2.5684,-2.5684,-2.5684,-2.5684,-2.5684,-2.5684,-2.5684,-2.5684,-2.5684,-2.5684,-2.5684,-2.5684,-2.5684,-2.5684,-2.5684,-2.5684,-2.5684,-2.5684,-2.5684,-2.5684,-2.5684,-2.5684,-2.5684,-2.5684,-2.5684,-2.5684,-2.5684,-2.5684,-2.5684,-2.5684,-2.5684,-2.5684,-2.5684,-2.5684,-2.5635,-2.5538,-2.5538,-2.544,-2.5333,-2.5177,-2.503,-2.4932,-2.4735,-2.4529,-2.444,-2.4291,-2.4044,-2.4044,-2.3637,-2.3696,-2.3615,-2.3413,-2.3153,-2.2863,-2.2402,-2.2094,-2.2228,-2.2136,-2.1618,-2.1325,-2.1736,-2.1414,-2.0484,-2.0077,-2.0061,-2.732,-2.732,-2.732,-2.732,-2.732,-2.732,-2.732,-2.732,-2.732,-2.732,-2.732,-2.732,-2.732,-2.732,-2.732,-2.732,-2.732,-2.732,-2.732,-2.732,-2.732,-2.732,-2.732,-2.732,-2.732,-2.732,-2.732,-2.732,-2.7272,-2.7272,-2.7129,-2.6948,-2.6853,-2.6554,-2.6245,-2.61,-2.5917,-2.5781,-2.5732,-2.5684,-2.5684,-2.5684,-2.5684,-2.5684,-2.5684,-2.5684,-2.5684,-2.5684,-2.5684,-2.5684,-2.5684,-2.5684,-2.5684,-2.5684,-2.5684,-2.5684,-2.5684,-2.5684,-2.5684,-2.5684,-2.5684,-2.5684,-2.5684,-2.5684,-2.5684,-2.5684,-2.5684,-2.5684,-2.5684,-2.5684,-2.5684,-2.5684,-2.5684,-2.5684,-2.5684,-2.5684,-2.5684,-2.5684,-2.5684,-2.5684,-2.5684,-2.5684,-2.5684,-2.5684,-2.5684,-2.5635,-2.5635,-2.5586,-2.544,-2.5333,-2.5235,-2.5186,-2.4883,-2.4529,-2.444,-2.4291,-2.4044,-2.3795,-2.3138,-2.2937,-2.2878,-2.2709,-2.2433,-2.2105,-2.1728,-2.147,-2.1293,-2.1075,-2.0716,-2.0652,-2.0874,-2.0291,-1.9654,-1.9656,-1.9687,-2.732,-2.732,-2.732,-2.732,-2.732,-2.732,-2.732,-2.732,-2.732,-2.732,-2.732,-2.732,-2.732,-2.732,-2.732,-2.732,-2.732,-2.7309,-2.732,-2.732,-2.732,-2.7309,-2.7309,-2.7309,-2.732,-2.732,-2.732,-2.7309,-2.7262,-2.7081,-2.6948,-2.6853,-2.6496,-2.6245,-2.61,-2.5917,-2.5781,-2.5684,-2.5684,-2.5684,-2.5684,-2.5684,-2.5684,-2.5684,-2.5684,-2.5684,-2.5684,-2.5684,-2.5684,-2.5684,-2.5684,-2.5684,-2.5684,-2.5684,-2.5684,-2.5684,-2.5684,-2.5684,-2.5684,-2.5684,-2.5684,-2.5684,-2.5684,-2.5684,-2.5684,-2.5684,-2.5684,-2.5684,-2.5684,-2.5684,-2.5684,-2.5684,-2.5684,-2.5684,-2.5684,-2.5684,-2.5684,-2.5684,-2.5684,-2.5684,-2.5684,-2.5684,-2.5684,-2.5684,-2.5684,-2.5684,-2.5684,-2.5684,-2.5586,-2.544,-2.5284,-2.5186,-2.4883,-2.4489,-2.4341,-2.4093,-2.3587,-2.3079,-2.2417,-2.181,-2.1751,-2.1497,-2.1089,-2.1038,-2.1108,-2.0783,-2.0218,-2.0467,-2.0248,-2.013,-1.9859,-1.9381,-1.9029,-1.9125,-1.9088,-2.732,-2.732,-2.732,-2.732,-2.732,-2.732,-2.732,-2.732,-2.732,-2.732,-2.732,-2.732,-2.732,-2.732,-2.732,-2.732,-2.7272,-2.7167,-2.7129,-2.7129,-2.7129,-2.7081,-2.7167,-2.7262,-2.732,-2.732,-2.732,-2.7262,-2.7081,-2.6938,-2.6794,-2.6544,-2.6245,-2.6052,-2.5907,-2.5781,-2.5732,-2.5684,-2.5684,-2.5684,-2.5684,-2.5684,-2.5684,-2.5684,-2.5684,-2.5684,-2.5684,-2.5684,-2.5684,-2.5684,-2.5684,-2.5684,-2.5684,-2.5684,-2.5684,-2.5684,-2.5684,-2.5684,-2.5684,-2.5684,-2.5684,-2.5684,-2.5684,-2.5684,-2.5684,-2.5684,-2.5684,-2.5684,-2.5684,-2.5684,-2.5684,-2.5684,-2.5684,-2.5684,-2.5684,-2.5684,-2.5684,-2.5684,-2.5684,-2.5684,-2.5684,-2.5684,-2.5684,-2.5684,-2.5684,-2.5635,-2.5489,-2.5489,-2.5382,-2.5235,-2.5137,-2.499,-2.4735,-2.4489,-2.4291,-2.3836,-2.3079,-2.2308,-2.1395,-2.0723,-2.0305,-1.9901,-1.9495,-1.9702,-1.9952,-1.9339,-1.8923,-1.9287,-1.9443,-1.8939,-1.8568,-1.8394,-1.8328,-1.8386,-1.8261,-2.7262,-2.732,-2.732,-2.732,-2.732,-2.732,-2.732,-2.732,-2.732,-2.732,-2.732,-2.732,-2.7262,-2.7262,-2.7262,-2.7309,-2.7167,-2.6986,-2.6842,-2.6948,-2.6938,-2.6938,-2.6986,-2.7129,-2.7167,-2.7214,-2.7214,-2.7071,-2.689,-2.6757,-2.6496,-2.6197,-2.6052,-2.5917,-2.5732,-2.5684,-2.5684,-2.5684,-2.5684,-2.5684,-2.5684,-2.5684,-2.5684,-2.5684,-2.5684,-2.5684,-2.5684,-2.5684,-2.5684,-2.5684,-2.5684,-2.5684,-2.5684,-2.5684,-2.5684,-2.5684,-2.5684,-2.5684,-2.5684,-2.5684,-2.5684,-2.5684,-2.5684,-2.5684,-2.5684,-2.5684,-2.5684,-2.5684,-2.5684,-2.5586,-2.5479,-2.5323,-2.5226,-2.5128,-2.5128,-2.5284,-2.543,-2.5479,-2.5382,-2.5684,-2.5684,-2.5684,-2.5635,-2.5586,-2.5586,-2.5538,-2.5294,-2.5088,-2.4981,-2.4726,-2.4372,-2.3818,-2.3311,-2.3111,-2.2961,-2.2861,-2.2156,-2.1387,-2.0364,-1.9797,-1.9124,-1.8767,-1.8565,-1.8558,-1.8558,-1.8146,-1.7996,-1.8258,-1.8153,-1.7641,-1.7687,-1.7898,-1.7845,-1.7641,-1.7582,-2.7071,-2.732,-2.732,-2.732,-2.732,-2.732,-2.732,-2.732,-2.732,-2.7309,-2.7309,-2.732,-2.7177,-2.7034,-2.7214,-2.7167,-2.6938,-2.6699,-2.6651,-2.6805,-2.6842,-2.6794,-2.6842,-2.689,-2.6832,-2.6747,-2.6794,-2.6794,-2.6544,-2.6342,-2.6245,-2.6052,-2.5868,-2.5732,-2.5732,-2.5684,-2.5684,-2.5684,-2.5684,-2.5684,-2.5684,-2.5684,-2.5684,-2.5684,-2.5684,-2.5684,-2.5684,-2.5684,-2.5684,-2.5684,-2.5684,-2.5684,-2.5684,-2.5684,-2.5684,-2.5684,-2.5684,-2.5684,-2.5684,-2.5684,-2.5684,-2.5684,-2.5684,-2.5684,-2.5684,-2.5684,-2.5625,-2.5538,-2.5479,-2.5323,-2.4452,-2.4353,-2.3899,-2.3443,-2.3343,-2.3552,-2.4146,-2.4402,-2.4609,-2.502,-2.5333,-2.5479,-2.5177,-2.4922,-2.4766,-2.452,-2.4273,-2.3917,-2.366,-2.3302,-2.2902,-2.2249,-2.154,-2.1387,-2.1285,-2.1285,-2.0928,-2.0254,-1.9435,-1.8975,-1.8408,-1.7943,-1.7793,-1.7996,-1.7996,-1.7845,-1.7687,-1.7589,-1.7589,-1.7589,-1.7589,-1.7589,-1.7589,-1.7589,-1.7589,-2.6996,-2.7071,-2.7214,-2.7214,-2.7129,-2.7262,-2.732,-2.732,-2.7309,-2.7214,-2.7129,-2.7081,-2.6938,-2.6794,-2.6784,-2.6794,-2.6651,-2.64,-2.64,-2.6496,-2.6496,-2.6496,-2.6554,-2.6592,-2.6496,-2.64,-2.64,-2.6448,-2.6294,-2.6197,-2.6062,-2.5878,-2.5732,-2.5684,-2.5684,-2.5684,-2.5684,-2.5684,-2.5684,-2.5684,-2.5684,-2.5684,-2.5684,-2.5684,-2.5684,-2.5684,-2.5684,-2.5684,-2.5684,-2.5684,-2.5684,-2.5684,-2.5684,-2.5684,-2.5684,-2.5684,-2.5684,-2.5684,-2.5684,-2.5684,-2.5684,-2.5684,-2.5684,-2.5684,-2.5684,-2.5684,-2.5421,-2.502,-2.4815,-2.4402,-2.3393,-2.3294,-2.2985,-2.2693,-2.2442,-2.2693,-2.3044,-2.3135,-2.3502,-2.4115,-2.4716,-2.4716,-2.4205,-2.3998,-2.38,-2.3543,-2.3203,-2.2793,-2.2341,-2.1979,-2.1633,-2.1124,-2.057,-2.0518,-2.0313,-2.0055,-1.9952,-1.928,-1.8708,-1.8251,-1.7996,-1.7687,-1.7589,-1.7687,-1.7641,-1.7589,-1.7589,-1.7589,-1.7589,-1.7589,-1.7589,-1.7589,-1.7589,-1.7589,-1.7589,-2.6747,-2.6842,-2.7071,-2.7023,-2.6948,-2.7119,-2.7225,-2.7214,-2.7214,-2.7081,-2.6853,-2.6805,-2.6651,-2.6448,-2.6352,-2.6352,-2.64,-2.6149,-2.6052,-2.6149,-2.6149,-2.61,-2.6149,-2.6245,-2.6294,-2.6062,-2.6052,-2.6004,-2.6014,-2.6004,-2.5868,-2.5781,-2.5684,-2.5684,-2.5684,-2.5684,-2.5684,-2.5684,-2.5684,-2.5684,-2.5684,-2.5684,-2.5684,-2.5684,-2.5684,-2.5684,-2.5684,-2.5684,-2.5684,-2.5684,-2.5684,-2.5684,-2.5684,-2.5684,-2.5684,-2.5684,-2.5684,-2.5684,-2.5684,-2.5684,-2.5586,-2.5274,-2.5586,-2.5586,-2.5323,-2.5118,-2.4873,-2.4048,-2.3741,-2.3343,-2.2391,-2.2181,-2.1979,-2.1735,-2.1684,-2.1887,-2.1988,-2.2038,-2.2038,-2.2802,-2.3809,-2.3701,-2.2994,-2.2844,-2.2643,-2.2383,-2.2038,-2.1481,-2.1073,-2.081,-2.0459,-2.0151,-1.9849,-1.9849,-1.9591,-1.9079,-1.8975,-1.8662,-1.8251,-1.7845,-1.774,-1.7641,-1.7589,-1.7589,-1.7589,-1.7589,-1.7589,-1.7589,-1.7589,-1.7589,-1.7589,-1.7589,-1.7589,-1.7589,-1.7589,-2.6342,-2.6554,-2.6592,-2.6688,-2.6853,-2.69,-2.6948,-2.6948,-2.6938,-2.6794,-2.6544,-2.6554,-2.64,-2.6159,-2.5927,-2.5975,-2.6014,-2.5917,-2.5868,-2.6004,-2.6052,-2.6052,-2.6052,-2.61,-2.6014,-2.583,-2.5771,-2.5732,-2.5781,-2.5781,-2.5781,-2.5684,-2.5684,-2.5684,-2.5684,-2.5684,-2.5684,-2.5684,-2.5684,-2.5684,-2.5684,-2.5684,-2.5684,-2.5577,-2.5577,-2.5479,-2.5323,-2.5274,-2.5333,-2.543,-2.5528,-2.5635,-2.5684,-2.5684,-2.5684,-2.5684,-2.5684,-2.5684,-2.5684,-2.543,-2.5177,-2.4756,-2.502,-2.502,-2.4609,-2.4245,-2.385,-2.2844,-2.2693,-2.219,-2.1336,-2.1089,-2.0637,-2.0233,-2.013,-2.0483,-2.0731,-2.0621,-2.0672,-2.0869,-2.1676,-2.1735,-2.1328,-2.1379,-2.143,-2.1183,-2.0826,-2.0261,-1.9797,-1.9539,-1.9332,-1.9027,-1.8923,-1.8871,-1.8923,-1.8408,-1.8251,-1.8048,-1.7838,-1.7589,-1.7589,-1.7589,-1.7589,-1.7589,-1.7589,-1.7589,-1.7589,-1.7589,-1.7589,-1.7589,-1.7589,-1.7589,-1.7589,-1.7589,-1.7589,-2.459,-2.5392,-2.5538,-2.5548,-2.5645,-2.6294,-2.6699,-2.6651,-2.6699,-2.6544,-2.6294,-2.6245,-2.61,-2.5868,-2.5742,-2.5781,-2.583,-2.5732,-2.5732,-2.5868,-2.5868,-2.5878,-2.5868,-2.5868,-2.5781,-2.5732,-2.5684,-2.5732,-2.5684,-2.5684,-2.5684,-2.5684,-2.5684,-2.5684,-2.5684,-2.5684,-2.5684,-2.5684,-2.5684,-2.5684,-2.5684,-2.5635,-2.5382,-2.4805,-2.4815,-2.451,-2.4106,-2.3908,-2.3908,-2.3908,-2.3899,-2.3899,-2.385,-2.3859,-2.3859,-2.3859,-2.385,-2.4412,-2.5333,-2.4569,-2.4097,-2.3989,-2.3998,-2.3552,-2.3285,-2.3135,-2.2735,-2.1684,-2.1582,-2.1081,-2.0285,-2.0034,-1.9783,-1.9428,-1.9123,-1.9272,-1.9569,-1.9153,-1.9094,-1.9287,-1.9487,-1.9642,-1.9849,-1.9996,-1.9893,-1.9487,-1.9287,-1.8923,-1.8617,-1.8408,-1.8153,-1.795,-1.7898,-1.7898,-1.7996,-1.7845,-1.7898,-1.7793,-1.7793,-1.7589,-1.7589,-1.7589,-1.7589,-1.7589,-1.7589,-1.7589,-1.7589,-1.7589,-1.7589,-1.7589,-1.7589,-1.7589,-1.7589,-1.7589,-1.7589,-2.2685,-2.3642,-2.4088,-2.4187,-2.4187,-2.5187,-2.5752,-2.5945,-2.5645,-2.5548,-2.5548,-2.5294,-2.5255,-2.5577,-2.543,-2.5372,-2.5684,-2.5684,-2.5684,-2.5684,-2.5684,-2.5732,-2.5732,-2.5732,-2.5732,-2.5684,-2.5684,-2.5684,-2.5684,-2.5684,-2.5684,-2.5684,-2.5684,-2.5684,-2.5684,-2.5684,-2.5684,-2.5684,-2.5323,-2.5216,-2.5167,-2.4922,-2.4412,-2.3949,-2.3633,-2.3335,-2.2643,-2.2593,-2.2643,-2.2643,-2.2685,-2.2793,-2.2743,-2.2844,-2.2793,-2.2743,-2.2584,-2.3003,-2.3759,-2.3601,-2.2985,-2.2835,-2.2735,-2.219,-2.2139,-2.2089,-2.1684,-2.0577,-2.0483,-2.0027,-1.948,-1.9227,-1.9168,-1.9063,-1.8855,-1.881,-1.8757,-1.8541,-1.8377,-1.8527,-1.8572,-1.8153,-1.8356,-1.861,-1.8401,-1.7845,-1.7641,-1.7589,-1.7641,-1.7635,-1.7635,-1.7589,-1.7589,-1.7589,-1.7589,-1.7589,-1.7589,-1.7589,-1.7589,-1.7589,-1.7589,-1.7589,-1.7589,-1.7589,-1.7589,-1.7589,-1.7589,-1.7589,-1.7589,-1.7589,-1.7589,-1.7589,-1.7589,-1.7589,-1.7589,-2.1038,-2.1234,-2.224,-2.2793,-2.2994,-2.3085,-2.3791,-2.4541,-2.3633,-2.3741,-2.4137,-2.3443,-2.4057,-2.4922,-2.4658,-2.4658,-2.5586,-2.5684,-2.543,-2.543,-2.5684,-2.544,-2.5382,-2.5382,-2.5479,-2.5538,-2.5284,-2.5274,-2.5528,-2.5128,-2.543,-2.5684,-2.5577,-2.5635,-2.5479,-2.5226,-2.5177,-2.502,-2.4559,-2.4196,-2.3939,-2.3543,-2.2844,-2.2693,-2.2593,-2.2542,-2.2442,-2.219,-2.2089,-2.2089,-2.2038,-2.2038,-2.1887,-2.1937,-2.1937,-2.1836,-2.1336,-2.1692,-2.2198,-2.2341,-2.1988,-2.1438,-2.1089,-2.0987,-2.0936,-2.0987,-2.0483,-1.968,-1.9569,-1.9376,-1.9018,-1.8921,-1.8803,-1.8698,-1.8593,-1.8489,-1.8384,-1.8174,-1.8062,-1.7964,-1.7799,-1.7641,-1.7641,-1.8048,-1.8146,-1.7687,-1.7589,-1.7589,-1.7589,-1.7641,-1.7641,-1.7589,-1.7589,-1.7589,-1.7589,-1.7589,-1.7589,-1.7589,-1.7589,-1.7589,-1.7589,-1.7589,-1.7589,-1.7589,-1.7589,-1.7589,-1.7589,-1.7589,-1.7589,-1.7589,-1.7589,-1.7589,-1.7589,-1.7589,-1.7589,-1.9931,-1.9975,-2.0388,-2.0987,-2.1743,-2.2391,-2.2894,-2.3194,-2.2844,-2.2785,-2.3085,-2.2735,-2.2944,-2.3443,-2.3443,-2.3294,-2.371,-2.3759,-2.3809,-2.3759,-2.3759,-2.4106,-2.4264,-2.4254,-2.3998,-2.4412,-2.4156,-2.371,-2.3651,-2.3958,-2.375,-2.3958,-2.4922,-2.5069,-2.4864,-2.4214,-2.3908,-2.375,-2.3393,-2.3135,-2.3035,-2.2793,-2.219,-2.154,-2.1489,-2.1089,-2.0637,-2.0534,-2.0534,-2.0585,-2.0637,-2.0739,-2.079,-2.0739,-2.0731,-2.0731,-2.0233,-2.0336,-2.0534,-2.0637,-2.0285,-2.013,-1.9931,-1.9879,-1.9835,-1.9732,-1.9413,-1.8959,-1.8795,-1.875,-1.8639,-1.8586,-1.8534,-1.8377,-1.8272,-1.822,-1.8062,-1.7905,-1.7799,-1.7799,-1.7747,-1.7641,-1.7589,-1.7641,-1.7687,-1.7589,-1.7589,-1.7589,-1.7589,-1.7589,-1.7589,-1.7589,-1.7589,-1.7589,-1.7589,-1.7589,-1.7589,-1.7589,-1.7589,-1.7589,-1.7589,-1.7589,-1.7589,-1.7589,-1.7589,-1.7589,-1.7589,-1.7589,-1.7589,-1.7589,-1.7589,-1.7589,-1.7589,-1.7589,-1.7589,-1.9272,-1.9272,-1.9272,-1.9724,-2.0483,-2.1234,-2.1743,-2.1937,-2.1641,-2.1785,-2.1988,-2.1735,-2.1988,-2.2232,-2.2131,-2.2341,-2.2593,-2.2693,-2.2593,-2.2643,-2.2793,-2.2994,-2.3144,-2.3144,-2.3094,-2.3335,-2.3035,-2.2593,-2.2743,-2.2542,-2.2693,-2.3144,-2.3809,-2.3949,-2.3692,-2.2944,-2.2492,-2.2484,-2.2139,-2.2038,-2.2038,-2.1591,-2.1242,-2.0483,-2.0431,-2.0181,-1.9732,-1.9628,-1.9524,-1.9524,-1.948,-1.9376,-1.9324,-1.9272,-1.9272,-1.9272,-1.9272,-1.9272,-1.9272,-1.9272,-1.9331,-1.9428,-1.9279,-1.9175,-1.8921,-1.8817,-1.8743,-1.8534,-1.8422,-1.837,-1.8318,-1.8272,-1.822,-1.8062,-1.7957,-1.7905,-1.7852,-1.7747,-1.7694,-1.7641,-1.7589,-1.7589,-1.7589,-1.7589,-1.7589,-1.7589,-1.7589,-1.7589,-1.7589,-1.7589,-1.7589,-1.7589,-1.7589,-1.7589,-1.7589,-1.7589,-1.7589,-1.7589,-1.7589,-1.7589,-1.7589,-1.7589,-1.7589,-1.7589,-1.7589,-1.7589,-1.7589,-1.7589,-1.7589,-1.7589,-1.7589,-1.7589,-1.7589,-1.7589,-1.7589,-1.9272,-1.9272,-1.9272,-1.9324,-1.9428,-1.9376,-2.0027,-2.0783,-2.0027,-2.013,-2.0783,-2.0078,-2.0629,-2.1684,-2.1234,-2.1336,-2.1887,-2.2089,-2.2139,-2.1988,-2.1836,-2.2291,-2.2391,-2.2291,-2.2038,-2.2433,-2.2139,-2.1937,-2.219,-2.1937,-2.2089,-2.2089,-2.2291,-2.2593,-2.2484,-2.2484,-2.2433,-2.2291,-2.1336,-2.1038,-2.0783,-2.0181,-1.9783,-1.968,-1.9628,-1.948,-1.9376,-1.9272,-1.9272,-1.9272,-1.9272,-1.9272,-1.9272,-1.9272,-1.9272,-1.9272,-1.9272,-1.9272,-1.9272,-1.9272,-1.9227,-1.9168,-1.9018,-1.881,-1.8764,-1.86,-1.837,-1.8213,-1.8265,-1.822,-1.8122,-1.8016,-1.7852,-1.7799,-1.7694,-1.7694,-1.7641,-1.7635,-1.7641,-1.7589,-1.7589,-1.7589,-1.7589,-1.7589,-1.7589,-1.7589,-1.7589,-1.7589,-1.7589,-1.7589,-1.7589,-1.7589,-1.7589,-1.7589,-1.7589,-1.7589,-1.7589,-1.7589,-1.7589,-1.7589,-1.7589,-1.7589,-1.7589,-1.7589,-1.7589,-1.7589,-1.7589,-1.7589,-1.7589,-1.7589,-1.7589,-1.7589,-1.7589,-1.7589,-1.7589,-1.9272,-1.9272,-1.9272,-1.9272,-1.9272,-1.9272,-1.9524,-1.9732,-1.948,-1.9532,-1.9732,-1.9376,-1.9532,-2.0086,-2.0181,-2.013,-2.0388,-2.038,-2.038,-2.0431,-2.0526,-2.0877,-2.1081,-2.0987,-2.0834,-2.1081,-2.0885,-2.0534,-2.0285,-2.0577,-2.0483,-2.038,-2.0739,-2.079,-2.1038,-2.0885,-2.0328,-2.0336,-1.9983,-1.9835,-1.9776,-1.9472,-1.9272,-1.9272,-1.9272,-1.9272,-1.9272,-1.9272,-1.9272,-1.9272,-1.9272,-1.9272,-1.9272,-1.9272,-1.9272,-1.9272,-1.9272,-1.9227,-1.9123,-1.9026,-1.9026,-1.8914,-1.875,-1.8489,-1.8331,-1.8227,-1.8062,-1.795,-1.795,-1.7852,-1.774,-1.7747,-1.7694,-1.7694,-1.7641,-1.7641,-1.7641,-1.7641,-1.7589,-1.7589,-1.7589,-1.7589,-1.7589,-1.7589,-1.7589,-1.7589,-1.7589,-1.7589,-1.7589,-1.7589,-1.7589,-1.7589,-1.7589,-1.7589,-1.7589,-1.7589,-1.7589,-1.7589,-1.7589,-1.7589,-1.7589,-1.7589,-1.7589,-1.7589,-1.7589,-1.7589,-1.7589,-1.7589,-1.7589,-1.7589,-1.7589,-1.7589,-1.7589,-1.7589,-1.7589,-1.9272,-1.9272,-1.9272,-1.9272,-1.9272,-1.9272,-1.9272,-1.9272,-1.9272,-1.9272,-1.9324,-1.9324,-1.9324,-1.9324,-1.9272,-1.9272,-1.9272,-1.9324,-1.9324,-1.9272,-1.9324,-1.9828,-1.9931,-1.9776,-1.9931,-2.0027,-1.9776,-1.9376,-1.9524,-1.9376,-1.9428,-1.9472,-1.9272,-1.9835,-2.0034,-1.9732,-1.948,-1.9532,-1.9428,-1.9428,-1.9376,-1.9272,-1.9272,-1.9272,-1.9272,-1.9272,-1.9272,-1.9272,-1.9272,-1.9272,-1.9272,-1.9272,-1.9272,-1.9272,-1.9272,-1.9272,-1.9272,-1.9175,-1.8974,-1.8757,-1.8705,-1.8548,-1.8377,-1.8167,-1.8016,-1.7911,-1.7799,-1.7687,-1.7641,-1.7582,-1.7635,-1.7589,-1.7589,-1.7589,-1.7589,-1.7589,-1.7589,-1.7589,-1.7589,-1.7589,-1.7589,-1.7589,-1.7589,-1.7589,-1.7589,-1.7589,-1.7589,-1.7589,-1.7589,-1.7589,-1.7589,-1.7589,-1.7589,-1.7589,-1.7589,-1.7589,-1.7589,-1.7589,-1.7589,-1.7589,-1.7589,-1.7589,-1.7589,-1.7589,-1.7589,-1.7589,-1.7589,-1.7589,-1.7589,-1.7589,-1.7589,-1.7589,-1.7589,-1.7589,-1.7589,-1.9272,-1.9272,-1.9272,-1.9272,-1.9272,-1.9272,-1.9272,-1.9272,-1.9272,-1.9272,-1.9272,-1.9272,-1.9272,-1.9272,-1.9272,-1.9272,-1.9272,-1.9272,-1.9272,-1.9272,-1.9272,-1.9428,-1.9428,-1.9376,-1.9428,-1.9376,-1.9272,-1.9272,-1.9272,-1.9272,-1.9272,-1.9272,-1.9272,-1.9428,-1.9428,-1.9428,-1.9272,-1.9272,-1.9272,-1.9272,-1.9272,-1.9272,-1.9272,-1.9272,-1.9272,-1.9272,-1.9272,-1.9272,-1.9272,-1.9272,-1.9272,-1.9272,-1.9272,-1.9272,-1.9272,-1.9272,-1.9227,-1.9018,-1.8757,-1.8489,-1.8279,-1.8122,-1.8016,-1.7964,-1.7911,-1.7747,-1.7694,-1.7641,-1.7589,-1.7589,-1.7589,-1.7589,-1.7589,-1.7589,-1.7589,-1.7589,-1.7589,-1.7589,-1.7589,-1.7589,-1.7589,-1.7589,-1.7589,-1.7589,-1.7589,-1.7589,-1.7589,-1.7589,-1.7589,-1.7589,-1.7589,-1.7589,-1.7589,-1.7589,-1.7589,-1.7589,-1.7589,-1.7589,-1.7589,-1.7589,-1.7589,-1.7589,-1.7589,-1.7589,-1.7589,-1.7589,-1.7589,-1.7589,-1.7589,-1.7589,-1.7589,-1.7589,-1.7589,-1.7589,-1.7589,-1.9272,-1.9272,-1.9272,-1.9272,-1.9272,-1.9272,-1.9272,-1.9272,-1.9272,-1.9272,-1.9272,-1.9272,-1.9272,-1.9272,-1.9272,-1.9272,-1.9272,-1.9272,-1.9272,-1.9272,-1.9272,-1.9272,-1.9272,-1.9272,-1.9272,-1.9272,-1.9272,-1.9272,-1.9272,-1.9272,-1.9272,-1.9272,-1.9272,-1.9272,-1.9272,-1.9272,-1.9272,-1.9272,-1.9272,-1.9272,-1.9272,-1.9272,-1.9272,-1.9272,-1.9272,-1.9272,-1.9272,-1.9272,-1.9272,-1.9272,-1.9272,-1.9272,-1.9272,-1.9272,-1.9272,-1.9018,-1.8803,-1.8534,-1.8286,-1.8174,-1.801,-1.7799,-1.7747,-1.7687,-1.7687,-1.7694,-1.7589,-1.7589,-1.7589,-1.7589,-1.7589,-1.7589,-1.7589,-1.7589,-1.7589,-1.7589,-1.7589,-1.7589,-1.7589,-1.7589,-1.7589,-1.7589,-1.7589,-1.7589,-1.7589,-1.7589,-1.7589,-1.7589,-1.7589,-1.7589,-1.7589,-1.7589,-1.7589,-1.7589,-1.7589,-1.7589,-1.7589,-1.7589,-1.7589,-1.7589,-1.7589,-1.7589,-1.7589,-1.7589,-1.7589,-1.7589,-1.7589,-1.7589,-1.7589,-1.7589,-1.7589,-1.7589,-1.7589,-1.7589,-1.7536,-1.9272,-1.9272,-1.9272,-1.9272,-1.9272,-1.9272,-1.9272,-1.9272,-1.9272,-1.9272,-1.9272,-1.9272,-1.9272,-1.9272,-1.9272,-1.9272,-1.9272,-1.9272,-1.9272,-1.9272,-1.9272,-1.9272,-1.9272,-1.9272,-1.9272,-1.9272,-1.9272,-1.9272,-1.9272,-1.9272,-1.9272,-1.9272,-1.9272,-1.9272,-1.9272,-1.9272,-1.9272,-1.9272,-1.9272,-1.9272,-1.9272,-1.9272,-1.9272,-1.9272,-1.9272,-1.9272,-1.9272,-1.9272,-1.9272,-1.9272,-1.9227,-1.9123,-1.9071,-1.9011,-1.89,-1.8646,-1.8593,-1.8325,-1.8122,-1.8069,-1.7859,-1.7694,-1.7589,-1.7635,-1.7635,-1.7641,-1.7589,-1.7589,-1.7589,-1.7589,-1.7589,-1.7589,-1.7589,-1.7589,-1.7589,-1.7589,-1.7589,-1.7589,-1.7589,-1.7589,-1.7589,-1.7589,-1.7589,-1.7589,-1.7589,-1.7589,-1.7589,-1.7589,-1.7589,-1.7589,-1.7589,-1.7589,-1.7589,-1.7589,-1.7589,-1.7589,-1.7589,-1.7589,-1.7589,-1.7589,-1.7589,-1.7589,-1.7589,-1.7589,-1.7589,-1.7589,-1.7589,-1.7589,-1.7589,-1.7589,-1.7589,-1.7589,-1.7589,-1.7589,-1.7483,-1.9272,-1.9272,-1.9272,-1.9272,-1.9272,-1.9272,-1.9272,-1.9272,-1.9272,-1.9272,-1.9272,-1.9272,-1.9272,-1.9272,-1.9272,-1.9272,-1.9272,-1.9272,-1.9272,-1.9272,-1.9272,-1.9272,-1.9272,-1.9272,-1.9272,-1.9272,-1.9272,-1.9272,-1.9272,-1.9272,-1.9272,-1.9272,-1.9272,-1.9272,-1.9272,-1.9272,-1.9272,-1.9272,-1.9272,-1.9272,-1.9272,-1.9272,-1.9272,-1.9272,-1.9272,-1.9272,-1.9272,-1.9272,-1.9272,-1.9175,-1.9018,-1.8869,-1.8757,-1.8593,-1.8429,-1.8318,-1.8272,-1.8115,-1.7964,-1.7911,-1.7806,-1.7694,-1.7589,-1.7589,-1.7589,-1.7589,-1.7589,-1.7589,-1.7589,-1.7589,-1.7589,-1.7589,-1.7589,-1.7589,-1.7589,-1.7589,-1.7589,-1.7589,-1.7589,-1.7589,-1.7589,-1.7589,-1.7589,-1.7589,-1.7589,-1.7589,-1.7589,-1.7589,-1.7589,-1.7589,-1.7589,-1.7589,-1.7589,-1.7589,-1.7589,-1.7589,-1.7589,-1.7589,-1.7589,-1.7589,-1.7589,-1.7589,-1.7589,-1.7589,-1.7589,-1.7589,-1.7589,-1.7589,-1.7589,-1.7582,-1.7589,-1.7536,-1.7483,-1.7265,-1.7265,-1.9272,-1.9272,-1.9272,-1.9272,-1.9272,-1.9272,-1.9272,-1.9272,-1.9272,-1.9272,-1.9272,-1.9272,-1.9272,-1.9272,-1.9272,-1.9272,-1.9272,-1.9272,-1.9272,-1.9272,-1.9272,-1.9272,-1.9272,-1.9272,-1.9272,-1.9272,-1.9272,-1.9272,-1.9272,-1.9272,-1.9272,-1.9272,-1.9272,-1.9272,-1.9272,-1.9272,-1.9272,-1.9272,-1.9272,-1.9272,-1.9272,-1.9272,-1.9272,-1.9272,-1.9272,-1.9272,-1.922,-1.9078,-1.9026,-1.8974,-1.8698,-1.8534,-1.8534,-1.822,-1.8122,-1.8069,-1.795,-1.7852,-1.7799,-1.7747,-1.7694,-1.7641,-1.7589,-1.7589,-1.7589,-1.7589,-1.7589,-1.7589,-1.7589,-1.7589,-1.7589,-1.7589,-1.7589,-1.7589,-1.7589,-1.7589,-1.7589,-1.7589,-1.7589,-1.7589,-1.7589,-1.7589,-1.7589,-1.7589,-1.7589,-1.7589,-1.7589,-1.7589,-1.7589,-1.7589,-1.7589,-1.7589,-1.7589,-1.7589,-1.7589,-1.7589,-1.7589,-1.7589,-1.7589,-1.7589,-1.7589,-1.7589,-1.7589,-1.7589,-1.7589,-1.7589,-1.7589,-1.7589,-1.7589,-1.7364,-1.71,-1.6889,-1.6458,-1.6133,-1.6405,-1.9272,-1.9272,-1.9272,-1.9272,-1.9272,-1.9272,-1.9272,-1.9272,-1.9272,-1.9272,-1.9272,-1.9272,-1.9272,-1.9272,-1.9272,-1.9272,-1.9272,-1.9272,-1.9272,-1.9272,-1.9272,-1.9272,-1.9272,-1.9272,-1.9272,-1.9272,-1.9272,-1.9272,-1.9272,-1.9272,-1.9272,-1.9272,-1.9272,-1.9272,-1.9272,-1.9272,-1.9272,-1.9272,-1.9272,-1.9272,-1.9272,-1.9272,-1.9272,-1.9272,-1.9272,-1.922,-1.9071,-1.8921,-1.881,-1.8653,-1.8384,-1.8167,-1.8055,-1.7905,-1.7852,-1.7799,-1.7694,-1.7589,-1.7589,-1.7589,-1.7589,-1.7589,-1.7589,-1.7589,-1.7589,-1.7589,-1.7589,-1.7589,-1.7589,-1.7589,-1.7589,-1.7589,-1.7589,-1.7589,-1.7589,-1.7589,-1.7589,-1.7589,-1.7589,-1.7589,-1.7589,-1.7589,-1.7589,-1.7589,-1.7589,-1.7589,-1.7589,-1.7589,-1.7589,-1.7589,-1.7589,-1.7589,-1.7589,-1.7589,-1.7589,-1.7589,-1.7589,-1.7589,-1.7589,-1.7589,-1.7589,-1.7589,-1.7589,-1.7589,-1.7589,-1.7589,-1.7589,-1.7424,-1.6882,-1.6446,-1.6234,-1.608,-1.5541,-1.4894,-1.4781,-1.9272,-1.9272,-1.9272,-1.9272,-1.9272,-1.9272,-1.9272,-1.9272,-1.9272,-1.9272,-1.9272,-1.9272,-1.9272,-1.9272,-1.9272,-1.9272,-1.9272,-1.9272,-1.9272,-1.9272,-1.9272,-1.9272,-1.9272,-1.9272,-1.9272,-1.9272,-1.9272,-1.9272,-1.9272,-1.9272,-1.9272,-1.9272,-1.9272,-1.9272,-1.9272,-1.9272,-1.9272,-1.9272,-1.9272,-1.9272,-1.9272,-1.9272,-1.9272,-1.9272,-1.9279,-1.913,-1.8974,-1.881,-1.8646,-1.8384,-1.8122,-1.7905,-1.7793,-1.7694,-1.7694,-1.7641,-1.7641,-1.7589,-1.7589,-1.7589,-1.7589,-1.7589,-1.7589,-1.7589,-1.7589,-1.7589,-1.7589,-1.7589,-1.7589,-1.7589,-1.7589,-1.7589,-1.7589,-1.7589,-1.7589,-1.7589,-1.7589,-1.7589,-1.7589,-1.7589,-1.7589,-1.7589,-1.7589,-1.7589,-1.7589,-1.7589,-1.7589,-1.7589,-1.7589,-1.7589,-1.7589,-1.7589,-1.7589,-1.7589,-1.7589,-1.7589,-1.7589,-1.7589,-1.7589,-1.7589,-1.7589,-1.7589,-1.7589,-1.7589,-1.7589,-1.7424,-1.7206,-1.7041,-1.6393,-1.5423,-1.5108,-1.4846,-1.4132,-1.3485,-1.2832,-1.9272,-1.9272,-1.9272,-1.9272,-1.9272,-1.9272,-1.9272,-1.9272,-1.9272,-1.9272,-1.9272,-1.9272,-1.9272,-1.9272,-1.9272,-1.9272,-1.9272,-1.9272,-1.9272,-1.9272,-1.9272,-1.9272,-1.9272,-1.9272,-1.9272,-1.9272,-1.9272,-1.9272,-1.9272,-1.9272,-1.9272,-1.9272,-1.9272,-1.9272,-1.9272,-1.9272,-1.9272,-1.9272,-1.9272,-1.9272,-1.9272,-1.9272,-1.9272,-1.9272,-1.9272,-1.913,-1.8921,-1.8646,-1.8384,-1.8069,-1.7852,-1.7694,-1.7635,-1.7589,-1.7589,-1.7589,-1.7589,-1.7589,-1.7589,-1.7589,-1.7589,-1.7589,-1.7589,-1.7589,-1.7589,-1.7589,-1.7589,-1.7589,-1.7589,-1.7589,-1.7589,-1.7589,-1.7589,-1.7589,-1.7589,-1.7589,-1.7589,-1.7589,-1.7589,-1.7589,-1.7589,-1.7589,-1.7589,-1.7589,-1.7589,-1.7589,-1.7589,-1.7589,-1.7312,-1.7424,-1.7477,-1.7312,-1.7206,-1.7589,-1.7589,-1.7589,-1.7589,-1.7589,-1.7477,-1.7265,-1.7265,-1.7589,-1.7529,-1.6935,-1.6988,-1.6935,-1.677,-1.6121,-1.5263,-1.4293,-1.3927,-1.3447,-1.2679,-1.2023,-1.1428]},{"header":{"parameterUnit":"m.s-1","parameterCategory":1,"la1":31.0,"la2":29.5877,"lo1":-88.7671,"lo2":-86.6584,"dy":0.0162,"dx":0.0185,"nx":115,"ny":88,"refTime":"2023-09-11T12:00:00:Z","depth":0,"parameterNumber":3,"parameterNumberName":"V-component_of_WINDS"},"data":[0.0,0.0,0.0,0.0,0.0,0.0,0.0,0.0,0.0,0.0,0.0,0.0,0.0,0.0,0.0,0.0,0.0,0.0,0.0,0.0,0.0,0.0,0.0,0.0,0.0,0.0,0.0,0.0,0.0,0.0,0.0,0.0,0.0,0.0,0.0,0.0,0.0,0.0,0.0,0.0,0.0,0.0,0.0,0.0,0.0,0.0,0.0,0.0,0.0,0.0,0.0,0.0,0.0,0.0,0.0,0.0,0.0,0.0,0.0,0.0,0.0,0.0,0.0,0.0,0.0,0.0,0.0,0.0,0.0,0.0,0.0,0.0,0.0,0.0,0.0,0.0,0.0,0.0,0.0,0.0,0.0,0.0,0.0,0.0,0.0,0.0,0.0,0.0,0.0,0.0,0.0,0.0,0.0,0.0,0.0,0.0,0.0,0.0,0.0,0.0,0.0,0.0,0.0,0.0,0.0,0.0,0.0,0.0,0.0,0.0,0.0,0.0,0.0,0.0,0.0,0.0,0.0,0.0,0.0,0.0,0.0,0.0,0.0,0.0,0.0,0.0,0.0,0.0,0.0,0.0,0.0,0.0,0.0,0.0,0.0,0.0,0.0,0.0,0.0,0.0,0.0,0.0,0.0,0.0,0.0,0.0,0.0,0.0,0.0,0.0,0.0,0.0,0.0,0.0,0.0,0.0,0.0,0.0,0.0,0.0,0.0,0.0,0.0,0.0,0.0,0.0,0.0,0.0,0.0,0.0,0.0,0.0,0.0,0.0,0.0,0.0,0.0,0.0,0.0,0.0,0.0,0.0,0.0,0.0,0.0,0.0,0.0,0.0,0.0,0.0,0.0,0.0,0.0,0.0,0.0,0.0,0.0,0.0,0.0,0.0,0.0,0.0,0.0,0.0,0.0,0.0,0.0,0.0,0.0,0.0,0.0,0.0,0.0,0.0,0.0,0.0,0.0,0.0,0.0,0.0,0.0,0.0,0.0,0.0,0.0,0.0,0.0,0.0,0.0,0.0,0.0,0.0,0.0,0.0,0.0,0.0,0.0,0.0,0.0,0.0,0.0,0.0,0.0,0.0,0.0,0.0,0.0,0.0,0.0,0.0,0.0,0.0,0.0,0.0,0.0,0.0,0.0,0.0,0.0,0.0,0.0,0.0,0.0,0.0,0.0,0.0,0.0,0.0,0.0,0.0,0.0,0.0,0.0,0.0,0.0,0.0,0.0,0.0,0.0,0.0,0.0,0.0,0.0,0.0,0.0,0.0,0.0,0.0,0.0,0.0,0.0,0.0,0.0,0.0,0.0,0.0,0.0,0.0,0.0,0.0,0.0,0.0,0.0,0.0,0.0,0.0,0.0,0.0,0.0,0.0,0.0,0.0,0.0,0.0,0.0,0.0,0.0,0.0,0.0,0.0,0.0,0.0,0.0,0.0,0.0,0.0,0.0,0.0,0.0,0.0,0.0,0.0,0.0,0.0,0.0,0.0,0.0,0.0,0.0,0.0,0.0,0.0,0.0,0.0,0.0,0.0,0.0,0.0,0.0,0.0,0.0,0.0,0.0,0.0,0.0,0.0,0.0,0.0,0.0,0.0,0.0,0.0,0.0,0.0,0.0,0.0,0.0,0.0,0.0,0.0,0.0,0.0,0.0,0.0,0.0,0.0,0.0,0.0,0.0,0.0,0.0,0.0,0.0,0.0,0.0,0.0,0.0,0.0,0.0,0.0,0.0,0.0,0.0,0.0,0.0,0.0,0.0,0.0,0.0,0.0,0.0,0.0,0.0,0.0,0.0,0.0,0.0,0.0,0.0,0.0,0.0,0.0,0.0,0.0,0.0,0.0,0.0,0.0,0.0,0.0,0.0,0.0,0.0,0.0,0.0,0.0,0.0,0.0,0.0,0.0,0.0,0.0,0.0,0.0,0.0,0.0,0.0,0.0,0.0,0.0,0.0,0.0,0.0,0.0,0.0,0.0,0.0,0.0,0.0,0.0,0.0,0.0,0.0,0.0,0.0,0.0,0.0,0.0,0.0,0.0,0.0,0.0,0.0,0.0,0.0,0.0,0.0,0.0,0.0,0.0,0.0,0.0,0.0,0.0,0.0,0.0,0.0,0.0,0.0,0.0,0.0,0.0,0.0,0.0,0.0,0.0,0.0,0.0,0.0,0.0,0.0,0.0,0.0,0.0,0.0,0.0,0.0,0.0,0.0,0.0,0.0,0.0,0.0,0.0,0.0,0.0,0.0,0.0,0.0,0.0,0.0,0.0,0.0,0.0,0.0,0.0,0.0,0.0,0.0,0.0,0.0,0.0,0.0,0.0,0.0,0.0,0.0,0.0,0.0,0.0,0.0,0.0,0.0,0.0,0.0,0.0,0.0,0.0,0.0,0.0,0.0,0.0,0.0,0.0,0.0,0.0,0.0,0.0,0.0,0.0,0.0,0.0,0.0,0.0,0.0,0.0,0.0,0.0,0.0,0.0,0.0,0.0,0.0,0.0,0.0,0.0,0.0,0.0,0.0,0.0,0.0,0.0,0.0,0.0,0.0,0.0,0.0,0.0,0.0,0.0,0.0,0.0,0.0,0.0,0.0,0.0,0.0,0.0,0.0,0.0,0.0,0.0,0.0,0.0,0.0,0.0,0.0,0.0,0.0,0.0,0.0,0.0,0.0,0.0,0.0,0.0,0.0,0.0,0.0,0.0,0.0,0.0,0.0,0.0,0.0,0.0,0.0,0.0,0.0,0.0,0.0,0.0,0.0,0.0,0.0,0.0,0.0,0.0,0.0,0.0,0.0,0.0,0.0,0.0,0.0,0.0,0.0,0.0,0.0,0.0,0.0,0.0,0.0,0.0,0.0,0.0,0.0,0.0,0.0,0.0,0.0,0.0,0.0,0.0,0.0,0.0,0.0,0.0,0.0,0.0,0.0,0.0,0.0,0.0,0.0,0.0,0.0,0.0,0.0,0.0,0.0,0.0,0.0,0.0,0.0,0.0,0.0,0.0,0.0,0.0,0.0,0.0,0.0,0.0,0.0,0.0,0.0,0.0,0.0,0.0,0.0,0.0,0.0,0.0,0.0,0.0,0.0,0.0,0.0,0.0,0.0,0.0,0.0,0.0,0.0,0.0,0.0,0.0,0.0,0.0,0.0,0.0,0.0,0.0,0.0,0.0,0.0,0.0,0.0,0.0,0.0,0.0,0.0,0.0,0.0,0.0,0.0,0.0,0.0,0.0,0.0,0.0,0.0,0.0,0.0,0.0,0.0,0.0,0.0,0.0,0.0,0.0,0.0,0.0,0.0,0.0,0.0,0.0,0.0,0.0,0.0,0.0,0.0,0.0,0.0,0.0,0.0,0.0,0.0,0.0,0.0,0.0,0.0,0.0,0.0,0.0,0.0,0.0,0.0,0.0,0.0,0.0,0.0,0.0,0.0,0.0,0.0,0.0,0.0,0.0,0.0,0.0,0.0,0.0,0.0,0.0,0.0,0.0,0.0,0.0,0.0,0.0,0.0,0.0,0.0,0.0,0.0,0.0,0.0,0.0,0.0,0.0,0.0,0.0,0.0,0.0,0.0,0.0,0.0,0.0,0.0,0.0,0.0,0.0,0.0,0.0,0.0,0.0,0.0,0.0,0.0,0.0,0.0,0.0,0.0,0.0,0.0,0.0,0.0,0.0,0.0,0.0,0.0,0.0,0.0,0.0,0.0,0.0,0.0,0.0,0.0,0.0,0.0,0.0,0.0,0.0,0.0,0.0,0.0,0.0,0.0,0.0,0.0,0.0,0.0,0.0,0.0,0.0,0.0,0.0,0.0,0.0,0.0,0.0,0.0,0.0,0.0,0.0,0.0,0.0,0.0,0.0,0.0,0.0,0.0,0.0,0.0,0.0,0.0,0.0,0.0,0.0,0.0,0.0,0.0,0.0,0.0,0.0,0.0,0.0,0.0,0.0,0.0,0.0,0.0,0.0,0.0,0.0,0.0,0.0,0.0,0.0,0.0,0.0,0.0,0.0,0.0,0.0,0.0,0.0,0.0,0.0,0.0,0.0,0.0,0.0,0.0,0.0,0.0,0.0,0.0,0.0,0.0,0.0,0.0,0.0,0.0,0.0,0.0,0.0,0.0,0.0,0.0,0.0,0.0,0.0,0.0,0.0,0.0,0.0,0.0,0.0,0.0,0.0,0.0,0.0,0.0,0.0,0.0,0.0,0.0,0.0,0.0,0.0,0.0,0.0,0.0,0.0,0.0,0.0,0.0,0.0,0.0,0.0,0.0,0.0,1.1511,0.0,0.0,0.0,0.0,0.0,0.0,0.0,0.0,0.0,0.0,0.0,0.0,0.0,0.0,0.0,0.0,0.0,0.0,0.0,0.0,0.0,0.0,0.0,0.0,0.0,0.0,0.0,0.0,0.0,0.0,0.0,0.0,0.0,0.0,0.0,0.0,0.0,0.0,0.0,0.0,0.0,0.0,0.0,0.0,0.0,0.0,0.0,0.0,0.0,0.0,0.0,0.0,0.0,0.0,0.0,0.0,0.0,0.0,0.0,0.0,0.0,0.0,0.0,0.0,0.0,0.0,0.0,0.0,0.0,0.0,0.0,0.0,0.0,0.0,0.0,0.0,0.0,0.0,0.0,0.0,0.0,0.0,0.0,0.0,0.0,0.0,0.0,0.0,0.0,0.0,0.0,0.0,0.0,0.0,0.0,0.0,0.0,0.0,0.0,0.0,0.0,0.0,0.0,0.0,0.0,0.0,0.0,0.0,0.0,0.0,1.0871,1.1285,1.1273,1.1362,1.1586,0.0,0.0,0.0,0.0,0.0,0.0,0.0,0.0,0.0,0.0,0.0,0.0,0.0,0.0,0.0,0.0,0.0,0.0,0.0,0.0,0.0,0.0,0.0,0.0,0.0,0.0,0.0,0.0,0.0,0.0,0.0,0.0,0.0,0.0,0.0,0.0,0.0,0.0,0.0,0.0,0.0,0.0,0.0,0.0,0.0,0.0,0.0,0.0,0.0,0.0,0.0,0.0,0.0,0.0,0.0,0.0,0.0,0.0,0.0,0.0,0.0,0.0,0.0,0.0,0.0,0.0,0.0,0.0,0.0,0.0,0.0,0.0,0.0,0.0,0.0,0.0,0.0,0.0,0.0,0.0,0.0,0.0,0.0,0.0,0.0,0.0,0.0,0.0,0.0,0.0,0.0,0.0,0.0,0.0,0.0,0.0,0.0,0.0,0.0,0.0,0.0,0.0,0.0,0.0,0.0,0.0,0.0,0.0,0.0,0.0,0.0,0.0,1.1387,1.1452,1.1579,0.0,0.0,0.0,0.0,0.0,0.0,0.0,0.0,0.0,0.0,0.0,0.0,0.0,0.0,0.0,0.0,0.0,0.0,0.0,0.0,0.0,0.0,0.0,0.0,0.0,0.0,0.0,0.0,0.0,0.0,0.0,0.0,0.0,0.0,0.0,0.0,0.0,0.0,0.0,0.0,0.0,0.0,0.0,0.0,0.0,0.0,0.0,0.0,0.0,0.0,0.0,0.0,0.0,0.0,0.0,0.0,0.0,0.0,0.0,0.0,0.0,0.0,0.0,0.0,0.0,0.0,0.0,0.0,0.0,0.0,0.0,0.0,0.0,0.0,0.0,0.0,0.0,0.0,0.0,0.0,0.0,0.0,0.0,0.0,0.0,0.0,0.0,0.0,0.0,0.0,0.0,0.0,0.0,0.0,0.0,0.0,0.0,0.0,0.0,0.0,0.0,0.0,0.0,0.0,0.0,0.0,0.0,0.0,0.0,0.0,1.1423,1.1736,1.1637,0.0,1.159,0.0,0.0,0.0,0.0,0.0,0.0,0.0,0.0,0.0,0.0,0.0,0.0,0.0,0.0,0.0,0.0,0.0,0.0,0.0,0.0,0.0,0.0,0.0,0.0,0.0,0.0,0.0,0.0,0.0,0.0,0.0,0.0,0.0,0.0,0.0,0.0,0.0,0.0,0.0,0.0,0.0,0.0,0.0,0.0,0.0,0.0,0.0,0.0,0.0,0.0,0.0,0.0,0.0,0.0,0.0,0.0,0.0,0.0,0.0,0.0,0.0,0.0,0.0,0.0,0.0,0.0,0.0,0.0,0.0,0.0,0.0,0.0,0.0,0.0,0.0,0.0,0.0,0.0,0.0,0.0,0.0,0.0,0.0,0.0,0.0,0.0,0.0,0.0,0.0,0.0,0.0,0.0,0.0,0.0,0.0,0.0,0.0,0.0,0.0,0.0,0.0,0.0,0.0,0.0,0.0,0.0,0.0,0.0,0.0,0.0,1.167,1.1816,1.1736,1.1714,0.0,0.0,0.0,0.0,0.0,0.0,0.0,0.0,0.0,0.0,0.0,0.0,0.0,0.0,0.0,0.0,0.0,0.0,0.0,0.0,0.0,0.0,0.0,0.0,0.0,0.0,0.0,0.0,0.0,0.0,0.0,0.0,0.0,0.0,0.0,0.0,0.0,0.0,0.0,0.0,0.0,0.0,0.0,0.0,0.0,0.0,0.0,0.0,0.0,0.0,0.0,0.0,0.0,0.0,0.0,0.0,0.0,0.0,0.0,0.0,0.0,0.0,0.0,0.0,0.0,0.0,0.0,0.0,0.0,0.0,0.0,0.0,0.0,0.0,0.0,0.0,0.0,0.0,0.0,0.0,0.0,0.0,0.0,0.0,0.0,0.0,0.0,0.0,0.0,0.0,0.0,0.0,0.0,0.0,0.0,0.0,0.0,0.0,0.0,0.0,0.0,0.0,0.0,0.0,0.0,0.0,0.0,0.0,0.0,0.0,1.1676,1.187,1.1783,1.1768,1.1768,1.1768,0.0,0.0,0.0,0.0,0.0,0.0,0.0,0.0,0.0,0.0,0.0,0.0,0.0,0.0,0.0,0.0,0.0,0.0,0.0,0.0,0.0,0.0,0.0,0.0,0.0,0.0,0.0,0.0,0.0,0.0,0.0,0.0,0.0,0.0,0.0,0.0,0.0,0.0,0.0,0.0,0.0,0.0,0.0,0.0,0.0,0.0,0.0,0.0,0.0,0.0,0.0,0.0,0.0,0.0,0.0,0.0,0.0,0.0,0.0,0.0,0.0,0.0,0.0,0.0,0.0,0.0,0.0,0.0,0.0,0.0,0.0,0.0,0.0,0.0,0.0,0.0,0.0,0.0,0.0,0.0,0.0,0.0,0.0,0.0,0.0,0.0,0.0,0.0,0.0,0.0,0.0,0.0,0.0,0.0,0.0,0.0,0.0,0.0,0.0,0.0,0.0,0.0,0.0,0.0,0.0,0.0,0.0,0.0,1.1085,1.1858,1.2097,1.1748,1.1718,1.1703,0.0,0.0,0.0,0.0,0.0,0.0,0.0,0.0,0.0,0.0,0.0,0.0,0.0,0.0,0.0,0.0,0.0,0.0,0.0,0.0,0.0,0.0,0.0,0.0,0.0,0.0,0.0,0.0,0.0,0.0,0.0,0.0,0.0,0.0,0.0,0.0,0.0,0.0,0.0,0.0,0.0,0.0,0.0,0.0,0.0,0.0,0.0,0.0,0.0,0.0,0.0,0.0,0.0,0.0,0.0,0.0,0.0,0.0,0.0,0.0,0.0,0.0,0.0,0.0,0.0,0.0,0.0,0.0,0.0,0.0,0.0,0.0,0.0,0.0,0.0,0.0,0.0,0.0,0.0,0.0,0.0,0.0,0.0,0.0,0.0,0.0,0.0,0.0,0.0,0.0,0.0,0.0,0.0,0.0,0.0,0.0,0.0,0.0,0.0,0.0,0.0,0.0,0.0,0.0,0.0,0.0,0.0,0.0,0.0,1.2473,1.2994,1.2876,1.2132,1.2278,1.2111,0.0,0.0,0.0,0.0,0.0,0.0,0.0,0.0,0.0,0.0,0.0,0.0,0.0,0.0,0.0,0.0,0.0,0.0,0.0,0.0,0.0,0.0,0.0,0.0,0.0,0.0,0.0,0.0,0.0,0.0,0.0,0.0,0.0,0.0,0.0,0.0,0.0,0.0,0.0,0.0,0.0,0.0,0.0,0.0,0.0,0.0,0.0,0.0,0.0,0.0,0.0,0.0,0.0,0.0,0.0,0.0,0.0,0.0,0.0,0.0,0.0,0.0,0.0,0.0,0.0,0.0,0.0,0.0,0.0,0.0,0.0,0.0,0.0,0.0,0.0,0.0,0.0,0.0,0.0,0.0,0.0,0.0,0.0,0.0,0.0,0.0,0.0,0.0,0.0,0.0,0.0,0.0,0.0,0.0,0.0,0.0,0.0,0.0,0.0,0.0,0.0,0.0,0.0,0.0,0.0,0.0,0.0,0.0,0.0,1.3207,0.0,1.3159,1.2928,1.309,1.3065,0.0,0.0,0.0,0.0,0.0,0.0,0.0,0.0,0.0,0.0,0.0,0.0,0.0,0.0,0.0,0.0,0.0,0.0,0.0,0.0,0.0,0.0,0.0,0.0,0.0,0.0,0.0,0.0,0.0,0.0,0.0,0.0,0.0,0.0,0.0,0.0,0.0,0.0,0.0,0.0,0.0,0.0,0.0,0.0,0.0,0.0,0.0,0.0,0.0,0.0,0.0,0.0,0.0,0.0,0.0,0.0,0.0,0.0,0.0,0.0,0.0,0.0,0.0,0.0,0.0,0.0,0.0,0.0,0.0,0.0,0.0,0.0,0.0,0.0,0.0,0.0,0.0,0.0,0.0,0.0,0.0,0.0,0.0,0.0,0.0,0.0,0.0,0.0,0.0,0.0,0.0,0.0,0.0,0.0,0.0,0.0,0.0,0.0,0.0,0.0,0.0,0.0,0.0,0.0,0.0,0.0,0.0,0.0,1.2985,1.3116,1.2641,1.2977,1.4041,1.4113,1.4615,0.0,0.0,0.0,0.0,0.0,0.0,0.0,0.0,0.0,0.0,0.0,0.0,0.0,0.0,0.0,0.0,0.0,0.0,0.0,0.0,0.0,0.0,0.0,0.0,0.0,0.0,0.0,0.0,0.0,0.0,0.0,0.0,0.0,0.0,0.0,0.0,0.0,0.0,0.0,0.0,0.0,0.0,0.0,0.0,0.0,0.0,0.0,0.0,0.0,0.0,0.0,0.0,0.0,0.0,0.0,0.0,0.0,0.0,0.0,0.0,0.0,0.0,0.0,0.0,0.0,0.0,0.0,0.0,0.0,0.0,0.0,0.0,0.0,0.0,0.0,0.0,0.0,0.0,0.0,0.0,0.0,0.0,0.0,0.0,0.0,0.0,0.0,0.0,0.0,0.0,0.0,0.0,0.0,0.0,0.0,0.0,0.0,0.0,0.0,0.0,0.0,0.0,0.0,0.0,0.0,0.0,0.0,0.0,0.0,1.5085,1.4982,1.4816,1.4678,1.5151,1.5242,0.0,0.0,0.0,0.0,0.0,0.0,0.0,0.0,0.0,0.0,0.0,0.0,0.0,0.0,0.0,0.0,0.0,0.0,0.0,0.0,0.0,0.0,0.0,0.0,0.0,0.0,0.0,0.0,0.0,0.0,0.0,0.0,0.0,0.0,0.0,0.0,0.0,0.0,0.0,0.0,0.0,0.0,0.0,0.0,0.0,0.0,0.0,0.0,0.0,0.0,0.0,0.0,0.0,0.0,0.0,0.0,0.0,0.0,0.0,0.0,0.0,0.0,0.0,0.0,0.0,0.0,0.0,0.0,0.0,0.0,0.0,0.0,0.0,0.0,0.0,0.0,0.0,0.0,0.0,0.0,0.0,0.0,0.0,0.0,0.0,0.0,0.0,0.0,0.0,0.0,0.0,0.0,0.0,0.0,0.0,0.0,0.0,0.0,0.0,0.0,0.0,0.0,0.0,0.0,0.0,0.0,0.0,0.0,0.0,1.7503,1.7085,1.6858,1.683,1.6987,1.6881,1.6463,0.0,0.0,0.0,0.0,0.0,0.0,0.0,0.0,0.0,0.0,0.0,0.0,0.0,0.0,0.0,0.0,0.0,0.0,0.0,0.0,0.0,0.0,0.0,0.0,0.0,0.0,0.0,0.0,0.0,0.0,0.0,0.0,0.0,0.0,0.0,0.0,0.0,0.0,0.0,0.0,0.0,0.0,0.0,0.0,0.0,0.0,0.0,0.0,0.0,0.0,0.0,0.0,0.0,0.0,0.0,0.0,0.0,0.0,0.0,0.0,0.0,0.0,0.0,0.0,0.0,0.0,0.0,0.0,0.0,0.0,0.0,0.0,0.0,0.0,0.0,0.0,0.0,0.0,0.0,0.0,0.0,0.0,0.0,0.0,0.0,0.0,0.0,0.0,0.0,0.0,0.0,0.0,0.0,0.0,0.0,0.0,0.0,0.0,0.0,0.0,0.0,0.0,0.0,0.0,0.0,0.0,0.0,0.0,2.0192,1.9066,1.9051,2.0101,1.9358,1.9182,0.0,0.0,0.0,0.0,0.0,0.0,0.0,0.0,0.0,0.0,0.0,0.0,0.0,0.0,0.0,0.0,0.0,0.0,0.0,0.0,0.0,0.0,0.0,0.0,0.0,0.0,0.0,0.0,0.0,0.0,0.0,0.0,0.0,0.0,0.0,0.0,0.0,0.0,0.0,0.0,0.0,0.0,0.0,0.0,0.0,0.0,0.0,0.0,0.0,0.0,0.0,0.0,0.0,0.0,0.0,0.0,0.0,0.0,0.0,0.0,0.0,0.0,0.0,0.0,0.0,0.0,0.0,0.0,0.0,0.0,0.0,0.0,0.0,0.0,0.0,0.0,0.0,0.0,0.0,0.0,0.0,0.0,0.0,0.0,0.0,0.0,0.0,0.0,0.0,0.0,0.0,0.0,0.0,0.0,0.0,0.0,0.0,0.0,0.0,0.0,0.0,0.0,0.0,0.0,0.0,0.0,0.0,0.0,0.0,2.1225,2.2443,2.256,2.1538,2.0201,1.9588,0.0,0.0,0.0,0.0,0.0,0.0,0.0,0.0,0.0,0.0,0.0,0.0,0.0,0.0,0.0,0.0,0.0,0.0,0.0,0.0,0.0,0.0,0.0,0.0,0.0,0.0,0.0,0.0,0.0,0.0,0.0,0.0,0.0,0.0,0.0,0.0,0.0,0.0,0.0,0.0,0.0,0.0,0.0,0.0,0.0,0.0,0.0,0.0,0.0,0.0,0.0,0.0,0.0,0.0,0.0,0.0,0.0,0.0,0.0,0.0,0.0,0.0,0.0,0.0,0.0,0.0,0.0,0.0,0.0,0.0,0.0,0.0,0.0,0.0,0.0,0.0,0.0,0.0,0.0,0.0,0.0,0.0,0.0,0.0,0.0,0.0,0.0,0.0,0.0,0.0,0.0,0.0,0.0,0.0,0.0,0.0,0.0,0.0,0.0,0.0,0.0,0.0,0.0,0.0,0.0,0.0,0.0,0.0,2.0493,2.1831,2.4336,2.5135,2.4126,2.1679,2.0315,0.0,0.0,0.0,0.0,0.0,0.0,0.0,0.0,0.0,0.0,0.0,0.0,0.0,0.0,0.0,0.0,0.0,0.0,0.0,0.0,0.0,0.0,0.0,0.0,0.0,0.0,0.0,0.0,0.0,0.0,0.0,0.0,0.0,0.0,0.0,0.0,0.0,0.0,0.0,0.0,0.0,0.0,0.0,0.0,0.0,0.0,0.0,0.0,0.0,0.0,0.0,0.0,0.0,0.0,0.0,0.0,0.0,0.0,0.0,0.0,0.0,0.0,0.0,0.0,0.0,0.0,0.0,0.0,0.0,0.0,0.0,0.0,0.0,0.0,0.0,0.0,0.0,0.0,0.0,0.0,0.0,0.0,0.0,0.0,0.0,0.0,0.0,0.0,0.0,0.0,0.0,0.0,0.0,0.0,0.0,0.0,0.0,0.0,0.0,0.0,0.0,0.0,0.0,0.0,0.0,0.0,0.0,0.0,2.1282,2.2229,2.5247,2.6899,2.6901,2.3303,2.1088,0.0,0.0,0.0,0.0,0.0,0.0,0.0,0.0,0.0,0.0,0.0,0.0,0.0,0.0,0.0,0.0,0.0,0.0,0.0,0.0,0.0,0.0,0.0,0.0,0.0,0.0,0.0,0.0,0.0,0.0,0.0,0.0,0.0,0.0,0.0,0.0,0.0,0.0,0.0,0.0,0.0,0.0,0.0,0.0,0.0,0.0,0.0,0.0,0.0,0.0,0.0,0.0,0.0,0.0,0.0,0.0,0.0,0.0,0.0,0.0,0.0,0.0,0.0,0.0,0.0,0.0,0.0,0.0,0.0,0.0,0.0,0.0,0.0,0.0,0.0,0.0,0.0,0.0,0.0,0.0,0.0,0.0,0.0,0.0,0.0,0.0,0.0,0.0,0.0,0.0,0.0,0.0,0.0,0.0,0.0,0.0,0.0,0.0,0.0,0.0,0.0,0.0,0.0,0.0,0.0,0.0,0.0,0.0,2.1801,2.3622,2.5908,2.713,2.7141,2.3259,2.1184,0.0,0.0,0.0,0.0,0.0,0.0,0.0,0.0,0.0,0.0,0.0,0.0,0.0,0.0,0.0,0.0,0.0,0.0,0.0,0.0,0.0,0.0,0.0,0.0,0.0,0.0,0.0,0.0,0.0,0.0,0.0,0.0,0.0,0.0,0.0,0.0,0.0,0.0,0.0,0.0,0.0,0.0,0.0,0.0,0.0,0.0,0.0,0.0,2.1925,0.0,0.0,0.0,0.0,0.0,0.0,0.0,0.0,0.0,0.0,0.0,0.0,0.0,0.0,0.0,0.0,0.0,0.0,0.0,0.0,0.0,0.0,0.0,0.0,0.0,0.0,0.0,0.0,0.0,0.0,0.0,0.0,0.0,0.0,0.0,0.0,0.0,0.0,0.0,0.0,0.0,0.0,0.0,0.0,0.0,0.0,0.0,0.0,0.0,0.0,0.0,0.0,0.0,0.0,0.0,0.0,0.0,0.0,0.0,2.3061,2.5114,2.7052,2.808,2.7992,2.5129,2.3054,0.0,0.0,0.0,0.0,0.0,0.0,0.0,0.0,0.0,0.0,0.0,0.0,0.0,0.0,0.0,0.0,0.0,0.0,0.0,0.0,0.0,0.0,0.0,0.0,0.0,0.0,0.0,0.0,0.0,0.0,0.0,0.0,0.0,0.0,0.0,0.0,0.0,0.0,0.0,0.0,0.0,0.0,0.0,0.0,0.0,0.0,0.0,0.0,0.0,0.0,0.0,0.0,0.0,0.0,0.0,0.0,0.0,0.0,0.0,0.0,0.0,0.0,0.0,0.0,0.0,0.0,0.0,0.0,0.0,0.0,0.0,0.0,0.0,0.0,0.0,0.0,0.0,0.0,0.0,0.0,0.0,0.0,0.0,0.0,0.0,0.0,0.0,0.0,0.0,0.0,0.0,0.0,0.0,0.0,0.0,0.0,0.0,0.0,0.0,0.0,0.0,0.0,0.0,0.0,0.0,0.0,0.0,2.2746,2.4623,2.6747,2.8352,2.9195,2.9165,2.7432,2.5373,2.2986,0.0,0.0,0.0,0.0,0.0,0.0,0.0,0.0,0.0,0.0,0.0,0.0,0.0,0.0,0.0,0.0,0.0,0.0,0.0,0.0,0.0,0.0,0.0,0.0,0.0,0.0,0.0,0.0,0.0,0.0,0.0,0.0,0.0,0.0,0.0,0.0,0.0,0.0,2.21,2.1844,0.0,0.0,0.0,0.0,0.0,0.0,0.0,0.0,2.2012,0.0,0.0,0.0,0.0,0.0,0.0,0.0,0.0,0.0,0.0,0.0,0.0,0.0,0.0,0.0,0.0,0.0,0.0,0.0,0.0,0.0,0.0,0.0,0.0,0.0,0.0,0.0,0.0,0.0,0.0,0.0,0.0,0.0,0.0,0.0,0.0,0.0,0.0,0.0,0.0,0.0,0.0,0.0,0.0,0.0,0.0,0.0,0.0,0.0,0.0,0.0,0.0,0.0,0.0,0.0,0.0,2.3726,2.4142,2.5816,2.8794,2.9292,2.951,2.948,2.8147,2.6582,2.4789,0.0,0.0,0.0,0.0,0.0,0.0,0.0,0.0,0.0,0.0,0.0,0.0,0.0,0.0,0.0,0.0,0.0,0.0,0.0,0.0,0.0,0.0,0.0,0.0,0.0,0.0,0.0,0.0,0.0,0.0,0.0,0.0,0.0,0.0,0.0,0.0,0.0,0.0,0.0,2.2775,2.2376,0.0,0.0,0.0,0.0,0.0,0.0,0.0,0.0,2.5855,0.0,0.0,0.0,0.0,0.0,0.0,0.0,0.0,0.0,0.0,0.0,0.0,0.0,0.0,0.0,0.0,0.0,0.0,0.0,0.0,0.0,0.0,0.0,0.0,0.0,0.0,0.0,0.0,0.0,0.0,0.0,0.0,0.0,0.0,0.0,0.0,0.0,0.0,0.0,0.0,0.0,0.0,0.0,0.0,0.0,0.0,0.0,0.0,0.0,0.0,0.0,0.0,0.0,0.0,0.0,2.5386,2.6158,2.778,3.0365,3.0541,3.0597,3.0552,2.8966,2.7529,0.0,0.0,0.0,0.0,0.0,0.0,0.0,0.0,0.0,0.0,0.0,0.0,0.0,0.0,0.0,0.0,0.0,0.0,0.0,0.0,0.0,0.0,0.0,0.0,0.0,0.0,0.0,0.0,0.0,0.0,0.0,0.0,0.0,0.0,0.0,0.0,0.0,0.0,0.0,0.0,2.3792,2.3662,2.6016,0.0,0.0,0.0,0.0,0.0,0.0,2.5847,2.5754,0.0,0.0,0.0,0.0,0.0,0.0,0.0,0.0,0.0,0.0,0.0,0.0,0.0,0.0,0.0,0.0,0.0,0.0,0.0,0.0,0.0,0.0,0.0,0.0,0.0,0.0,0.0,0.0,0.0,0.0,0.0,0.0,0.0,0.0,0.0,0.0,0.0,0.0,0.0,0.0,0.0,0.0,0.0,0.0,0.0,0.0,0.0,0.0,0.0,0.0,0.0,0.0,0.0,0.0,0.0,2.6761,2.7914,2.9421,3.1319,3.1424,3.1424,3.1379,2.937,2.7865,0.0,0.0,0.0,0.0,0.0,0.0,0.0,0.0,0.0,0.0,0.0,0.0,0.0,0.0,0.0,0.0,0.0,0.0,0.0,0.0,0.0,0.0,0.0,0.0,0.0,0.0,0.0,0.0,0.0,0.0,0.0,0.0,0.0,0.0,0.0,0.0,0.0,0.0,0.0,0.0,0.0,2.4887,2.7373,2.5703,0.0,0.0,0.0,0.0,2.5804,2.5685,0.0,0.0,0.0,0.0,0.0,0.0,0.0,0.0,0.0,0.0,0.0,0.0,0.0,0.0,0.0,0.0,0.0,0.0,0.0,0.0,0.0,0.0,0.0,0.0,0.0,0.0,0.0,0.0,0.0,0.0,0.0,0.0,0.0,0.0,0.0,0.0,0.0,0.0,0.0,0.0,0.0,0.0,0.0,0.0,0.0,0.0,0.0,0.0,0.0,0.0,0.0,0.0,0.0,0.0,0.0,0.0,2.75,2.8533,2.9701,3.1058,3.1132,3.1132,3.1102,2.8524,2.6915,0.0,0.0,0.0,0.0,0.0,0.0,0.0,0.0,0.0,0.0,0.0,0.0,0.0,0.0,0.0,0.0,0.0,0.0,0.0,0.0,0.0,0.0,0.0,0.0,0.0,0.0,0.0,0.0,0.0,0.0,0.0,0.0,0.0,0.0,0.0,0.0,0.0,0.0,0.0,0.0,0.0,2.4914,2.7882,2.6344,2.482,0.0,0.0,2.7905,2.8034,2.931,0.0,0.0,0.0,0.0,0.0,0.0,0.0,0.0,0.0,0.0,0.0,0.0,0.0,0.0,0.0,0.0,0.0,0.0,0.0,0.0,0.0,0.0,0.0,0.0,0.0,0.0,0.0,0.0,0.0,0.0,0.0,0.0,0.0,0.0,0.0,0.0,0.0,0.0,0.0,0.0,0.0,0.0,0.0,0.0,0.0,0.0,0.0,0.0,0.0,0.0,0.0,0.0,0.0,0.0,0.0,2.6293,2.6896,2.8967,3.0411,3.1058,3.1087,3.1087,3.1073,2.7938,2.6313,0.0,0.0,0.0,0.0,0.0,0.0,0.0,0.0,0.0,0.0,0.0,0.0,0.0,0.0,0.0,0.0,0.0,0.0,0.0,0.0,0.0,0.0,0.0,0.0,0.0,0.0,0.0,0.0,0.0,0.0,0.0,0.0,0.0,0.0,0.0,0.0,0.0,0.0,0.0,0.0,0.0,0.0,2.9503,2.8856,0.0,0.0,0.0,2.9344,2.838,0.0,0.0,0.0,0.0,0.0,0.0,0.0,0.0,0.0,0.0,0.0,0.0,0.0,0.0,0.0,0.0,0.0,0.0,0.0,0.0,0.0,0.0,0.0,0.0,0.0,0.0,0.0,0.0,0.0,0.0,0.0,0.0,0.0,0.0,0.0,0.0,0.0,0.0,0.0,0.0,0.0,0.0,0.0,0.0,0.0,0.0,0.0,0.0,0.0,0.0,0.0,0.0,0.0,0.0,0.0,0.0,0.0,2.6292,2.9323,3.094,3.0984,3.0984,3.1028,3.1102,2.8158,0.0,0.0,0.0,0.0,0.0,0.0,0.0,0.0,0.0,0.0,0.0,0.0,0.0,0.0,0.0,0.0,0.0,0.0,0.0,0.0,0.0,0.0,0.0,0.0,0.0,0.0,0.0,2.3149,0.0,0.0,0.0,0.0,0.0,0.0,0.0,0.0,0.0,0.0,0.0,0.0,0.0,0.0,3.0016,3.0524,3.0632,3.0731,0.0,0.0,3.029,2.9375,3.162,3.244,0.0,0.0,0.0,0.0,0.0,0.0,0.0,0.0,0.0,0.0,0.0,0.0,0.0,0.0,0.0,0.0,0.0,0.0,0.0,0.0,0.0,0.0,0.0,0.0,0.0,0.0,0.0,0.0,0.0,0.0,0.0,0.0,0.0,0.0,0.0,0.0,0.0,0.0,0.0,0.0,0.0,0.0,0.0,0.0,0.0,0.0,0.0,0.0,0.0,0.0,0.0,0.0,0.0,0.0,2.6738,2.6431,2.9587,3.1073,3.0657,3.0642,3.0851,3.1248,2.9724,2.8552,0.0,0.0,0.0,0.0,0.0,0.0,0.0,0.0,0.0,0.0,0.0,0.0,0.0,0.0,0.0,0.0,0.0,0.0,0.0,0.0,0.0,0.0,0.0,0.0,0.0,0.0,0.0,0.0,0.0,0.0,0.0,0.0,0.0,0.0,0.0,0.0,0.0,0.0,0.0,0.0,0.0,2.959,3.0247,3.0424,3.0958,0.0,3.1182,3.078,3.2091,3.3667,3.3872,3.1159,0.0,0.0,0.0,0.0,0.0,0.0,0.0,0.0,0.0,0.0,0.0,0.0,0.0,0.0,0.0,0.0,0.0,0.0,0.0,0.0,0.0,0.0,0.0,0.0,0.0,0.0,0.0,0.0,0.0,0.0,0.0,0.0,0.0,0.0,0.0,0.0,0.0,0.0,0.0,0.0,0.0,0.0,0.0,0.0,0.0,0.0,0.0,0.0,0.0,0.0,0.0,0.0,0.0,2.6617,2.5745,2.9543,3.1394,3.1073,3.1263,3.148,3.1667,3.0151,2.8865,0.0,0.0,0.0,0.0,0.0,0.0,0.0,0.0,0.0,0.0,0.0,0.0,0.0,0.0,0.0,0.0,0.0,0.0,0.0,0.0,0.0,0.0,0.0,0.0,0.0,0.0,0.0,0.0,2.775,2.7869,2.7325,0.0,0.0,0.0,0.0,0.0,0.0,0.0,0.0,0.0,0.0,3.1342,3.2924,3.3171,0.0,0.0,3.3424,3.2981,3.2543,3.3759,3.3776,3.0876,3.0466,0.0,0.0,0.0,0.0,0.0,0.0,0.0,0.0,0.0,0.0,0.0,0.0,0.0,0.0,0.0,0.0,0.0,0.0,0.0,0.0,0.0,0.0,0.0,0.0,0.0,0.0,0.0,0.0,0.0,0.0,0.0,0.0,0.0,0.0,0.0,0.0,0.0,0.0,0.0,0.0,0.0,0.0,0.0,0.0,0.0,0.0,0.0,0.0,0.0,0.0,0.0,0.0,2.6626,2.5777,2.9756,3.1682,3.1365,3.1623,3.1851,3.2018,3.096,2.9878,0.0,0.0,0.0,0.0,0.0,0.0,0.0,0.0,0.0,0.0,0.0,0.0,0.0,0.0,0.0,0.0,0.0,0.0,0.0,0.0,0.0,0.0,0.0,0.0,0.0,0.0,0.0,0.0,2.8582,2.8658,2.8492,0.0,0.0,0.0,0.0,0.0,0.0,0.0,0.0,0.0,0.0,3.2536,3.3582,3.3741,3.3812,3.3986,3.3495,3.2931,3.2476,3.3318,3.3301,3.119,0.0,0.0,0.0,0.0,0.0,0.0,0.0,0.0,0.0,0.0,0.0,0.0,0.0,0.0,0.0,0.0,0.0,0.0,0.0,0.0,0.0,0.0,0.0,0.0,0.0,0.0,0.0,1.8589,0.0,0.0,1.8723,0.0,0.0,0.0,0.0,0.0,0.0,0.0,0.0,0.0,0.0,0.0,0.0,0.0,0.0,0.0,0.0,0.0,0.0,0.0,0.0,0.0,0.0,2.6748,2.6796,3.032,3.1951,3.1523,3.1508,3.1823,3.237,3.2336,3.2022,3.1381,0.0,0.0,0.0,0.0,0.0,0.0,0.0,0.0,0.0,0.0,0.0,0.0,0.0,0.0,0.0,0.0,0.0,0.0,0.0,0.0,0.0,0.0,0.0,0.0,0.0,0.0,2.4302,2.5793,2.7357,0.0,0.0,0.0,0.0,0.0,0.0,0.0,0.0,0.0,0.0,3.0904,3.2648,3.1341,3.113,3.1549,3.2406,3.0615,2.9878,3.2072,3.2423,3.2457,0.0,0.0,0.0,0.0,0.0,0.0,0.0,0.0,0.0,0.0,0.0,0.0,0.0,0.0,0.0,0.0,0.0,0.0,0.0,0.0,0.0,0.0,0.0,0.0,0.0,0.0,0.0,1.9922,2.0194,0.0,0.0,0.0,0.0,0.0,0.0,0.0,0.0,0.0,0.0,0.0,2.6218,2.6884,0.0,0.0,0.0,0.0,0.0,0.0,0.0,0.0,0.0,0.0,0.0,0.0,2.7126,2.7103,3.0584,3.2287,3.1994,3.2262,3.2566,3.2881,3.2866,3.2369,3.1337,0.0,0.0,0.0,0.0,0.0,0.0,0.0,0.0,0.0,0.0,0.0,0.0,0.0,0.0,0.0,0.0,0.0,0.0,0.0,0.0,0.0,0.0,0.0,0.0,0.0,2.6581,0.0,0.0,0.0,0.0,0.0,0.0,0.0,0.0,0.0,0.0,0.0,2.8165,2.9665,3.0052,3.0593,3.1586,3.1725,3.2213,0.0,0.0,0.0,0.0,0.0,0.0,0.0,0.0,0.0,0.0,0.0,0.0,0.0,0.0,3.0051,2.9217,2.989,3.0575,3.0592,0.0,0.0,0.0,0.0,0.0,0.0,0.0,0.0,0.0,0.0,0.0,0.0,0.0,0.0,2.2322,0.0,2.293,0.0,0.0,0.0,0.0,0.0,0.0,0.0,0.0,2.7103,2.8074,2.8499,2.8947,2.9024,0.0,2.8449,2.6758,0.0,0.0,0.0,0.0,0.0,0.0,0.0,0.0,2.7473,2.7653,3.0823,3.2441,3.2287,3.2566,3.28,3.2935,3.3043,3.2714,3.1889,3.0688,2.9384,0.0,0.0,0.0,0.0,0.0,0.0,0.0,0.0,0.0,0.0,0.0,0.0,0.0,0.0,0.0,0.0,0.0,0.0,0.0,0.0,0.0,0.0,0.0,2.8229,0.0,0.0,0.0,0.0,0.0,0.0,0.0,0.0,0.0,2.8256,2.8508,2.9189,3.0664,3.0699,3.0751,3.1168,0.0,0.0,0.0,0.0,0.0,0.0,0.0,2.9701,2.9247,2.9663,3.0378,3.141,3.1952,3.2267,3.2249,0.0,0.0,3.1386,3.1966,3.2657,3.2674,3.2233,3.2038,3.255,3.2202,3.1908,0.0,0.0,0.0,0.0,0.0,0.0,0.0,0.0,2.61,2.5538,0.0,2.5957,0.0,0.0,0.0,0.0,2.4735,2.6344,0.0,0.0,3.0604,3.1539,3.0479,3.0463,3.0125,2.9433,2.8258,2.7311,2.668,2.7434,0.0,0.0,0.0,0.0,0.0,0.0,2.7812,2.8625,3.1111,3.2398,3.2398,3.2398,3.2453,3.2621,3.292,3.3069,3.3033,3.188,3.1313,3.1406,2.9151,0.0,0.0,0.0,0.0,0.0,0.0,0.0,0.0,0.0,0.0,0.0,0.0,0.0,0.0,0.0,0.0,0.0,0.0,0.0,0.0,2.9389,0.0,0.0,0.0,0.0,0.0,0.0,0.0,0.0,0.0,0.0,2.7867,2.9434,3.075,3.0733,0.0,0.0,0.0,0.0,3.0837,2.8194,2.7672,2.7741,2.7811,2.8992,3.0368,3.1812,0.0,0.0,3.4349,3.3149,3.2246,3.2193,3.3498,3.4059,3.2792,3.2669,3.2687,3.2669,3.2722,3.2564,3.2581,3.2809,3.2739,2.5888,0.0,0.0,0.0,0.0,2.5236,2.6106,2.7382,2.7382,2.7361,2.7342,2.7935,0.0,0.0,0.0,0.0,0.0,0.0,2.8578,2.9556,3.0499,3.1221,3.1828,3.1828,3.1736,3.152,3.1151,3.0859,3.0715,3.0911,2.9024,2.5114,0.0,0.0,0.0,0.0,2.8673,2.9884,3.1536,3.2398,3.2398,3.2398,3.2453,3.2605,3.2827,3.2951,3.2951,3.2613,3.2018,3.118,3.1036,0.0,0.0,0.0,0.0,0.0,0.0,0.0,0.0,0.0,0.0,0.0,0.0,0.0,0.0,0.0,0.0,0.0,0.0,0.0,2.7813,2.9515,2.9584,0.0,0.0,0.0,0.0,0.0,0.0,0.0,0.0,0.0,3.0594,3.0145,2.9886,0.0,0.0,2.8954,2.809,2.9247,3.0283,3.0525,3.056,0.0,3.2029,3.1703,3.1462,3.1895,3.3321,3.4384,3.4384,3.4907,3.5362,3.5307,3.5707,3.5904,3.5577,3.5475,3.544,3.5457,3.5457,3.5457,3.5457,3.5516,3.5484,2.9082,2.7976,2.6982,2.6871,2.7368,2.7368,2.8147,2.9463,2.9437,2.929,2.9087,2.9814,2.9174,2.7616,2.7899,0.0,0.0,0.0,2.9843,3.1121,3.1106,3.1562,3.2284,3.237,3.2398,3.2398,3.2398,3.2398,3.2398,3.1859,3.0156,2.7388,0.0,0.0,2.7211,2.8519,2.9587,3.0417,3.172,3.2398,3.2398,3.2398,3.2425,3.2508,3.2676,3.2788,3.2773,3.287,3.2576,3.1862,3.1805,3.1075,0.0,0.0,0.0,0.0,0.0,0.0,0.0,0.0,0.0,0.0,0.0,2.716,2.6249,0.0,0.0,0.0,2.8601,2.8897,2.9192,2.9918,0.0,0.0,0.0,0.0,0.0,0.0,0.0,2.8537,3.0456,3.1855,3.1801,3.1007,3.0644,3.1231,3.0558,2.9782,2.9161,0.0,3.1438,3.1765,3.18,3.211,3.3024,3.2942,3.2962,3.3548,3.4454,3.5117,3.5188,3.5951,3.6527,3.6544,3.6544,3.6544,3.6561,3.6544,3.6582,3.6681,3.6719,3.6719,3.6719,3.6742,3.6748,3.1496,3.1286,2.8906,2.8618,2.9756,2.9756,3.0528,3.1741,3.1741,3.1147,3.0213,3.1422,3.0561,2.8218,2.8442,0.0,3.0503,3.0383,3.0999,3.2203,3.2191,3.2191,3.2219,3.2342,3.2398,3.2398,3.2398,3.2398,3.2351,3.1197,3.0494,3.0402,3.0402,2.9725,2.855,2.9627,3.0279,3.0417,3.1613,3.229,3.2382,3.2398,3.2398,3.2398,3.2508,3.2578,3.2594,3.2746,3.2908,3.2996,3.1872,3.1234,3.1227,0.0,0.0,0.0,0.0,0.0,0.0,0.0,0.0,0.0,0.0,0.0,0.0,0.0,0.0,0.0,3.0438,0.0,3.1921,3.0767,0.0,0.0,0.0,3.0473,3.1754,3.1995,3.2012,3.1818,0.0,0.0,3.1972,3.199,3.2541,3.4096,3.4096,3.3386,3.199,3.3026,3.3596,3.2248,3.2127,3.2196,3.2645,3.3507,3.4665,3.5801,3.6284,3.6236,3.6197,3.627,3.6301,3.6305,3.6284,3.6284,3.6284,3.6305,3.6381,3.6623,3.6681,3.6681,3.6643,3.6681,3.6681,3.1496,3.1451,3.0823,3.0748,3.1047,3.1047,3.1255,3.1568,3.1583,3.1402,3.1191,3.1491,3.1266,3.0666,3.1267,3.1586,3.1609,3.1594,3.1857,3.2342,3.2247,3.2274,3.2342,3.237,3.2398,3.2398,3.2398,3.2398,3.2382,3.2074,3.1413,3.0448,3.0402,2.9725,2.8473,2.8695,2.9396,3.0402,3.0709,3.1382,3.2351,3.2398,3.2398,3.2398,3.2425,3.2453,3.2453,3.2496,3.2594,3.273,3.2798,3.2572,3.2055,3.0576,0.0,0.0,0.0,0.0,0.0,0.0,0.0,0.0,0.0,2.8637,2.7509,0.0,2.9177,0.0,3.1818,3.3352,3.3524,3.3233,0.0,0.0,3.1527,3.1458,3.1784,3.2873,3.3132,3.1938,3.2817,3.3542,3.3544,3.3542,3.4113,3.5508,3.38,3.2196,3.1869,3.311,3.3973,3.3734,3.4456,3.5214,3.5145,3.5508,3.5852,3.6249,3.6284,3.6284,3.6284,3.6284,3.6284,3.6284,3.6284,3.6284,3.6284,3.6284,3.6322,3.6381,3.6402,3.6402,3.6402,3.6464,3.6561,3.1496,3.1496,3.1496,3.1496,3.1496,3.1496,3.1496,3.1496,3.1496,3.1496,3.1496,3.1496,3.1682,3.1979,3.2163,3.2287,3.2342,3.2163,3.215,3.2219,3.2259,3.2287,3.2315,3.237,3.2398,3.2398,3.269,3.2844,3.2859,3.3152,3.2936,3.2244,3.2228,3.1536,3.0181,2.9012,2.8919,2.9925,3.0248,3.1032,3.2336,3.2398,3.2244,3.1951,3.1674,3.1366,3.1074,3.0782,3.0706,3.0835,3.1095,3.1189,3.1005,2.9889,2.9201,0.0,0.0,0.0,0.0,0.0,0.0,0.0,0.0,0.0,0.0,0.0,3.0541,3.0541,3.2716,3.382,3.3128,3.3059,3.3009,3.2835,3.2817,3.3095,3.3731,3.4559,3.4749,3.3904,3.4542,3.5059,3.5076,3.5076,3.5508,3.6663,3.5387,3.4197,3.3921,3.4576,3.5076,3.5128,3.5783,3.6284,3.6284,3.6284,3.6284,3.6284,3.6284,3.6284,3.6284,3.6284,3.6284,3.6284,3.6284,3.6284,3.6284,3.6284,3.6284,3.6284,3.6284,3.6284,3.6284,3.6364,3.6423,3.163,3.1645,3.1705,3.175,3.1765,3.175,3.166,3.1496,3.1496,3.1613,3.1775,3.1817,3.2259,3.2932,3.2535,3.2659,3.3134,3.2699,3.2479,3.2425,3.2563,3.2548,3.2451,3.2576,3.2631,3.2662,3.3231,3.3493,3.3552,3.4197,3.4412,3.4243,3.4227,3.3581,3.2228,2.9874,2.895,2.9525,3.0263,3.1228,3.2351,3.2228,3.1859,3.1274,3.0705,3.0125,2.9541,2.8956,2.8706,2.8812,2.8869,2.9242,2.9957,2.9079,2.8844,0.0,2.8612,0.0,0.0,0.0,0.0,0.0,0.0,0.0,0.0,3.18,3.1886,3.2059,3.3319,3.363,3.2472,3.2386,3.2974,3.4355,3.4525,3.5097,3.6387,3.6594,3.6594,3.6594,3.6594,3.6594,3.6594,3.6611,3.687,3.7495,3.753,3.7133,3.6715,3.6559,3.6611,3.6594,3.6594,3.6766,3.6715,3.6577,3.649,3.649,3.6353,3.6284,3.6284,3.6284,3.6284,3.6284,3.6284,3.6284,3.6284,3.6284,3.6284,3.6284,3.6284,3.6284,3.6284,3.6301,3.6284,3.2303,3.2377,3.2901,3.3125,3.3125,3.3125,3.2482,3.1496,3.1496,3.2113,3.3128,3.3575,3.4176,3.4889,3.5218,3.5272,3.5027,3.4472,3.4361,3.456,3.4073,3.384,3.3826,3.384,3.3856,3.3885,3.3992,3.4143,3.4289,3.4443,3.3919,3.2841,3.2782,3.241,3.1593,0.0,0.0,0.0,3.1413,3.2151,3.2336,3.1336,3.0735,3.0586,3.0463,0.0,3.0217,3.0079,3.0043,3.0053,3.0426,0.0,0.0,0.0,0.0,0.0,0.0,0.0,0.0,0.0,0.0,0.0,3.3406,3.2835,3.1886,3.18,3.23,3.3544,3.3958,3.4493,3.537,3.5439,3.5818,3.6736,3.6857,3.7219,3.8043,3.8129,3.8146,3.8163,3.8146,3.8146,3.8094,3.8146,3.8198,3.8353,3.8387,3.8358,3.822,3.8112,3.8129,3.8146,3.8043,3.8112,3.8146,3.765,3.7249,3.7198,3.668,3.6387,3.637,3.6353,3.6318,3.6353,3.6284,3.6335,3.6318,3.6284,3.637,3.6301,3.6301,3.6284,3.6284,3.6284,3.6284,3.3006,3.3036,3.335,3.3499,0.0,3.3499,3.3276,3.2893,3.2601,3.287,3.3513,3.3775,3.4262,3.4844,3.4888,3.4901,3.4914,3.4442,3.4312,3.4443,3.4178,3.4104,3.4193,3.4089,3.4104,3.4208,3.4529,3.4758,3.4878,3.5261,3.5136,3.4445,3.431,3.4141,3.3921,3.3583,3.2752,3.1413,3.2059,3.2721,3.3352,3.2782,3.2244,3.1878,3.154,0.0,0.0,0.0,0.0,0.0,0.0,0.0,0.0,3.2931,0.0,3.4572,3.396,3.3917,3.4784,3.4953,3.5324,3.6079,3.6191,3.56,3.4145,3.4697,3.5473,3.6253,3.6339,3.6632,3.7335,3.7422,3.7577,3.7996,3.8065,3.8176,3.8458,3.8504,3.8465,3.8397,3.8397,3.8397,3.8397,3.8414,3.8608,3.8963,3.9055,3.9216,3.956,3.9065,3.8594,3.8594,3.8594,3.8594,3.8577,3.8341,3.8047,3.7996,3.7698,3.7473,3.7439,3.7422,3.7439,3.7439,3.7439,3.7439,3.7422,3.7439,3.7335,3.6991,3.6887,3.6732,3.6422,3.6284,3.6284,3.3664,3.3679,3.3799,3.3858,3.3844,3.3967,3.4379,3.4883,0.0,0.0,0.0,3.4182,3.4525,3.5145,3.4707,3.4707,3.5,3.4707,3.4424,3.4243,3.4364,3.4439,3.447,3.4288,3.4319,3.453,3.5049,3.5324,3.5401,3.6075,3.6383,3.6398,3.6242,3.632,3.6492,3.6492,3.5383,3.3229,3.289,3.3349,3.4443,3.4258,3.3829,3.3229,3.269,3.2136,3.1609,3.1518,3.1507,3.1507,3.2032,3.2653,3.3225,3.3499,3.3885,3.4474,3.4725,3.5398,3.6592,3.67,3.7251,3.8538,3.8693,3.8196,3.6814,3.787,3.8594,3.8572,3.8572,3.8532,3.8532,3.851,3.8601,3.8699,3.8734,3.8745,3.8809,3.8763,3.8825,3.8653,3.8715,3.8623,3.8675,3.8692,3.8875,3.9517,3.9735,3.9965,4.0513,3.9836,3.9129,3.9146,3.9221,3.9083,3.8991,3.887,3.8824,3.8767,3.8646,3.8594,3.8594,3.8594,3.8594,3.8456,3.8594,3.8543,3.8577,3.8491,3.837,3.7806,3.7702,3.7512,3.6887,3.6715,3.6663,3.4369,3.4414,3.4981,3.522,3.5237,3.5764,3.6367,3.6841,3.5663,3.5772,3.6761,3.6761,3.7464,3.8586,3.8521,3.8214,3.7762,3.785,3.7335,3.6291,3.6428,3.6138,3.5497,3.5465,3.5543,3.5732,3.5666,3.5775,3.6042,3.6086,3.6068,3.6068,3.6148,3.6305,3.6492,3.6492,3.6292,3.5891,3.4768,3.4305,3.4474,3.3334,3.2628,3.2536,3.249,3.2351,3.2244,3.2276,3.2242,3.2269,3.2719,3.3599,3.4951,3.592,3.702,3.8292,3.9,3.9462,3.9649,3.9805,3.9946,4.0168,4.0185,3.9671,3.8417,3.8456,3.855,3.8454,3.8505,3.8368,3.8282,3.8311,3.8625,3.9189,3.9292,3.9538,4.0192,4.0189,4.0131,4.0179,4.025,4.0092,4.0024,4.0058,4.0107,4.0408,4.0398,4.0559,4.0635,4.0662,4.056,4.0584,4.0584,4.0584,4.0359,3.9922,3.9595,3.9526,3.9043,3.8807,3.8784,3.8784,3.8784,3.8646,3.8767,3.8715,3.8698,3.8594,3.8612,3.8474,3.8439,3.8358,3.8129,3.8094,3.7784,3.5519,3.5612,3.6245,3.6523,3.6585,3.7175,3.7589,3.786,3.763,3.7434,3.7313,3.6983,3.7361,3.8238,3.8254,3.8096,3.7822,3.7895,3.765,3.7117,3.7131,3.7011,3.6753,3.6646,3.6707,3.6845,3.6446,3.6337,3.6445,3.6148,3.602,3.6005,3.6148,3.6211,3.6226,3.6398,3.6677,3.6952,3.6043,3.5598,3.5598,3.4953,3.4599,3.4599,3.4614,3.4614,3.4614,3.4949,3.5107,3.5107,3.5945,3.6723,3.7427,3.8238,3.8992,3.9645,3.9995,4.0205,4.0188,4.0263,4.0313,4.0387,4.0387,4.0188,3.9678,3.965,3.9609,3.9555,3.9538,3.9532,3.945,3.9426,3.958,3.9963,4.0014,4.0127,4.0392,4.0412,4.0387,4.0362,4.0337,4.0271,4.0288,4.0288,4.0337,4.0478,4.0551,4.0583,4.0583,4.0648,4.0704,4.0793,4.0823,4.0894,4.0877,4.0636,4.0353,4.0359,4.0083,3.9876,3.9859,3.9842,3.9825,3.9842,3.9819,3.9859,3.9825,3.9859,3.9664,3.9232,3.9198,3.9094,3.875,3.8594,3.8318,3.6646,3.6692,3.7191,3.7488,3.7663,3.8108,3.8379,3.8562,3.8898,3.8606,3.7809,3.7251,3.7324,3.7809,3.7809,3.7751,3.7634,3.7751,3.7663,3.7413,3.7531,3.7589,3.7531,3.7442,3.7488,3.7546,3.7071,3.6875,3.6829,3.6507,3.6367,3.6399,3.6492,3.6554,3.6523,3.6784,3.7148,3.7533,3.7148,3.6922,3.6922,3.6922,3.6922,3.6892,3.6891,3.6922,3.6922,3.7342,3.7608,3.7621,3.849,3.9001,3.9028,3.9592,3.9901,3.9901,4.0037,4.0113,4.0113,4.0113,4.0138,4.0238,4.0238,4.0288,4.037,4.0412,4.0419,4.0461,4.0392,4.0385,4.0326,4.0343,4.0395,4.0395,4.0412,4.0353,4.0313,4.028,4.0238,4.0146,4.0121,4.0096,4.0113,4.0113,4.0163,4.0288,4.0412,4.0493,4.051,4.051,4.0583,4.0697,4.0793,4.084,4.0864,4.0871,4.086,4.0894,4.086,4.0756,4.0774,4.0843,4.0877,4.0774,4.0825,4.0774,4.086,4.0843,4.0584,4.0077,3.9974,3.9802,3.937,3.9272,3.8945,3.731,3.731,3.7399,3.7706,3.8226,3.8327,3.8711,3.9127,3.8662,3.8689,3.9122,3.9083,3.9029,3.9121,3.911,3.8794,3.8327,3.886,3.8544,3.7623,3.7966,3.7937,3.7596,3.749,3.7472,3.7653,3.7522,3.7555,3.7628,3.7389,3.7401,3.7602,3.7648,3.7812,3.8055,3.8128,3.8153,3.8222,3.8165,3.8137,3.8153,3.8153,3.8153,3.8153,3.8124,3.8137,3.81,3.8165,3.8226,3.8238,3.8383,3.8423,3.8495,3.8974,3.9302,3.9372,3.9833,4.0113,4.013,4.0113,4.0163,4.0121,4.0206,4.0206,4.0231,4.0197,4.0188,4.0356,4.0364,4.028,4.0163,4.0146,4.0163,4.0171,4.0163,4.0188,4.0238,4.0188,4.0163,4.028,4.0163,4.0113,4.0113,4.0113,4.0163,4.0238,4.0362,4.0461,4.0461,4.0534,4.0624,4.0648,4.0721,4.0721,4.0745,4.084,4.0888,4.0894,4.0894,4.0894,4.0894,4.0894,4.0894,4.0894,4.0894,4.0894,4.0894,4.0894,4.0877,4.0705,4.0653,4.0705,4.067,4.0549,4.0101,3.7937,3.7966,3.8367,3.8923,3.9527,3.9954,4.0275,4.0503,4.0264,4.0275,4.0503,4.0531,4.0083,3.9348,3.9746,3.9792,3.9599,4.0266,4.0264,3.9805,4.0033,4.0005,3.9805,3.9776,3.9805,3.9805,3.9441,3.9248,3.9218,3.8844,3.8692,3.8798,3.8994,3.9173,3.932,3.9496,3.9772,4.0114,4.0114,4.0282,4.0447,3.911,3.8306,3.8355,3.8728,3.8938,3.9003,3.9356,3.9599,3.9612,3.9944,4.0114,4.0158,4.07,4.1013,4.104,4.1268,4.1399,4.1416,4.1416,4.1416,4.1373,4.1416,4.1416,4.1399,4.1416,4.1416,4.1366,4.0697,4.0163,4.013,4.0113,4.0113,4.0113,4.0113,4.0138,4.0163,4.0138,4.0138,4.0188,4.0138,4.013,4.0113,4.0113,4.0138,4.0188,4.0221,4.0288,4.0271,4.0313,4.0337,4.0362,4.0461,4.0648,4.0769,4.0864,4.0912,4.0894,4.0894,4.0894,4.0894,4.0894,4.0894,4.0894,4.0894,4.0894,4.0894,4.0894,4.0894,4.0894,4.0894,4.0894,4.0894,4.0894,4.0549,3.9133,3.9217,3.9688,4.0166,4.0696,4.1193,4.1397,4.1397,4.1397,4.1397,4.1397,4.1397,4.0845,4.0061,4.0431,4.0663,4.0729,4.1177,4.1397,4.1397,4.1397,4.1397,4.1397,4.1397,4.1397,4.1324,4.0914,4.0727,4.0684,4.0296,4.0039,4.013,4.0356,4.0475,4.0547,4.0785,4.1103,4.1544,4.1572,4.1837,4.1957,4.0398,3.9396,3.9445,3.9905,4.02,4.02,4.0721,4.0984,4.0996,4.1415,4.1655,4.1655,4.2055,4.2303,4.2303,4.2303,4.2303,4.2303,4.2303,4.2303,4.2303,4.2303,4.2303,4.2303,4.2303,4.2303,4.2211,4.1331,4.0756,4.0679,4.0705,4.0705,4.0679,4.0679,4.0705,4.0739,4.0705,4.0773,4.0705,4.084,4.0603,4.0468,4.0434,4.0417,4.0163,4.0163,4.0163,4.0163,4.0213,4.0221,4.0238,4.0412,4.0583,4.0776,4.0864,4.0888,4.0894,4.0894,4.0894,4.0894,4.0894,4.0894,4.0894,4.0894,4.0894,4.0894,4.0894,4.0894,4.0894,4.0894,4.0894,4.0894,4.0894,4.0894,4.1269,4.122,4.1281,4.1326,4.1392,4.1458,4.1475,4.1546,4.148,4.1446,4.1513,4.1524,4.1409,4.1342,4.1425,4.1364,4.1375,4.1475,4.1529,4.1558,4.1524,4.143,4.1397,4.1397,4.1458,4.1607,4.1538,4.146,4.1411,4.1345,4.1425,4.1609,4.1647,4.1693,4.1811,4.1888,4.1937,4.2175,4.2202,4.2227,4.2327,4.2199,4.2051,4.2025,4.2112,4.2075,4.2102,4.2206,4.224,4.224,4.2307,4.2284,4.231,4.2354,4.2405,4.2371,4.2354,4.2354,4.2388,4.2439,4.2422,4.2371,4.2489,4.2371,4.2523,4.2523,4.2523,4.2354,4.2364,4.2202,4.2185,4.1999,4.1999,4.2033,4.21,4.2083,4.2117,4.1965,4.2168,4.21,4.1999,4.1728,4.1221,4.1153,4.0865,4.0493,4.0315,4.0416,4.0518,4.0516,4.0582,4.0624,4.0681,4.0683,4.0593,4.0769,4.0888,4.0894,4.0894,4.0894,4.0894,4.0894,4.0894,4.0894,4.0894,4.0894,4.0894,4.0894,4.0894,4.0894,4.0894,4.0894,4.0894,4.0894,4.0894,4.1397,4.1475,4.1922,4.2092,4.2142,4.2605,4.2804,4.2804,4.2787,4.2804,4.2787,4.2804,4.2804,4.2787,4.2804,4.2539,4.2187,4.2572,4.2804,4.2804,4.2804,4.2804,4.2804,4.2804,4.2804,4.2804,4.2787,4.2804,4.2804,4.2804,4.2833,4.2937,4.3057,4.3144,4.3213,4.3322,4.3463,4.3502,4.363,4.373,4.3724,4.3785,4.3785,4.3724,4.3267,4.3014,4.3031,4.347,4.3785,4.3768,4.3785,4.3785,4.3768,4.3785,4.3785,4.3785,4.3785,4.3785,4.3741,4.3768,4.3785,4.3785,4.3785,4.3735,4.3741,4.3758,4.3758,4.3768,4.3785,4.3785,4.3565,4.2895,4.2303,4.2303,4.2303,4.2354,4.2303,4.2303,4.2303,4.2303,4.2286,4.2151,4.2016,4.1897,4.1796,4.1585,4.1543,4.1519,4.1553,4.1621,4.1588,4.1656,4.1767,4.1818,4.1793,4.117,4.0888,4.0894,4.0894,4.0894,4.0894,4.0894,4.0894,4.0894,4.0894,4.0894,4.0894,4.0894,4.0894,4.0894,4.0894,4.0894,4.0894,4.0894,4.0894,4.2092,4.2175,4.2638,4.2853,4.292,4.3383,4.3615,4.3615,4.3615,4.3615,4.3615,4.3615,4.3615,4.3615,4.3615,4.335,4.292,4.3367,4.3615,4.3615,4.3615,4.3615,4.3615,4.3615,4.3615,4.3598,4.3615,4.3615,4.3615,4.3615,4.3615,4.3611,4.3734,4.3793,4.3822,4.401,4.408,4.4184,4.4355,4.4423,4.4514,4.4587,4.4598,4.453,4.4062,4.3792,4.3792,4.4327,4.4598,4.4598,4.4598,4.4598,4.4598,4.4598,4.4598,4.4598,4.4581,4.4598,4.4598,4.4598,4.4581,4.4598,4.4581,4.4598,4.4598,4.4598,4.4598,4.4598,4.4598,4.4598,4.4429,4.3639,4.3031,4.3058,4.3031,4.3041,4.3031,4.3075,4.3091,4.3115,4.3132,4.298,4.2709,4.2675,4.2523,4.2354,4.2313,4.2366,4.2366,4.2436,4.2479,4.2462,4.2508,4.2552,4.2535,4.212,4.1564,4.1478,4.1136,4.105,4.1067,4.1032,4.0981,4.0946,4.0894,4.0894,4.0894,4.0894,4.0894,4.0894,4.0894,4.0894,4.0894,4.0894,4.0894,4.3532,4.3499,4.3598,4.3532,4.3515,4.3582,4.3615,4.3615,4.3615,4.3615,4.3615,4.3615,4.3615,4.3615,4.3615,4.3565,4.3515,4.3565,4.3615,4.3615,4.3615,4.3615,4.3615,4.3615,4.3615,4.3615,4.3615,4.3615,4.3615,4.3615,4.3615,4.3598,4.3615,4.3645,4.3598,4.3687,4.3747,4.3939,4.4114,4.4241,4.431,4.4497,4.4598,4.4598,4.453,4.4513,4.4547,4.4581,4.4598,4.4598,4.4598,4.4598,4.4598,4.4598,4.4598,4.4598,4.4598,4.4598,4.4598,4.4598,4.4598,4.4598,4.4598,4.4598,4.4598,4.4598,4.4598,4.4598,4.4598,4.4598,4.4598,4.4445,4.4361,4.4547,4.4327,4.4327,4.4412,4.4513,4.4547,4.4429,4.4344,4.4198,4.3656,4.3392,4.3217,4.2814,4.2707,4.2804,4.2898,4.3028,4.2902,4.2928,4.3176,4.339,4.3246,4.3055,4.2557,4.2127,4.164,4.1378,4.1516,4.1533,4.1429,4.136,4.0963,4.0929,4.0894,4.0894,4.0894,4.0894,4.0894,4.0912,4.0894,4.0894,4.0894,4.3615,4.3615,4.3615,4.3615,4.3615,4.3615,4.3615,4.3615,4.3615,4.3615,4.3615,4.3615,4.3615,4.3615,4.3615,4.3615,4.3615,4.3615,4.3615,4.3615,4.3615,4.3615,4.3615,4.3615,4.3615,4.3615,4.3615,4.3615,4.3615,4.3615,4.3615,4.3615,4.3615,4.3615,4.3628,4.3789,4.3998,4.4056,4.4315,4.4457,4.4497,4.457,4.4598,4.4598,4.4598,4.4598,4.4598,4.4598,4.4598,4.4598,4.4598,4.4598,4.4598,4.4598,4.4598,4.4598,4.4598,4.4598,4.4598,4.4598,4.4598,4.4598,4.4598,4.4598,4.4598,4.4598,4.4598,4.4598,4.4598,4.4598,4.4598,4.4598,4.4598,4.4598,4.4598,4.4598,4.4598,4.4598,4.4598,4.4598,4.4598,4.4479,4.431,4.4181,4.4084,4.3963,4.3933,4.4014,4.4129,4.408,4.4295,4.4338,4.4375,4.4222,4.413,4.3967,4.3589,4.309,4.2546,4.2033,4.2085,4.2102,4.1981,4.1774,4.1343,4.1136,4.1067,4.1084,4.1205,4.1015,4.0998,4.0981,4.0912,4.0894,4.0894,4.3615,4.3615,4.3615,4.3615,4.3615,4.3615,4.3615,4.3615,4.3615,4.3615,4.3615,4.3615,4.3615,4.3615,4.3615,4.3615,4.3615,4.3615,4.3615,4.3615,4.3615,4.3615,4.3615,4.3615,4.3615,4.3615,4.3615,4.3615,4.3615,4.3615,4.3615,4.3615,4.3615,4.3645,4.3704,4.3894,4.4056,4.4126,4.4355,4.4514,4.4497,4.457,4.4598,4.4598,4.4598,4.4598,4.4598,4.4598,4.4598,4.4598,4.4598,4.4598,4.4598,4.4598,4.4598,4.4598,4.4598,4.4598,4.4598,4.4598,4.4598,4.4598,4.4598,4.4598,4.4598,4.4598,4.4598,4.4598,4.4598,4.4598,4.4598,4.4598,4.4598,4.4598,4.4598,4.4598,4.4598,4.4598,4.4598,4.4598,4.4598,4.4598,4.4598,4.4598,4.4626,4.4709,4.4748,4.4803,4.494,4.4954,4.5032,4.5086,4.5013,4.4953,4.5047,4.4877,4.462,4.4139,4.3622,4.3095,4.2827,4.281,4.2723,4.2568,4.224,4.2206,4.2137,4.2033,4.205,4.1671,4.1322,4.1188,4.117,4.0946,4.0894,4.3615,4.3615,4.3615,4.3615,4.3615,4.3615,4.3615,4.3615,4.3615,4.3615,4.3615,4.3615,4.3615,4.3615,4.3615,4.3615,4.3615,4.3615,4.3615,4.3615,4.3615,4.3615,4.3615,4.3615,4.3615,4.3615,4.3615,4.3615,4.3615,4.3615,4.3615,4.3615,4.3628,4.3687,4.3868,4.3927,4.401,4.4126,4.4281,4.4367,4.4384,4.4497,4.4598,4.4598,4.4598,4.4598,4.4598,4.4598,4.4598,4.4598,4.4598,4.4598,4.4598,4.4598,4.4598,4.4598,4.4598,4.4598,4.4598,4.4598,4.4598,4.4598,4.4598,4.4598,4.4598,4.4598,4.4598,4.4598,4.4598,4.4598,4.4598,4.4598,4.4598,4.4598,4.4598,4.4598,4.4598,4.4598,4.4598,4.4598,4.4598,4.4598,4.4598,4.4598,4.4598,4.4654,4.4765,4.4803,4.4886,4.5005,4.5123,4.5177,4.5194,4.5247,4.5177,4.5205,4.4983,4.4819,4.4415,4.4096,4.368,4.3569,4.3448,4.3293,4.3202,4.3195,4.3017,4.28,4.2691,4.2476,4.2122,4.1684,4.1676,4.1765,4.1743,4.3615,4.3615,4.3615,4.3615,4.3615,4.3615,4.3615,4.3615,4.3615,4.3615,4.3615,4.3615,4.3615,4.3615,4.3615,4.3615,4.3615,4.3615,4.3615,4.3615,4.3615,4.3615,4.3615,4.3615,4.3615,4.3615,4.3615,4.3615,4.3615,4.3615,4.3615,4.3598,4.3734,4.3839,4.3898,4.4097,4.4212,4.427,4.4412,4.4497,4.4497,4.457,4.4598,4.4598,4.4598,4.4598,4.4598,4.4598,4.4598,4.4598,4.4598,4.4598,4.4598,4.4598,4.4598,4.4598,4.4598,4.4598,4.4598,4.4598,4.4598,4.4598,4.4598,4.4598,4.4598,4.4598,4.4598,4.4598,4.4598,4.4598,4.4598,4.4598,4.4598,4.4598,4.4598,4.4598,4.4598,4.4598,4.4598,4.4598,4.4598,4.4598,4.4598,4.4598,4.4626,4.4709,4.4765,4.482,4.4886,4.4968,4.5042,4.5086,4.514,4.5194,4.523,4.5327,4.5328,4.5294,4.5147,4.5044,4.4673,4.444,4.4225,4.4,4.3954,4.3934,4.3494,4.3136,4.3117,4.3471,4.3147,4.2943,4.3348,4.3557,4.3447,4.3615,4.3615,4.3615,4.3615,4.3615,4.3615,4.3615,4.3615,4.3615,4.3615,4.3615,4.3615,4.3615,4.3615,4.3615,4.3615,4.3615,4.3615,4.3615,4.3615,4.3615,4.3615,4.3615,4.3615,4.3615,4.3615,4.3615,4.3615,4.3615,4.3615,4.3628,4.3734,4.3839,4.3939,4.4068,4.4212,4.4338,4.444,4.4542,4.4598,4.4598,4.4598,4.4598,4.4598,4.4598,4.4598,4.4598,4.4598,4.4598,4.4598,4.4598,4.4598,4.4598,4.4598,4.4598,4.4598,4.4598,4.4598,4.4598,4.4598,4.4598,4.4598,4.4598,4.4598,4.4598,4.4598,4.4598,4.4598,4.4598,4.4598,4.4598,4.4598,4.4598,4.4598,4.4598,4.4598,4.4598,4.4598,4.4598,4.4598,4.4598,4.4598,4.4598,4.4598,4.4626,4.4682,4.4682,4.4737,4.4776,4.4841,4.4923,4.4978,4.5086,4.5177,4.5247,4.5327,4.5459,4.5459,4.5649,4.5641,4.5485,4.5216,4.5196,4.4993,4.481,4.4679,4.446,4.4397,4.4695,4.4835,4.4442,4.4273,4.456,4.4831,4.4795,4.3615,4.3615,4.3615,4.3615,4.3615,4.3615,4.3615,4.3615,4.3615,4.3615,4.3615,4.3615,4.3615,4.3615,4.3615,4.3615,4.3615,4.3615,4.3615,4.3615,4.3615,4.3615,4.3615,4.3615,4.3615,4.3615,4.3615,4.3615,4.3645,4.3645,4.3734,4.3868,4.3927,4.4085,4.4224,4.431,4.444,4.4542,4.457,4.4598,4.4598,4.4598,4.4598,4.4598,4.4598,4.4598,4.4598,4.4598,4.4598,4.4598,4.4598,4.4598,4.4598,4.4598,4.4598,4.4598,4.4598,4.4598,4.4598,4.4598,4.4598,4.4598,4.4598,4.4598,4.4598,4.4598,4.4598,4.4598,4.4598,4.4598,4.4598,4.4598,4.4598,4.4598,4.4598,4.4598,4.4598,4.4598,4.4598,4.4598,4.4598,4.4598,4.4598,4.4598,4.4598,4.4626,4.4626,4.4654,4.4737,4.4776,4.4831,4.4858,4.5005,4.5177,4.5247,4.5327,4.5459,4.5589,4.5905,4.6005,4.6013,4.5922,4.6123,4.6086,4.5811,4.5911,4.6187,4.6244,4.6257,4.6114,4.5671,4.5441,4.5337,4.5613,4.5685,4.3615,4.3615,4.3615,4.3615,4.3615,4.3615,4.3615,4.3615,4.3615,4.3615,4.3615,4.3615,4.3615,4.3615,4.3615,4.3615,4.3615,4.3598,4.3615,4.3615,4.3615,4.3598,4.3598,4.3598,4.3615,4.3615,4.3615,4.3598,4.3628,4.3763,4.3868,4.3927,4.4097,4.4224,4.431,4.444,4.4542,4.4598,4.4598,4.4598,4.4598,4.4598,4.4598,4.4598,4.4598,4.4598,4.4598,4.4598,4.4598,4.4598,4.4598,4.4598,4.4598,4.4598,4.4598,4.4598,4.4598,4.4598,4.4598,4.4598,4.4598,4.4598,4.4598,4.4598,4.4598,4.4598,4.4598,4.4598,4.4598,4.4598,4.4598,4.4598,4.4598,4.4598,4.4598,4.4598,4.4598,4.4598,4.4598,4.4598,4.4598,4.4598,4.4598,4.4598,4.4598,4.4598,4.4598,4.4598,4.4654,4.4737,4.4803,4.4858,4.5005,4.522,4.53,4.5432,4.5675,4.5912,4.6217,4.6507,4.6513,4.6631,4.6817,4.684,4.6723,4.6954,4.72,4.7071,4.6846,4.6855,4.6928,4.6789,4.6659,4.6747,4.6657,4.3615,4.3615,4.3615,4.3615,4.3615,4.3615,4.3615,4.3615,4.3615,4.3615,4.3615,4.3615,4.3615,4.3615,4.3615,4.3615,4.3645,4.3687,4.3734,4.3734,4.3734,4.3763,4.3687,4.3628,4.3615,4.3615,4.3615,4.3628,4.3763,4.3852,4.3939,4.4068,4.4224,4.4338,4.4423,4.4542,4.457,4.4598,4.4598,4.4598,4.4598,4.4598,4.4598,4.4598,4.4598,4.4598,4.4598,4.4598,4.4598,4.4598,4.4598,4.4598,4.4598,4.4598,4.4598,4.4598,4.4598,4.4598,4.4598,4.4598,4.4598,4.4598,4.4598,4.4598,4.4598,4.4598,4.4598,4.4598,4.4598,4.4598,4.4598,4.4598,4.4598,4.4598,4.4598,4.4598,4.4598,4.4598,4.4598,4.4598,4.4598,4.4598,4.4598,4.4598,4.4598,4.4626,4.4709,4.4709,4.4748,4.4831,4.4886,4.4968,4.5086,4.522,4.5327,4.5546,4.5912,4.6249,4.6678,4.6959,4.712,4.7313,4.7503,4.7417,4.7291,4.7567,4.7733,4.7588,4.7524,4.7622,4.7747,4.7919,4.7902,4.7587,4.7572,4.3628,4.3615,4.3615,4.3615,4.3615,4.3615,4.3615,4.3615,4.3615,4.3615,4.3615,4.3615,4.3628,4.3628,4.3628,4.3598,4.3687,4.3822,4.391,4.3868,4.3852,4.3852,4.3822,4.3734,4.3687,4.3658,4.3658,4.3747,4.3881,4.3985,4.4097,4.4253,4.4338,4.444,4.457,4.4598,4.4598,4.4598,4.4598,4.4598,4.4598,4.4598,4.4598,4.4598,4.4598,4.4598,4.4598,4.4598,4.4598,4.4598,4.4598,4.4598,4.4598,4.4598,4.4598,4.4598,4.4598,4.4598,4.4598,4.4598,4.4598,4.4598,4.4598,4.4598,4.4598,4.4598,4.4598,4.4598,4.4598,4.4654,4.4692,4.4759,4.4814,4.4869,4.4869,4.4803,4.472,4.4692,4.4748,4.4598,4.4598,4.4598,4.4626,4.4654,4.4654,4.4682,4.482,4.4913,4.4951,4.5069,4.5239,4.5511,4.5751,4.5852,4.5928,4.5978,4.6321,4.666,4.7115,4.7356,4.7632,4.7795,4.7895,4.7877,4.7877,4.8055,4.8132,4.8034,4.8073,4.8305,4.8267,4.819,4.8209,4.8305,4.8306,4.3747,4.3615,4.3615,4.3615,4.3615,4.3615,4.3615,4.3615,4.3615,4.3598,4.3598,4.3615,4.3704,4.3793,4.3658,4.3687,4.3852,4.3998,4.4027,4.3956,4.391,4.3939,4.391,4.3881,4.3894,4.3969,4.3939,4.3939,4.4068,4.4167,4.4224,4.4338,4.4468,4.457,4.457,4.4598,4.4598,4.4598,4.4598,4.4598,4.4598,4.4598,4.4598,4.4598,4.4598,4.4598,4.4598,4.4598,4.4598,4.4598,4.4598,4.4598,4.4598,4.4598,4.4598,4.4598,4.4598,4.4598,4.4598,4.4598,4.4598,4.4598,4.4598,4.4598,4.4598,4.4598,4.4609,4.4682,4.4692,4.4759,4.5152,4.5205,4.5425,4.564,4.5691,4.5606,4.5294,4.5178,4.5089,4.4906,4.4776,4.4692,4.4841,4.4961,4.5025,4.5159,4.5292,4.5459,4.5572,4.5734,4.5935,4.6255,4.659,4.666,4.6707,4.6707,4.6868,4.7142,4.7506,4.7713,4.7955,4.8152,4.8229,4.8132,4.8132,4.8209,4.8267,4.8324,4.8324,4.8324,4.8324,4.8324,4.8324,4.8324,4.8324,4.3839,4.3747,4.3658,4.3658,4.3734,4.3628,4.3615,4.3615,4.3598,4.3658,4.3734,4.3763,4.3852,4.3939,4.3923,4.3939,4.4027,4.4155,4.4155,4.4097,4.4097,4.4097,4.4085,4.4039,4.4097,4.4155,4.4155,4.4126,4.4196,4.4253,4.4355,4.4485,4.457,4.4598,4.4598,4.4598,4.4598,4.4598,4.4598,4.4598,4.4598,4.4598,4.4598,4.4598,4.4598,4.4598,4.4598,4.4598,4.4598,4.4598,4.4598,4.4598,4.4598,4.4598,4.4598,4.4598,4.4598,4.4598,4.4598,4.4598,4.4598,4.4598,4.4598,4.4598,4.4598,4.4598,4.4703,4.4906,4.4998,4.5178,4.5665,4.5716,4.585,4.6017,4.614,4.6017,4.5843,4.5775,4.5631,4.5354,4.5052,4.5052,4.5284,4.5372,4.5477,4.5588,4.5784,4.5968,4.6189,4.6341,4.6525,4.6758,4.7026,4.7049,4.7138,4.7248,4.7291,4.7569,4.7797,4.8015,4.8132,4.8267,4.8324,4.8267,4.8305,4.8324,4.8324,4.8324,4.8324,4.8324,4.8324,4.8324,4.8324,4.8324,4.8324,4.3969,4.391,4.3747,4.3776,4.3868,4.3717,4.3674,4.3658,4.3658,4.3763,4.3927,4.3956,4.4027,4.4126,4.4184,4.4184,4.4155,4.4281,4.4338,4.4281,4.4281,4.431,4.4281,4.4224,4.4196,4.4355,4.4338,4.4367,4.4384,4.4367,4.4468,4.4542,4.4598,4.4598,4.4598,4.4598,4.4598,4.4598,4.4598,4.4598,4.4598,4.4598,4.4598,4.4598,4.4598,4.4598,4.4598,4.4598,4.4598,4.4598,4.4598,4.4598,4.4598,4.4598,4.4598,4.4598,4.4598,4.4598,4.4598,4.4598,4.4654,4.4786,4.4654,4.4654,4.4759,4.4852,4.4988,4.5346,4.5485,4.5691,4.6165,4.6244,4.6341,4.6478,4.6501,4.6406,4.6358,4.6334,4.6334,4.5985,4.5494,4.5528,4.5868,4.5943,4.6042,4.6147,4.6334,4.6595,4.6781,4.6878,4.7053,4.7186,4.7335,4.7335,4.7442,4.7671,4.7713,4.7836,4.8015,4.8209,4.8248,4.8305,4.8324,4.8324,4.8324,4.8324,4.8324,4.8324,4.8324,4.8324,4.8324,4.8324,4.8324,4.8324,4.8324,4.4167,4.4085,4.4039,4.3981,4.3927,4.3898,4.3868,4.3868,4.3852,4.3939,4.4068,4.4085,4.4155,4.4298,4.4457,4.4429,4.4384,4.444,4.4468,4.4367,4.4338,4.4338,4.4338,4.431,4.4384,4.4514,4.4525,4.457,4.4542,4.4542,4.4542,4.4598,4.4598,4.4598,4.4598,4.4598,4.4598,4.4598,4.4598,4.4598,4.4598,4.4598,4.4598,4.4637,4.4637,4.4692,4.4759,4.4786,4.4776,4.472,4.4665,4.4626,4.4598,4.4598,4.4598,4.4598,4.4598,4.4598,4.4598,4.472,4.4841,4.5008,4.4906,4.4906,4.5089,4.5241,4.5451,4.5943,4.6017,4.6262,4.6683,4.6817,4.7039,4.7236,4.728,4.7107,4.6976,4.7004,4.6981,4.6873,4.6484,4.6478,4.6665,4.6642,4.6619,4.6753,4.6913,4.716,4.7356,4.7464,4.7548,4.7692,4.7733,4.7754,4.7733,4.7955,4.8015,4.8113,4.8191,4.8324,4.8324,4.8324,4.8324,4.8324,4.8324,4.8324,4.8324,4.8324,4.8324,4.8324,4.8324,4.8324,4.8324,4.8324,4.8324,4.5054,4.4652,4.4569,4.4586,4.453,4.4196,4.3998,4.4027,4.3998,4.4068,4.4196,4.4224,4.431,4.4468,4.4587,4.4542,4.4514,4.457,4.457,4.4468,4.4468,4.4485,4.4468,4.4468,4.4542,4.457,4.4598,4.457,4.4598,4.4598,4.4598,4.4598,4.4598,4.4598,4.4598,4.4598,4.4598,4.4598,4.4598,4.4598,4.4598,4.4626,4.4748,4.4981,4.4998,4.5142,4.5337,4.5442,4.5442,4.5442,4.5425,4.5425,4.5451,4.5468,4.5468,4.5468,4.5451,4.5196,4.4776,4.5133,4.532,4.5355,4.5372,4.5606,4.5699,4.5775,4.5975,4.6501,4.6548,4.6799,4.7214,4.7341,4.7468,4.7636,4.778,4.7699,4.7536,4.7705,4.7708,4.7588,4.7485,4.7421,4.7335,4.7252,4.7295,4.7485,4.7588,4.7733,4.7875,4.7955,4.8073,4.817,4.819,4.819,4.8132,4.8209,4.819,4.8229,4.8229,4.8324,4.8324,4.8324,4.8324,4.8324,4.8324,4.8324,4.8324,4.8324,4.8324,4.8324,4.8324,4.8324,4.8324,4.8324,4.8324,4.6,4.5537,4.5303,4.525,4.525,4.4746,4.4491,4.4378,4.453,4.4586,4.4586,4.4708,4.4752,4.4637,4.472,4.4731,4.4598,4.4598,4.4598,4.4598,4.4598,4.457,4.457,4.457,4.457,4.4598,4.4598,4.4598,4.4598,4.4598,4.4598,4.4598,4.4598,4.4598,4.4598,4.4598,4.4598,4.4598,4.4759,4.4797,4.4824,4.4961,4.5196,4.5399,4.552,4.5673,4.6042,4.6067,4.6042,4.6042,4.6,4.5968,4.5992,4.5943,4.5968,4.5992,4.6049,4.5885,4.552,4.558,4.585,4.5925,4.5975,4.6262,4.6286,4.631,4.6501,4.7044,4.7107,4.7323,4.7615,4.7738,4.7741,4.7783,4.7866,4.7904,4.7925,4.7988,4.803,4.7951,4.7913,4.8073,4.7975,4.7856,4.7937,4.8209,4.8305,4.8324,4.8305,4.8287,4.8287,4.8324,4.8324,4.8324,4.8324,4.8324,4.8324,4.8324,4.8324,4.8324,4.8324,4.8324,4.8324,4.8324,4.8324,4.8324,4.8324,4.8324,4.8324,4.8324,4.8324,4.8324,4.8324,4.8324,4.8324,4.684,4.673,4.6238,4.5968,4.5868,4.58,4.5459,4.5081,4.552,4.5485,4.5276,4.564,4.5363,4.4961,4.5062,4.5062,4.4654,4.4598,4.472,4.472,4.4598,4.4737,4.4748,4.4748,4.4692,4.4682,4.4803,4.4786,4.4665,4.4869,4.472,4.4598,4.4637,4.4626,4.4692,4.4814,4.4841,4.4906,4.5115,4.5267,4.5381,4.5588,4.5943,4.6017,4.6067,4.6091,4.614,4.6262,4.631,4.631,4.6334,4.6334,4.6406,4.6382,4.6382,4.643,4.6683,4.6519,4.628,4.6189,4.6358,4.6637,4.6817,4.6863,4.6886,4.6863,4.7107,4.7511,4.7536,4.7657,4.7822,4.7881,4.7886,4.7927,4.7968,4.8008,4.8048,4.8128,4.8149,4.8207,4.8247,4.8305,4.8305,4.8113,4.8055,4.8267,4.8324,4.8324,4.8324,4.8305,4.8305,4.8324,4.8324,4.8324,4.8324,4.8324,4.8324,4.8324,4.8324,4.8324,4.8324,4.8324,4.8324,4.8324,4.8324,4.8324,4.8324,4.8324,4.8324,4.8324,4.8324,4.8324,4.8324,4.8324,4.8324,4.7385,4.7345,4.7169,4.6863,4.6495,4.6165,4.5918,4.5767,4.5943,4.595,4.58,4.5975,4.5893,4.564,4.564,4.5716,4.5546,4.552,4.5494,4.552,4.552,4.5337,4.5275,4.5258,4.5372,4.5196,4.5311,4.5546,4.5554,4.5416,4.5503,4.5416,4.4961,4.4879,4.4971,4.5302,4.5442,4.5503,4.5665,4.5775,4.5825,4.5968,4.6262,4.659,4.6613,4.6817,4.7039,4.7084,4.7084,4.7062,4.7039,4.6994,4.6972,4.6994,4.6976,4.6976,4.7236,4.7191,4.7084,4.7039,4.7214,4.728,4.7385,4.7407,4.7446,4.749,4.76,4.7824,4.7868,4.7907,4.7929,4.7949,4.797,4.803,4.807,4.809,4.8149,4.8208,4.8247,4.8247,4.8267,4.8305,4.8324,4.8305,4.8267,4.8324,4.8324,4.8324,4.8324,4.8324,4.8324,4.8324,4.8324,4.8324,4.8324,4.8324,4.8324,4.8324,4.8324,4.8324,4.8324,4.8324,4.8324,4.8324,4.8324,4.8324,4.8324,4.8324,4.8324,4.8324,4.8324,4.8324,4.8324,4.8324,4.8324,4.7699,4.7699,4.7699,4.7472,4.7107,4.673,4.6495,4.6382,4.6543,4.6454,4.6358,4.6478,4.6358,4.622,4.6269,4.6189,4.6067,4.6017,4.6067,4.6042,4.5968,4.5868,4.5792,4.5792,4.5817,4.5673,4.5825,4.6067,4.5992,4.6091,4.6017,4.5792,4.5494,4.5399,4.5511,4.5893,4.6116,4.6098,4.6286,4.6334,4.6334,4.6566,4.6747,4.7107,4.7129,4.7258,4.749,4.7533,4.7575,4.7575,4.7615,4.7657,4.7678,4.7699,4.7699,4.7699,4.7699,4.7699,4.7699,4.7699,4.7696,4.7636,4.7717,4.7759,4.7881,4.7922,4.7888,4.797,4.7992,4.8012,4.8032,4.807,4.809,4.8149,4.8189,4.8208,4.8228,4.8267,4.8286,4.8305,4.8324,4.8324,4.8324,4.8324,4.8324,4.8324,4.8324,4.8324,4.8324,4.8324,4.8324,4.8324,4.8324,4.8324,4.8324,4.8324,4.8324,4.8324,4.8324,4.8324,4.8324,4.8324,4.8324,4.8324,4.8324,4.8324,4.8324,4.8324,4.8324,4.8324,4.8324,4.8324,4.8324,4.8324,4.8324,4.7699,4.7699,4.7699,4.7678,4.7636,4.7657,4.7323,4.6954,4.7323,4.728,4.6954,4.7302,4.7022,4.6501,4.673,4.6683,4.6406,4.631,4.6286,4.6358,4.643,4.6213,4.6165,4.6213,4.6334,4.6123,4.6286,4.6382,4.6262,4.6382,4.631,4.631,4.6213,4.6067,4.6098,4.6098,4.6123,4.6213,4.6683,4.684,4.6954,4.7258,4.7468,4.7511,4.7533,4.7615,4.7657,4.7699,4.7699,4.7699,4.7699,4.7699,4.7699,4.7699,4.7699,4.7699,4.7699,4.7699,4.7699,4.7699,4.7738,4.7741,4.7822,4.7904,4.7943,4.7986,4.8012,4.8072,4.8052,4.809,4.8148,4.8187,4.8228,4.8247,4.8286,4.8286,4.8305,4.8287,4.8305,4.8324,4.8324,4.8324,4.8324,4.8324,4.8324,4.8324,4.8324,4.8324,4.8324,4.8324,4.8324,4.8324,4.8324,4.8324,4.8324,4.8324,4.8324,4.8324,4.8324,4.8324,4.8324,4.8324,4.8324,4.8324,4.8324,4.8324,4.8324,4.8324,4.8324,4.8324,4.8324,4.8324,4.8324,4.8324,4.8324,4.7699,4.7699,4.7699,4.7699,4.7699,4.7699,4.7575,4.749,4.7615,4.7593,4.749,4.7657,4.7593,4.732,4.7258,4.728,4.7169,4.7151,4.7151,4.7129,4.7066,4.689,4.6799,4.6863,4.6931,4.6799,4.6908,4.7084,4.7214,4.7044,4.7107,4.7151,4.6994,4.6972,4.684,4.6908,4.7173,4.7191,4.7363,4.7446,4.745,4.7597,4.7699,4.7699,4.7699,4.7699,4.7699,4.7699,4.7699,4.7699,4.7699,4.7699,4.7699,4.7699,4.7699,4.7699,4.7699,4.7738,4.778,4.784,4.784,4.7863,4.7907,4.8008,4.8068,4.8108,4.8149,4.817,4.817,4.8228,4.8248,4.8267,4.8286,4.8286,4.8305,4.8305,4.8305,4.8305,4.8324,4.8324,4.8324,4.8324,4.8324,4.8324,4.8324,4.8324,4.8324,4.8324,4.8324,4.8324,4.8324,4.8324,4.8324,4.8324,4.8324,4.8324,4.8324,4.8324,4.8324,4.8324,4.8324,4.8324,4.8324,4.8324,4.8324,4.8324,4.8324,4.8324,4.8324,4.8324,4.8324,4.8324,4.8324,4.8324,4.8324,4.7699,4.7699,4.7699,4.7699,4.7699,4.7699,4.7699,4.7699,4.7699,4.7699,4.7678,4.7678,4.7678,4.7678,4.7699,4.7699,4.7699,4.7678,4.7678,4.7699,4.7678,4.7428,4.7385,4.745,4.7385,4.7323,4.745,4.7657,4.7575,4.7657,4.7636,4.7597,4.7699,4.7446,4.7341,4.749,4.7615,4.7593,4.7636,4.7636,4.7657,4.7699,4.7699,4.7699,4.7699,4.7699,4.7699,4.7699,4.7699,4.7699,4.7699,4.7699,4.7699,4.7699,4.7699,4.7699,4.7699,4.7759,4.7861,4.7925,4.7945,4.8006,4.803,4.811,4.8187,4.8226,4.8247,4.8267,4.8305,4.8306,4.8287,4.8324,4.8324,4.8324,4.8324,4.8324,4.8324,4.8324,4.8324,4.8324,4.8324,4.8324,4.8324,4.8324,4.8324,4.8324,4.8324,4.8324,4.8324,4.8324,4.8324,4.8324,4.8324,4.8324,4.8324,4.8324,4.8324,4.8324,4.8324,4.8324,4.8324,4.8324,4.8324,4.8324,4.8324,4.8324,4.8324,4.8324,4.8324,4.8324,4.8324,4.8324,4.8324,4.8324,4.8324,4.7699,4.7699,4.7699,4.7699,4.7699,4.7699,4.7699,4.7699,4.7699,4.7699,4.7699,4.7699,4.7699,4.7699,4.7699,4.7699,4.7699,4.7699,4.7699,4.7699,4.7699,4.7636,4.7636,4.7657,4.7636,4.7657,4.7699,4.7699,4.7699,4.7699,4.7699,4.7699,4.7699,4.7636,4.7636,4.7636,4.7699,4.7699,4.7699,4.7699,4.7699,4.7699,4.7699,4.7699,4.7699,4.7699,4.7699,4.7699,4.7699,4.7699,4.7699,4.7699,4.7699,4.7699,4.7699,4.7699,4.7738,4.7822,4.7925,4.8008,4.8088,4.8148,4.8187,4.8207,4.8226,4.8267,4.8286,4.8305,4.8324,4.8324,4.8324,4.8324,4.8324,4.8324,4.8324,4.8324,4.8324,4.8324,4.8324,4.8324,4.8324,4.8324,4.8324,4.8324,4.8324,4.8324,4.8324,4.8324,4.8324,4.8324,4.8324,4.8324,4.8324,4.8324,4.8324,4.8324,4.8324,4.8324,4.8324,4.8324,4.8324,4.8324,4.8324,4.8324,4.8324,4.8324,4.8324,4.8324,4.8324,4.8324,4.8324,4.8324,4.8324,4.8324,4.8324,4.7699,4.7699,4.7699,4.7699,4.7699,4.7699,4.7699,4.7699,4.7699,4.7699,4.7699,4.7699,4.7699,4.7699,4.7699,4.7699,4.7699,4.7699,4.7699,4.7699,4.7699,4.7699,4.7699,4.7699,4.7699,4.7699,4.7699,4.7699,4.7699,4.7699,4.7699,4.7699,4.7699,4.7699,4.7699,4.7699,4.7699,4.7699,4.7699,4.7699,4.7699,4.7699,4.7699,4.7699,4.7699,4.7699,4.7699,4.7699,4.7699,4.7699,4.7699,4.7699,4.7699,4.7699,4.7699,4.7822,4.7886,4.797,4.8107,4.8128,4.8169,4.8247,4.8267,4.8267,4.8267,4.8286,4.8324,4.8324,4.8324,4.8324,4.8324,4.8324,4.8324,4.8324,4.8324,4.8324,4.8324,4.8324,4.8324,4.8324,4.8324,4.8324,4.8324,4.8324,4.8324,4.8324,4.8324,4.8324,4.8324,4.8324,4.8324,4.8324,4.8324,4.8324,4.8324,4.8324,4.8324,4.8324,4.8324,4.8324,4.8324,4.8324,4.8324,4.8324,4.8324,4.8324,4.8324,4.8324,4.8324,4.8324,4.8324,4.8324,4.8324,4.8324,4.8343,4.7699,4.7699,4.7699,4.7699,4.7699,4.7699,4.7699,4.7699,4.7699,4.7699,4.7699,4.7699,4.7699,4.7699,4.7699,4.7699,4.7699,4.7699,4.7699,4.7699,4.7699,4.7699,4.7699,4.7699,4.7699,4.7699,4.7699,4.7699,4.7699,4.7699,4.7699,4.7699,4.7699,4.7699,4.7699,4.7699,4.7699,4.7699,4.7699,4.7699,4.7699,4.7699,4.7699,4.7699,4.7699,4.7699,4.7699,4.7699,4.7699,4.7699,4.7738,4.778,4.7801,4.7804,4.7827,4.7947,4.7968,4.805,4.8148,4.8168,4.8246,4.8286,4.8324,4.8287,4.8287,4.8305,4.8324,4.8324,4.8324,4.8324,4.8324,4.8324,4.8324,4.8324,4.8324,4.8324,4.8324,4.8324,4.8324,4.8324,4.8324,4.8324,4.8324,4.8324,4.8324,4.8324,4.8324,4.8324,4.8324,4.8324,4.8324,4.8324,4.8324,4.8324,4.8324,4.8324,4.8324,4.8324,4.8324,4.8324,4.8324,4.8324,4.8324,4.8324,4.8324,4.8324,4.8324,4.8324,4.8324,4.8324,4.8324,4.8324,4.8324,4.8324,4.8363,4.7699,4.7699,4.7699,4.7699,4.7699,4.7699,4.7699,4.7699,4.7699,4.7699,4.7699,4.7699,4.7699,4.7699,4.7699,4.7699,4.7699,4.7699,4.7699,4.7699,4.7699,4.7699,4.7699,4.7699,4.7699,4.7699,4.7699,4.7699,4.7699,4.7699,4.7699,4.7699,4.7699,4.7699,4.7699,4.7699,4.7699,4.7699,4.7699,4.7699,4.7699,4.7699,4.7699,4.7699,4.7699,4.7699,4.7699,4.7699,4.7699,4.7759,4.7822,4.7902,4.7925,4.7968,4.801,4.8032,4.807,4.813,4.8207,4.8226,4.8265,4.8286,4.8324,4.8324,4.8324,4.8324,4.8324,4.8324,4.8324,4.8324,4.8324,4.8324,4.8324,4.8324,4.8324,4.8324,4.8324,4.8324,4.8324,4.8324,4.8324,4.8324,4.8324,4.8324,4.8324,4.8324,4.8324,4.8324,4.8324,4.8324,4.8324,4.8324,4.8324,4.8324,4.8324,4.8324,4.8324,4.8324,4.8324,4.8324,4.8324,4.8324,4.8324,4.8324,4.8324,4.8324,4.8324,4.8324,4.8324,4.8306,4.8324,4.8343,4.8363,4.842,4.842,4.7699,4.7699,4.7699,4.7699,4.7699,4.7699,4.7699,4.7699,4.7699,4.7699,4.7699,4.7699,4.7699,4.7699,4.7699,4.7699,4.7699,4.7699,4.7699,4.7699,4.7699,4.7699,4.7699,4.7699,4.7699,4.7699,4.7699,4.7699,4.7699,4.7699,4.7699,4.7699,4.7699,4.7699,4.7699,4.7699,4.7699,4.7699,4.7699,4.7699,4.7699,4.7699,4.7699,4.7699,4.7699,4.7699,4.772,4.7819,4.784,4.7861,4.7927,4.797,4.797,4.809,4.8148,4.8168,4.817,4.8228,4.8247,4.8267,4.8286,4.8305,4.8324,4.8324,4.8324,4.8324,4.8324,4.8324,4.8324,4.8324,4.8324,4.8324,4.8324,4.8324,4.8324,4.8324,4.8324,4.8324,4.8324,4.8324,4.8324,4.8324,4.8324,4.8324,4.8324,4.8324,4.8324,4.8324,4.8324,4.8324,4.8324,4.8324,4.8324,4.8324,4.8324,4.8324,4.8324,4.8324,4.8324,4.8324,4.8324,4.8324,4.8324,4.8324,4.8324,4.8324,4.8324,4.8324,4.8324,4.8364,4.8458,4.8532,4.8659,4.8747,4.8677,4.7699,4.7699,4.7699,4.7699,4.7699,4.7699,4.7699,4.7699,4.7699,4.7699,4.7699,4.7699,4.7699,4.7699,4.7699,4.7699,4.7699,4.7699,4.7699,4.7699,4.7699,4.7699,4.7699,4.7699,4.7699,4.7699,4.7699,4.7699,4.7699,4.7699,4.7699,4.7699,4.7699,4.7699,4.7699,4.7699,4.7699,4.7699,4.7699,4.7699,4.7699,4.7699,4.7699,4.7699,4.7699,4.772,4.7801,4.7881,4.7904,4.7966,4.8048,4.811,4.8131,4.8208,4.8228,4.8247,4.8286,4.8324,4.8324,4.8324,4.8324,4.8324,4.8324,4.8324,4.8324,4.8324,4.8324,4.8324,4.8324,4.8324,4.8324,4.8324,4.8324,4.8324,4.8324,4.8324,4.8324,4.8324,4.8324,4.8324,4.8324,4.8324,4.8324,4.8324,4.8324,4.8324,4.8324,4.8324,4.8324,4.8324,4.8324,4.8324,4.8324,4.8324,4.8324,4.8324,4.8324,4.8324,4.8324,4.8324,4.8324,4.8324,4.8324,4.8324,4.8324,4.8324,4.8324,4.8363,4.8514,4.8622,4.8693,4.8765,4.8919,4.9099,4.9113,4.7699,4.7699,4.7699,4.7699,4.7699,4.7699,4.7699,4.7699,4.7699,4.7699,4.7699,4.7699,4.7699,4.7699,4.7699,4.7699,4.7699,4.7699,4.7699,4.7699,4.7699,4.7699,4.7699,4.7699,4.7699,4.7699,4.7699,4.7699,4.7699,4.7699,4.7699,4.7699,4.7699,4.7699,4.7699,4.7699,4.7699,4.7699,4.7699,4.7699,4.7699,4.7699,4.7699,4.7699,4.7717,4.7798,4.7861,4.7904,4.7947,4.8048,4.8148,4.8208,4.8229,4.8286,4.8286,4.8305,4.8305,4.8324,4.8324,4.8324,4.8324,4.8324,4.8324,4.8324,4.8324,4.8324,4.8324,4.8324,4.8324,4.8324,4.8324,4.8324,4.8324,4.8324,4.8324,4.8324,4.8324,4.8324,4.8324,4.8324,4.8324,4.8324,4.8324,4.8324,4.8324,4.8324,4.8324,4.8324,4.8324,4.8324,4.8324,4.8324,4.8324,4.8324,4.8324,4.8324,4.8324,4.8324,4.8324,4.8324,4.8324,4.8324,4.8324,4.8324,4.8324,4.8363,4.842,4.8458,4.864,4.8915,4.9034,4.9134,4.9283,4.9464,4.9617,4.7699,4.7699,4.7699,4.7699,4.7699,4.7699,4.7699,4.7699,4.7699,4.7699,4.7699,4.7699,4.7699,4.7699,4.7699,4.7699,4.7699,4.7699,4.7699,4.7699,4.7699,4.7699,4.7699,4.7699,4.7699,4.7699,4.7699,4.7699,4.7699,4.7699,4.7699,4.7699,4.7699,4.7699,4.7699,4.7699,4.7699,4.7699,4.7699,4.7699,4.7699,4.7699,4.7699,4.7699,4.7699,4.7798,4.7881,4.7947,4.8048,4.8168,4.8228,4.8286,4.8287,4.8324,4.8324,4.8324,4.8324,4.8324,4.8324,4.8324,4.8324,4.8324,4.8324,4.8324,4.8324,4.8324,4.8324,4.8324,4.8324,4.8324,4.8324,4.8324,4.8324,4.8324,4.8324,4.8324,4.8324,4.8324,4.8324,4.8324,4.8324,4.8324,4.8324,4.8324,4.8324,4.8324,4.8324,4.8324,4.8383,4.8363,4.8344,4.8383,4.842,4.8324,4.8324,4.8324,4.8324,4.8324,4.8344,4.842,4.842,4.8324,4.8325,4.8495,4.8477,4.8495,4.8532,4.871,4.8965,4.9237,4.9382,4.9535,4.9697,4.984,4.9999]}]]